[[{"header":{"parameterUnit":"m.s-1","parameterCategory":1,"la1":31.0,"la2":29.5877,"lo1":-88.7671,"lo2":-86.6584,"dy":0.0162,"dx":0.0185,"nx":115,"ny":88,"refTime":"2023-04-21T00:00:00:Z","depth":0,"parameterNumber":2,"parameterNumberName":"U-component_of_WINDS"},"data":[0.0,0.0,0.0,0.0,0.0,0.0,0.0,0.0,0.0,0.0,0.0,0.0,0.0,0.0,0.0,0.0,0.0,0.0,0.0,0.0,0.0,0.0,0.0,0.0,0.0,0.0,0.0,0.0,0.0,0.0,0.0,0.0,0.0,0.0,0.0,0.0,0.0,0.0,0.0,0.0,0.0,0.0,0.0,0.0,0.0,0.0,0.0,0.0,0.0,0.0,0.0,0.0,0.0,0.0,0.0,0.0,0.0,0.0,0.0,0.0,0.0,0.0,0.0,0.0,0.0,0.0,0.0,0.0,0.0,0.0,0.0,0.0,0.0,0.0,0.0,0.0,0.0,0.0,0.0,0.0,0.0,0.0,0.0,0.0,0.0,0.0,0.0,0.0,0.0,0.0,0.0,0.0,0.0,0.0,0.0,0.0,0.0,0.0,0.0,0.0,0.0,0.0,0.0,0.0,0.0,0.0,0.0,0.0,0.0,0.0,0.0,0.0,0.0,0.0,0.0,0.0,0.0,0.0,0.0,0.0,0.0,0.0,0.0,0.0,0.0,0.0,0.0,0.0,0.0,0.0,0.0,0.0,0.0,0.0,0.0,0.0,0.0,0.0,0.0,0.0,0.0,0.0,0.0,0.0,0.0,0.0,0.0,0.0,0.0,0.0,0.0,0.0,0.0,0.0,0.0,0.0,0.0,0.0,0.0,0.0,0.0,0.0,0.0,0.0,0.0,0.0,0.0,0.0,0.0,0.0,0.0,0.0,0.0,0.0,0.0,0.0,0.0,0.0,0.0,0.0,0.0,0.0,0.0,0.0,0.0,0.0,0.0,0.0,0.0,0.0,0.0,0.0,0.0,0.0,0.0,0.0,0.0,0.0,0.0,0.0,0.0,0.0,0.0,0.0,0.0,0.0,0.0,0.0,0.0,0.0,0.0,0.0,0.0,0.0,0.0,0.0,0.0,0.0,0.0,0.0,0.0,0.0,0.0,0.0,0.0,0.0,0.0,0.0,0.0,0.0,0.0,0.0,0.0,0.0,0.0,0.0,0.0,0.0,0.0,0.0,0.0,0.0,0.0,0.0,0.0,0.0,0.0,0.0,0.0,0.0,0.0,0.0,0.0,0.0,0.0,0.0,0.0,0.0,0.0,0.0,0.0,0.0,0.0,0.0,0.0,0.0,0.0,0.0,0.0,0.0,0.0,0.0,0.0,0.0,0.0,0.0,0.0,0.0,0.0,0.0,0.0,0.0,0.0,0.0,0.0,0.0,0.0,0.0,0.0,0.0,0.0,0.0,0.0,0.0,0.0,0.0,0.0,0.0,0.0,0.0,0.0,0.0,0.0,0.0,0.0,0.0,0.0,0.0,0.0,0.0,0.0,0.0,0.0,0.0,0.0,0.0,0.0,0.0,0.0,0.0,0.0,0.0,0.0,0.0,0.0,0.0,0.0,0.0,0.0,0.0,0.0,0.0,0.0,0.0,0.0,0.0,0.0,0.0,0.0,0.0,0.0,0.0,0.0,0.0,0.0,0.0,0.0,0.0,0.0,0.0,0.0,0.0,0.0,0.0,0.0,0.0,0.0,0.0,0.0,0.0,0.0,0.0,0.0,0.0,0.0,0.0,0.0,0.0,0.0,0.0,0.0,0.0,0.0,0.0,0.0,0.0,0.0,0.0,0.0,0.0,0.0,0.0,0.0,0.0,0.0,0.0,0.0,0.0,0.0,0.0,0.0,0.0,0.0,0.0,0.0,0.0,0.0,0.0,0.0,0.0,0.0,0.0,0.0,0.0,0.0,0.0,0.0,0.0,0.0,0.0,0.0,0.0,0.0,0.0,0.0,0.0,0.0,0.0,0.0,0.0,0.0,0.0,0.0,0.0,0.0,0.0,0.0,0.0,0.0,0.0,0.0,0.0,0.0,0.0,0.0,0.0,0.0,0.0,0.0,0.0,0.0,0.0,0.0,0.0,0.0,0.0,0.0,0.0,0.0,0.0,0.0,0.0,0.0,0.0,0.0,0.0,0.0,0.0,0.0,0.0,0.0,0.0,0.0,0.0,0.0,0.0,0.0,0.0,0.0,0.0,0.0,0.0,0.0,0.0,0.0,0.0,0.0,0.0,0.0,0.0,0.0,0.0,0.0,0.0,0.0,0.0,0.0,0.0,0.0,0.0,0.0,0.0,0.0,0.0,0.0,0.0,0.0,0.0,0.0,0.0,0.0,0.0,0.0,0.0,0.0,0.0,0.0,0.0,0.0,0.0,0.0,0.0,0.0,0.0,0.0,0.0,0.0,0.0,0.0,0.0,0.0,0.0,0.0,0.0,0.0,0.0,0.0,0.0,0.0,0.0,0.0,0.0,0.0,0.0,0.0,0.0,0.0,0.0,0.0,0.0,0.0,0.0,0.0,0.0,0.0,0.0,0.0,0.0,0.0,0.0,0.0,0.0,0.0,0.0,0.0,0.0,0.0,0.0,0.0,0.0,0.0,0.0,0.0,0.0,0.0,0.0,0.0,0.0,0.0,0.0,0.0,0.0,0.0,0.0,0.0,0.0,0.0,0.0,0.0,0.0,0.0,0.0,0.0,0.0,0.0,0.0,0.0,0.0,0.0,0.0,0.0,0.0,0.0,0.0,0.0,0.0,0.0,0.0,0.0,0.0,0.0,0.0,0.0,0.0,0.0,0.0,0.0,0.0,0.0,0.0,0.0,0.0,0.0,0.0,0.0,0.0,0.0,0.0,0.0,0.0,0.0,0.0,0.0,0.0,0.0,0.0,0.0,0.0,0.0,0.0,0.0,0.0,0.0,0.0,0.0,0.0,0.0,0.0,0.0,0.0,0.0,0.0,0.0,0.0,0.0,0.0,0.0,0.0,0.0,0.0,0.0,0.0,0.0,0.0,0.0,0.0,0.0,0.0,0.0,0.0,0.0,0.0,0.0,0.0,0.0,0.0,0.0,0.0,0.0,0.0,0.0,0.0,0.0,0.0,0.0,0.0,0.0,0.0,0.0,0.0,0.0,0.0,0.0,0.0,0.0,0.0,0.0,0.0,0.0,0.0,0.0,0.0,0.0,0.0,0.0,0.0,0.0,0.0,0.0,0.0,0.0,0.0,0.0,0.0,0.0,0.0,0.0,0.0,0.0,0.0,0.0,0.0,0.0,0.0,0.0,0.0,0.0,0.0,0.0,0.0,0.0,0.0,0.0,0.0,0.0,0.0,0.0,0.0,0.0,0.0,0.0,0.0,0.0,0.0,0.0,0.0,0.0,0.0,0.0,0.0,0.0,0.0,0.0,0.0,0.0,0.0,0.0,0.0,0.0,0.0,0.0,0.0,0.0,0.0,0.0,0.0,0.0,0.0,0.0,0.0,0.0,0.0,0.0,0.0,0.0,0.0,0.0,0.0,0.0,0.0,0.0,0.0,0.0,0.0,0.0,0.0,0.0,0.0,0.0,0.0,0.0,0.0,0.0,0.0,0.0,0.0,0.0,0.0,0.0,0.0,0.0,0.0,0.0,0.0,0.0,0.0,0.0,0.0,0.0,0.0,0.0,0.0,0.0,0.0,0.0,0.0,0.0,0.0,0.0,0.0,0.0,0.0,0.0,0.0,0.0,0.0,0.0,0.0,0.0,0.0,0.0,0.0,0.0,0.0,0.0,0.0,0.0,0.0,0.0,0.0,0.0,0.0,0.0,0.0,0.0,0.0,0.0,0.0,0.0,0.0,0.0,0.0,0.0,0.0,0.0,0.0,0.0,0.0,0.0,0.0,0.0,0.0,0.0,0.0,0.0,0.0,0.0,0.0,0.0,0.0,0.0,0.0,0.0,0.0,0.0,0.0,0.0,0.0,0.0,0.0,0.0,0.0,0.0,0.0,0.0,0.0,0.0,0.0,0.0,0.0,0.0,0.0,0.0,0.0,0.0,0.0,0.0,0.0,0.0,0.0,0.0,0.0,0.0,0.0,0.0,0.0,0.0,0.0,0.0,0.0,0.0,0.0,0.0,0.0,0.0,0.0,0.0,0.0,0.0,0.0,0.0,0.0,0.0,0.0,0.0,0.0,0.0,0.0,0.0,0.0,0.0,0.0,0.0,0.0,0.0,0.0,0.0,0.0,0.0,0.0,0.0,0.0,0.0,0.0,0.0,0.0,0.0,0.0,0.0,0.0,0.0,0.0,0.0,0.0,0.0,0.0,0.0,0.0,0.0,0.0,0.0,0.0,0.0,0.0,0.0,0.0,0.0,0.0,0.0,0.0,0.0,0.0,0.0,0.0,0.0,0.0,-1.425,0.0,0.0,0.0,0.0,0.0,0.0,0.0,0.0,0.0,0.0,0.0,0.0,0.0,0.0,0.0,0.0,0.0,0.0,0.0,0.0,0.0,0.0,0.0,0.0,0.0,0.0,0.0,0.0,0.0,0.0,0.0,0.0,0.0,0.0,0.0,0.0,0.0,0.0,0.0,0.0,0.0,0.0,0.0,0.0,0.0,0.0,0.0,0.0,0.0,0.0,0.0,0.0,0.0,0.0,0.0,0.0,0.0,0.0,0.0,0.0,0.0,0.0,0.0,0.0,0.0,0.0,0.0,0.0,0.0,0.0,0.0,0.0,0.0,0.0,0.0,0.0,0.0,0.0,0.0,0.0,0.0,0.0,0.0,0.0,0.0,0.0,0.0,0.0,0.0,0.0,0.0,0.0,0.0,0.0,0.0,0.0,0.0,0.0,0.0,0.0,0.0,0.0,0.0,0.0,0.0,0.0,0.0,0.0,0.0,0.0,-1.4595,-1.4556,-1.4533,-1.4476,-1.4399,0.0,0.0,0.0,0.0,0.0,0.0,0.0,0.0,0.0,0.0,0.0,0.0,0.0,0.0,0.0,0.0,0.0,0.0,0.0,0.0,0.0,0.0,0.0,0.0,0.0,0.0,0.0,0.0,0.0,0.0,0.0,0.0,0.0,0.0,0.0,0.0,0.0,0.0,0.0,0.0,0.0,0.0,0.0,0.0,0.0,0.0,0.0,0.0,0.0,0.0,0.0,0.0,0.0,0.0,0.0,0.0,0.0,0.0,0.0,0.0,0.0,0.0,0.0,0.0,0.0,0.0,0.0,0.0,0.0,0.0,0.0,0.0,0.0,0.0,0.0,0.0,0.0,0.0,0.0,0.0,0.0,0.0,0.0,0.0,0.0,0.0,0.0,0.0,0.0,0.0,0.0,0.0,0.0,0.0,0.0,0.0,0.0,0.0,0.0,0.0,0.0,0.0,0.0,0.0,0.0,0.0,0.0,0.0,0.0,0.0,0.0,0.0,-1.4441,-1.4381,-1.4355,0.0,0.0,0.0,0.0,0.0,0.0,0.0,0.0,0.0,0.0,0.0,0.0,0.0,0.0,0.0,0.0,0.0,0.0,0.0,0.0,0.0,0.0,0.0,0.0,0.0,0.0,0.0,0.0,0.0,0.0,0.0,0.0,0.0,0.0,0.0,0.0,0.0,0.0,0.0,0.0,0.0,0.0,0.0,0.0,0.0,0.0,0.0,0.0,0.0,0.0,0.0,0.0,0.0,0.0,0.0,0.0,0.0,0.0,0.0,0.0,0.0,0.0,0.0,0.0,0.0,0.0,0.0,0.0,0.0,0.0,0.0,0.0,0.0,0.0,0.0,0.0,0.0,0.0,0.0,0.0,0.0,0.0,0.0,0.0,0.0,0.0,0.0,0.0,0.0,0.0,0.0,0.0,0.0,0.0,0.0,0.0,0.0,0.0,0.0,0.0,0.0,0.0,0.0,0.0,0.0,0.0,0.0,0.0,0.0,0.0,-1.4476,-1.4423,-1.435,0.0,-1.4229,0.0,0.0,0.0,0.0,0.0,0.0,0.0,0.0,0.0,0.0,0.0,0.0,0.0,0.0,0.0,0.0,0.0,0.0,0.0,0.0,0.0,0.0,0.0,0.0,0.0,0.0,0.0,0.0,0.0,0.0,0.0,0.0,0.0,0.0,0.0,0.0,0.0,0.0,0.0,0.0,0.0,0.0,0.0,0.0,0.0,0.0,0.0,0.0,0.0,0.0,0.0,0.0,0.0,0.0,0.0,0.0,0.0,0.0,0.0,0.0,0.0,0.0,0.0,0.0,0.0,0.0,0.0,0.0,0.0,0.0,0.0,0.0,0.0,0.0,0.0,0.0,0.0,0.0,0.0,0.0,0.0,0.0,0.0,0.0,0.0,0.0,0.0,0.0,0.0,0.0,0.0,0.0,0.0,0.0,0.0,0.0,0.0,0.0,0.0,0.0,0.0,0.0,0.0,0.0,0.0,0.0,0.0,0.0,0.0,0.0,-1.4423,-1.435,-1.4281,-1.4187,0.0,0.0,0.0,0.0,0.0,0.0,0.0,0.0,0.0,0.0,0.0,0.0,0.0,0.0,0.0,0.0,0.0,0.0,0.0,0.0,0.0,0.0,0.0,0.0,0.0,0.0,0.0,0.0,0.0,0.0,0.0,0.0,0.0,0.0,0.0,0.0,0.0,0.0,0.0,0.0,0.0,0.0,0.0,0.0,0.0,0.0,0.0,0.0,0.0,0.0,0.0,0.0,0.0,0.0,0.0,0.0,0.0,0.0,0.0,0.0,0.0,0.0,0.0,0.0,0.0,0.0,0.0,0.0,0.0,0.0,0.0,0.0,0.0,0.0,0.0,0.0,0.0,0.0,0.0,0.0,0.0,0.0,0.0,0.0,0.0,0.0,0.0,0.0,0.0,0.0,0.0,0.0,0.0,0.0,0.0,0.0,0.0,0.0,0.0,0.0,0.0,0.0,0.0,0.0,0.0,0.0,0.0,0.0,0.0,0.0,-1.4751,-1.4694,-1.46,-1.4318,-1.4121,-1.406,0.0,0.0,0.0,0.0,0.0,0.0,0.0,0.0,0.0,0.0,0.0,0.0,0.0,0.0,0.0,0.0,0.0,0.0,0.0,0.0,0.0,0.0,0.0,0.0,0.0,0.0,0.0,0.0,0.0,0.0,0.0,0.0,0.0,0.0,0.0,0.0,0.0,0.0,0.0,0.0,0.0,0.0,0.0,0.0,0.0,0.0,0.0,0.0,0.0,0.0,0.0,0.0,0.0,0.0,0.0,0.0,0.0,0.0,0.0,0.0,0.0,0.0,0.0,0.0,0.0,0.0,0.0,0.0,0.0,0.0,0.0,0.0,0.0,0.0,0.0,0.0,0.0,0.0,0.0,0.0,0.0,0.0,0.0,0.0,0.0,0.0,0.0,0.0,0.0,0.0,0.0,0.0,0.0,0.0,0.0,0.0,0.0,0.0,0.0,0.0,0.0,0.0,0.0,0.0,0.0,0.0,0.0,0.0,-1.5535,-1.5546,-1.5485,-1.5303,-1.453,-1.4075,0.0,0.0,0.0,0.0,0.0,0.0,0.0,0.0,0.0,0.0,0.0,0.0,0.0,0.0,0.0,0.0,0.0,0.0,0.0,0.0,0.0,0.0,0.0,0.0,0.0,0.0,0.0,0.0,0.0,0.0,0.0,0.0,0.0,0.0,0.0,0.0,0.0,0.0,0.0,0.0,0.0,0.0,0.0,0.0,0.0,0.0,0.0,0.0,0.0,0.0,0.0,0.0,0.0,0.0,0.0,0.0,0.0,0.0,0.0,0.0,0.0,0.0,0.0,0.0,0.0,0.0,0.0,0.0,0.0,0.0,0.0,0.0,0.0,0.0,0.0,0.0,0.0,0.0,0.0,0.0,0.0,0.0,0.0,0.0,0.0,0.0,0.0,0.0,0.0,0.0,0.0,0.0,0.0,0.0,0.0,0.0,0.0,0.0,0.0,0.0,0.0,0.0,0.0,0.0,0.0,0.0,0.0,0.0,0.0,-1.636,-1.6269,-1.598,-1.544,-1.501,-1.4545,0.0,0.0,0.0,0.0,0.0,0.0,0.0,0.0,0.0,0.0,0.0,0.0,0.0,0.0,0.0,0.0,0.0,0.0,0.0,0.0,0.0,0.0,0.0,0.0,0.0,0.0,0.0,0.0,0.0,0.0,0.0,0.0,0.0,0.0,0.0,0.0,0.0,0.0,0.0,0.0,0.0,0.0,0.0,0.0,0.0,0.0,0.0,0.0,0.0,0.0,0.0,0.0,0.0,0.0,0.0,0.0,0.0,0.0,0.0,0.0,0.0,0.0,0.0,0.0,0.0,0.0,0.0,0.0,0.0,0.0,0.0,0.0,0.0,0.0,0.0,0.0,0.0,0.0,0.0,0.0,0.0,0.0,0.0,0.0,0.0,0.0,0.0,0.0,0.0,0.0,0.0,0.0,0.0,0.0,0.0,0.0,0.0,0.0,0.0,0.0,0.0,0.0,0.0,0.0,0.0,0.0,0.0,0.0,0.0,-1.7177,0.0,-1.6736,-1.6196,-1.5531,-1.495,0.0,0.0,0.0,0.0,0.0,0.0,0.0,0.0,0.0,0.0,0.0,0.0,0.0,0.0,0.0,0.0,0.0,0.0,0.0,0.0,0.0,0.0,0.0,0.0,0.0,0.0,0.0,0.0,0.0,0.0,0.0,0.0,0.0,0.0,0.0,0.0,0.0,0.0,0.0,0.0,0.0,0.0,0.0,0.0,0.0,0.0,0.0,0.0,0.0,0.0,0.0,0.0,0.0,0.0,0.0,0.0,0.0,0.0,0.0,0.0,0.0,0.0,0.0,0.0,0.0,0.0,0.0,0.0,0.0,0.0,0.0,0.0,0.0,0.0,0.0,0.0,0.0,0.0,0.0,0.0,0.0,0.0,0.0,0.0,0.0,0.0,0.0,0.0,0.0,0.0,0.0,0.0,0.0,0.0,0.0,0.0,0.0,0.0,0.0,0.0,0.0,0.0,0.0,0.0,0.0,0.0,0.0,0.0,-1.7307,-1.7954,-1.788,-1.7787,-1.7743,-1.6165,-1.5226,0.0,0.0,0.0,0.0,0.0,0.0,0.0,0.0,0.0,0.0,0.0,0.0,0.0,0.0,0.0,0.0,0.0,0.0,0.0,0.0,0.0,0.0,0.0,0.0,0.0,0.0,0.0,0.0,0.0,0.0,0.0,0.0,0.0,0.0,0.0,0.0,0.0,0.0,0.0,0.0,0.0,0.0,0.0,0.0,0.0,0.0,0.0,0.0,0.0,0.0,0.0,0.0,0.0,0.0,0.0,0.0,0.0,0.0,0.0,0.0,0.0,0.0,0.0,0.0,0.0,0.0,0.0,0.0,0.0,0.0,0.0,0.0,0.0,0.0,0.0,0.0,0.0,0.0,0.0,0.0,0.0,0.0,0.0,0.0,0.0,0.0,0.0,0.0,0.0,0.0,0.0,0.0,0.0,0.0,0.0,0.0,0.0,0.0,0.0,0.0,0.0,0.0,0.0,0.0,0.0,0.0,0.0,0.0,0.0,-1.883,-1.8741,-1.8414,-1.7815,-1.7206,-1.634,0.0,0.0,0.0,0.0,0.0,0.0,0.0,0.0,0.0,0.0,0.0,0.0,0.0,0.0,0.0,0.0,0.0,0.0,0.0,0.0,0.0,0.0,0.0,0.0,0.0,0.0,0.0,0.0,0.0,0.0,0.0,0.0,0.0,0.0,0.0,0.0,0.0,0.0,0.0,0.0,0.0,0.0,0.0,0.0,0.0,0.0,0.0,0.0,0.0,0.0,0.0,0.0,0.0,0.0,0.0,0.0,0.0,0.0,0.0,0.0,0.0,0.0,0.0,0.0,0.0,0.0,0.0,0.0,0.0,0.0,0.0,0.0,0.0,0.0,0.0,0.0,0.0,0.0,0.0,0.0,0.0,0.0,0.0,0.0,0.0,0.0,0.0,0.0,0.0,0.0,0.0,0.0,0.0,0.0,0.0,0.0,0.0,0.0,0.0,0.0,0.0,0.0,0.0,0.0,0.0,0.0,0.0,0.0,0.0,-2.0559,-2.019,-1.9577,-1.8713,-1.8278,-1.7433,-1.6105,0.0,0.0,0.0,0.0,0.0,0.0,0.0,0.0,0.0,0.0,0.0,0.0,0.0,0.0,0.0,0.0,0.0,0.0,0.0,0.0,0.0,0.0,0.0,0.0,0.0,0.0,0.0,0.0,0.0,0.0,0.0,0.0,0.0,0.0,0.0,0.0,0.0,0.0,0.0,0.0,0.0,0.0,0.0,0.0,0.0,0.0,0.0,0.0,0.0,0.0,0.0,0.0,0.0,0.0,0.0,0.0,0.0,0.0,0.0,0.0,0.0,0.0,0.0,0.0,0.0,0.0,0.0,0.0,0.0,0.0,0.0,0.0,0.0,0.0,0.0,0.0,0.0,0.0,0.0,0.0,0.0,0.0,0.0,0.0,0.0,0.0,0.0,0.0,0.0,0.0,0.0,0.0,0.0,0.0,0.0,0.0,0.0,0.0,0.0,0.0,0.0,0.0,0.0,0.0,0.0,0.0,0.0,0.0,-2.2865,-2.2134,-2.1306,-2.0273,-1.9417,-1.8476,0.0,0.0,0.0,0.0,0.0,0.0,0.0,0.0,0.0,0.0,0.0,0.0,0.0,0.0,0.0,0.0,0.0,0.0,0.0,0.0,0.0,0.0,0.0,0.0,0.0,0.0,0.0,0.0,0.0,0.0,0.0,0.0,0.0,0.0,0.0,0.0,0.0,0.0,0.0,0.0,0.0,0.0,0.0,0.0,0.0,0.0,0.0,0.0,0.0,0.0,0.0,0.0,0.0,0.0,0.0,0.0,0.0,0.0,0.0,0.0,0.0,0.0,0.0,0.0,0.0,0.0,0.0,0.0,0.0,0.0,0.0,0.0,0.0,0.0,0.0,0.0,0.0,0.0,0.0,0.0,0.0,0.0,0.0,0.0,0.0,0.0,0.0,0.0,0.0,0.0,0.0,0.0,0.0,0.0,0.0,0.0,0.0,0.0,0.0,0.0,0.0,0.0,0.0,0.0,0.0,0.0,0.0,0.0,0.0,-2.3812,-2.4683,-2.3842,-2.1213,-2.0802,-1.9676,0.0,0.0,0.0,0.0,0.0,0.0,0.0,0.0,0.0,0.0,0.0,0.0,0.0,0.0,0.0,0.0,0.0,0.0,0.0,0.0,0.0,0.0,0.0,0.0,0.0,0.0,0.0,0.0,0.0,0.0,0.0,0.0,0.0,0.0,0.0,0.0,0.0,0.0,0.0,0.0,0.0,0.0,0.0,0.0,0.0,0.0,0.0,0.0,0.0,0.0,0.0,0.0,0.0,0.0,0.0,0.0,0.0,0.0,0.0,0.0,0.0,0.0,0.0,0.0,0.0,0.0,0.0,0.0,0.0,0.0,0.0,0.0,0.0,0.0,0.0,0.0,0.0,0.0,0.0,0.0,0.0,0.0,0.0,0.0,0.0,0.0,0.0,0.0,0.0,0.0,0.0,0.0,0.0,0.0,0.0,0.0,0.0,0.0,0.0,0.0,0.0,0.0,0.0,0.0,0.0,0.0,0.0,0.0,-2.4315,-2.5151,-2.6574,-2.5928,-2.3045,-2.2221,-2.078,0.0,0.0,0.0,0.0,0.0,0.0,0.0,0.0,0.0,0.0,0.0,0.0,0.0,0.0,0.0,0.0,0.0,0.0,0.0,0.0,0.0,0.0,0.0,0.0,0.0,0.0,0.0,0.0,0.0,0.0,0.0,0.0,0.0,0.0,0.0,0.0,0.0,0.0,0.0,0.0,0.0,0.0,0.0,0.0,0.0,0.0,0.0,0.0,0.0,0.0,0.0,0.0,0.0,0.0,0.0,0.0,0.0,0.0,0.0,0.0,0.0,0.0,0.0,0.0,0.0,0.0,0.0,0.0,0.0,0.0,0.0,0.0,0.0,0.0,0.0,0.0,0.0,0.0,0.0,0.0,0.0,0.0,0.0,0.0,0.0,0.0,0.0,0.0,0.0,0.0,0.0,0.0,0.0,0.0,0.0,0.0,0.0,0.0,0.0,0.0,0.0,0.0,0.0,0.0,0.0,0.0,0.0,0.0,-2.5669,-2.6589,-2.7912,-2.7514,-2.5285,-2.3623,-2.1857,0.0,0.0,0.0,0.0,0.0,0.0,0.0,0.0,0.0,0.0,0.0,0.0,0.0,0.0,0.0,0.0,0.0,0.0,0.0,0.0,0.0,0.0,0.0,0.0,0.0,0.0,0.0,0.0,0.0,0.0,0.0,0.0,0.0,0.0,0.0,0.0,0.0,0.0,0.0,0.0,0.0,0.0,0.0,0.0,0.0,0.0,0.0,0.0,0.0,0.0,0.0,0.0,0.0,0.0,0.0,0.0,0.0,0.0,0.0,0.0,0.0,0.0,0.0,0.0,0.0,0.0,0.0,0.0,0.0,0.0,0.0,0.0,0.0,0.0,0.0,0.0,0.0,0.0,0.0,0.0,0.0,0.0,0.0,0.0,0.0,0.0,0.0,0.0,0.0,0.0,0.0,0.0,0.0,0.0,0.0,0.0,0.0,0.0,0.0,0.0,0.0,0.0,0.0,0.0,0.0,0.0,0.0,0.0,-2.5972,-2.7337,-2.8227,-2.7828,-2.607,-2.4971,-2.3038,0.0,0.0,0.0,0.0,0.0,0.0,0.0,0.0,0.0,0.0,0.0,0.0,0.0,0.0,0.0,0.0,0.0,0.0,0.0,0.0,0.0,0.0,0.0,0.0,0.0,0.0,0.0,0.0,0.0,0.0,0.0,0.0,0.0,0.0,0.0,0.0,0.0,0.0,0.0,0.0,0.0,0.0,0.0,0.0,0.0,0.0,0.0,0.0,-0.6812,0.0,0.0,0.0,0.0,0.0,0.0,0.0,0.0,0.0,0.0,0.0,0.0,0.0,0.0,0.0,0.0,0.0,0.0,0.0,0.0,0.0,0.0,0.0,0.0,0.0,0.0,0.0,0.0,0.0,0.0,0.0,0.0,0.0,0.0,0.0,0.0,0.0,0.0,0.0,0.0,0.0,0.0,0.0,0.0,0.0,0.0,0.0,0.0,0.0,0.0,0.0,0.0,0.0,0.0,0.0,0.0,0.0,0.0,0.0,-2.641,-2.7604,-2.8324,-2.7936,-2.6431,-2.5718,-2.3914,0.0,0.0,0.0,0.0,0.0,0.0,0.0,0.0,0.0,0.0,0.0,0.0,0.0,0.0,0.0,0.0,0.0,0.0,0.0,0.0,0.0,0.0,0.0,0.0,0.0,0.0,0.0,0.0,0.0,0.0,0.0,0.0,0.0,0.0,0.0,0.0,0.0,0.0,0.0,0.0,0.0,0.0,0.0,0.0,0.0,0.0,0.0,0.0,0.0,0.0,0.0,0.0,0.0,0.0,0.0,0.0,0.0,0.0,0.0,0.0,0.0,0.0,0.0,0.0,0.0,0.0,0.0,0.0,0.0,0.0,0.0,0.0,0.0,0.0,0.0,0.0,0.0,0.0,0.0,0.0,0.0,0.0,0.0,0.0,0.0,0.0,0.0,0.0,0.0,0.0,0.0,0.0,0.0,0.0,0.0,0.0,0.0,0.0,0.0,0.0,0.0,0.0,0.0,0.0,0.0,0.0,0.0,-2.5688,-2.6852,-2.7835,-2.8397,-2.7948,-2.6465,-2.614,-2.449,-2.1356,0.0,0.0,0.0,0.0,0.0,0.0,0.0,0.0,0.0,0.0,0.0,0.0,0.0,0.0,0.0,0.0,0.0,0.0,0.0,0.0,0.0,0.0,0.0,0.0,0.0,0.0,0.0,0.0,0.0,0.0,0.0,0.0,0.0,0.0,0.0,0.0,0.0,0.0,-0.8253,-0.8745,0.0,0.0,0.0,0.0,0.0,0.0,0.0,0.0,-0.7757,0.0,0.0,0.0,0.0,0.0,0.0,0.0,0.0,0.0,0.0,0.0,0.0,0.0,0.0,0.0,0.0,0.0,0.0,0.0,0.0,0.0,0.0,0.0,0.0,0.0,0.0,0.0,0.0,0.0,0.0,0.0,0.0,0.0,0.0,0.0,0.0,0.0,0.0,0.0,0.0,0.0,0.0,0.0,0.0,0.0,0.0,0.0,0.0,0.0,0.0,0.0,0.0,0.0,0.0,0.0,0.0,-2.5799,-2.6145,-2.7015,-2.8494,-2.8652,-2.7961,-2.6372,-2.6152,-2.4572,-2.1427,0.0,0.0,0.0,0.0,0.0,0.0,0.0,0.0,0.0,0.0,0.0,0.0,0.0,0.0,0.0,0.0,0.0,0.0,0.0,0.0,0.0,0.0,0.0,0.0,0.0,0.0,0.0,0.0,0.0,0.0,0.0,0.0,0.0,0.0,0.0,0.0,0.0,0.0,0.0,-1.0348,-1.0105,0.0,0.0,0.0,0.0,0.0,0.0,0.0,0.0,-0.8001,0.0,0.0,0.0,0.0,0.0,0.0,0.0,0.0,0.0,0.0,0.0,0.0,0.0,0.0,0.0,0.0,0.0,0.0,0.0,0.0,0.0,0.0,0.0,0.0,0.0,0.0,0.0,0.0,0.0,0.0,0.0,0.0,0.0,0.0,0.0,0.0,0.0,0.0,0.0,0.0,0.0,0.0,0.0,0.0,0.0,0.0,0.0,0.0,0.0,0.0,0.0,0.0,0.0,0.0,0.0,-2.6098,-2.6358,-2.7169,-2.8737,-2.8822,-2.8056,-2.6487,-2.6187,-2.4559,0.0,0.0,0.0,0.0,0.0,0.0,0.0,0.0,0.0,0.0,0.0,0.0,0.0,0.0,0.0,0.0,0.0,0.0,0.0,0.0,0.0,0.0,0.0,0.0,0.0,0.0,0.0,0.0,0.0,0.0,0.0,0.0,0.0,0.0,0.0,0.0,0.0,0.0,0.0,0.0,-1.1294,-1.1109,-1.095,0.0,0.0,0.0,0.0,0.0,0.0,-0.9418,-0.8785,0.0,0.0,0.0,0.0,0.0,0.0,0.0,0.0,0.0,0.0,0.0,0.0,0.0,0.0,0.0,0.0,0.0,0.0,0.0,0.0,0.0,0.0,0.0,0.0,0.0,0.0,0.0,0.0,0.0,0.0,0.0,0.0,0.0,0.0,0.0,0.0,0.0,0.0,0.0,0.0,0.0,0.0,0.0,0.0,0.0,0.0,0.0,0.0,0.0,0.0,0.0,0.0,0.0,0.0,0.0,-2.619,-2.6436,-2.7259,-2.8832,-2.8905,-2.821,-2.6761,-2.6342,-2.4676,0.0,0.0,0.0,0.0,0.0,0.0,0.0,0.0,0.0,0.0,0.0,0.0,0.0,0.0,0.0,0.0,0.0,0.0,0.0,0.0,0.0,0.0,0.0,0.0,0.0,0.0,0.0,0.0,0.0,0.0,0.0,0.0,0.0,0.0,0.0,0.0,0.0,0.0,0.0,0.0,0.0,-1.236,-1.3316,-1.2339,0.0,0.0,0.0,0.0,-1.0942,-1.024,0.0,0.0,0.0,0.0,0.0,0.0,0.0,0.0,0.0,0.0,0.0,0.0,0.0,0.0,0.0,0.0,0.0,0.0,0.0,0.0,0.0,0.0,0.0,0.0,0.0,0.0,0.0,0.0,0.0,0.0,0.0,0.0,0.0,0.0,0.0,0.0,0.0,0.0,0.0,0.0,0.0,0.0,0.0,0.0,0.0,0.0,0.0,0.0,0.0,0.0,0.0,0.0,0.0,0.0,0.0,0.0,-2.619,-2.6355,-2.7214,-2.8795,-2.8905,-2.8443,-2.7508,-2.6702,-2.4996,0.0,0.0,0.0,0.0,0.0,0.0,0.0,0.0,0.0,0.0,0.0,0.0,0.0,0.0,0.0,0.0,0.0,0.0,0.0,0.0,0.0,0.0,0.0,0.0,0.0,0.0,0.0,0.0,0.0,0.0,0.0,0.0,0.0,0.0,0.0,0.0,0.0,0.0,0.0,0.0,0.0,-1.4469,-1.4651,-1.4187,-1.3794,0.0,0.0,-1.2244,-1.1984,-1.1172,0.0,0.0,0.0,0.0,0.0,0.0,0.0,0.0,0.0,0.0,0.0,0.0,0.0,0.0,0.0,0.0,0.0,0.0,0.0,0.0,0.0,0.0,0.0,0.0,0.0,0.0,0.0,0.0,0.0,0.0,0.0,0.0,0.0,0.0,0.0,0.0,0.0,0.0,0.0,0.0,0.0,0.0,0.0,0.0,0.0,0.0,0.0,0.0,0.0,0.0,0.0,0.0,0.0,0.0,0.0,-2.4287,-2.6271,-2.6436,-2.7295,-2.8879,-2.8952,-2.8343,-2.7006,-2.6506,-2.4896,0.0,0.0,0.0,0.0,0.0,0.0,0.0,0.0,0.0,0.0,0.0,0.0,0.0,0.0,0.0,0.0,0.0,0.0,0.0,0.0,0.0,0.0,0.0,0.0,0.0,0.0,0.0,0.0,0.0,0.0,0.0,0.0,0.0,0.0,0.0,0.0,0.0,0.0,0.0,0.0,0.0,0.0,-1.5071,-1.5024,0.0,0.0,0.0,-1.3653,-1.3042,0.0,0.0,0.0,0.0,0.0,0.0,0.0,0.0,0.0,0.0,0.0,0.0,0.0,0.0,0.0,0.0,0.0,0.0,0.0,0.0,0.0,0.0,0.0,0.0,0.0,0.0,0.0,0.0,0.0,0.0,0.0,0.0,0.0,0.0,0.0,0.0,0.0,0.0,0.0,0.0,0.0,0.0,0.0,0.0,0.0,0.0,0.0,0.0,0.0,0.0,0.0,0.0,0.0,0.0,0.0,0.0,0.0,-2.6319,-2.6629,-2.7478,-2.8927,-2.8952,-2.8331,-2.7115,-2.6579,0.0,0.0,0.0,0.0,0.0,0.0,0.0,0.0,0.0,0.0,0.0,0.0,0.0,0.0,0.0,0.0,0.0,0.0,0.0,0.0,0.0,0.0,0.0,0.0,0.0,0.0,0.0,-0.9016,0.0,0.0,0.0,0.0,0.0,0.0,0.0,0.0,0.0,0.0,0.0,0.0,0.0,0.0,-1.5648,-1.5592,-1.5797,-1.5778,0.0,0.0,-1.4669,-1.4026,-1.3559,-1.2833,0.0,0.0,0.0,0.0,0.0,0.0,0.0,0.0,0.0,0.0,0.0,0.0,0.0,0.0,0.0,0.0,0.0,0.0,0.0,0.0,0.0,0.0,0.0,0.0,0.0,0.0,0.0,0.0,0.0,0.0,0.0,0.0,0.0,0.0,0.0,0.0,0.0,0.0,0.0,0.0,0.0,0.0,0.0,0.0,0.0,0.0,0.0,0.0,0.0,0.0,0.0,0.0,0.0,0.0,0.0,-2.6299,-2.7109,-2.7969,-2.8868,-2.8846,-2.8773,-2.8615,-2.7042,-2.5672,0.0,0.0,0.0,0.0,0.0,0.0,0.0,0.0,0.0,0.0,0.0,0.0,0.0,0.0,0.0,0.0,0.0,0.0,0.0,0.0,0.0,0.0,0.0,0.0,0.0,0.0,0.0,0.0,0.0,0.0,0.0,0.0,0.0,0.0,0.0,0.0,0.0,0.0,0.0,0.0,0.0,-1.7162,-1.6669,-1.6772,-1.7017,0.0,0.0,-1.5134,-1.4766,-1.4533,-1.4042,-1.302,0.0,0.0,0.0,0.0,0.0,0.0,0.0,0.0,0.0,0.0,0.0,0.0,0.0,0.0,0.0,0.0,0.0,0.0,0.0,0.0,0.0,0.0,0.0,0.0,0.0,0.0,0.0,0.0,0.0,0.0,0.0,0.0,0.0,0.0,0.0,0.0,0.0,0.0,0.0,0.0,0.0,0.0,0.0,0.0,0.0,0.0,0.0,0.0,0.0,0.0,0.0,0.0,0.0,-2.5357,-2.622,-2.7088,-2.7947,-2.8797,-2.881,-2.8518,-2.7985,-2.7308,-2.6044,0.0,0.0,0.0,0.0,0.0,0.0,0.0,0.0,0.0,0.0,0.0,0.0,0.0,0.0,0.0,0.0,0.0,0.0,0.0,0.0,0.0,0.0,0.0,0.0,0.0,0.0,0.0,0.0,-1.0713,-1.0691,-1.0595,0.0,0.0,0.0,0.0,0.0,0.0,0.0,0.0,0.0,0.0,-1.8411,-1.8738,-1.8641,0.0,0.0,-1.7637,-1.6585,-1.5879,-1.5569,-1.5071,-1.4093,-1.3096,0.0,0.0,0.0,0.0,0.0,0.0,0.0,0.0,0.0,0.0,0.0,0.0,0.0,0.0,0.0,0.0,0.0,0.0,0.0,0.0,0.0,0.0,0.0,0.0,0.0,0.0,0.0,0.0,0.0,0.0,0.0,0.0,0.0,0.0,0.0,0.0,0.0,0.0,0.0,0.0,0.0,0.0,0.0,0.0,0.0,0.0,0.0,0.0,0.0,0.0,0.0,0.0,-2.5672,-2.6513,-2.7381,-2.8131,-2.8761,-2.8749,-2.8482,-2.7888,-2.755,-2.6537,0.0,0.0,0.0,0.0,0.0,0.0,0.0,0.0,0.0,0.0,0.0,0.0,0.0,0.0,0.0,0.0,0.0,0.0,0.0,0.0,0.0,0.0,0.0,0.0,0.0,0.0,0.0,0.0,-1.1604,-1.1614,-1.1832,0.0,0.0,0.0,0.0,0.0,0.0,0.0,0.0,0.0,0.0,-1.9708,-2.0053,-1.9802,-1.9445,-1.9075,-1.837,-1.7635,-1.6876,-1.6584,-1.6091,-1.5089,0.0,0.0,0.0,0.0,0.0,0.0,0.0,0.0,0.0,0.0,0.0,0.0,0.0,0.0,0.0,0.0,0.0,0.0,0.0,0.0,0.0,0.0,0.0,0.0,0.0,0.0,0.0,0.0,0.0,0.0,-2.0566,0.0,0.0,0.0,0.0,0.0,0.0,0.0,0.0,0.0,0.0,0.0,0.0,0.0,0.0,0.0,0.0,0.0,0.0,0.0,0.0,0.0,0.0,-2.6477,-2.7283,-2.814,-2.8637,-2.8712,-2.8637,-2.8601,-2.8627,-2.7791,-2.7296,-2.7175,0.0,0.0,0.0,0.0,0.0,0.0,0.0,0.0,0.0,0.0,0.0,0.0,0.0,0.0,0.0,0.0,0.0,0.0,0.0,0.0,0.0,0.0,0.0,0.0,0.0,0.0,-1.2538,-1.2435,-1.2685,0.0,0.0,0.0,0.0,0.0,0.0,0.0,0.0,0.0,0.0,-2.0336,-2.1045,-2.0332,-1.9916,-1.9395,-1.8405,-1.8176,-1.7971,-1.7625,-1.7499,-1.7115,0.0,0.0,0.0,0.0,0.0,0.0,0.0,0.0,0.0,0.0,0.0,0.0,0.0,0.0,0.0,0.0,0.0,0.0,0.0,0.0,0.0,0.0,0.0,0.0,0.0,0.0,0.0,-2.6147,-2.5634,0.0,0.0,0.0,0.0,0.0,0.0,0.0,0.0,0.0,0.0,0.0,-2.5391,-2.4944,0.0,0.0,0.0,0.0,0.0,0.0,0.0,0.0,0.0,0.0,0.0,0.0,-2.7497,-2.7306,-2.867,-2.9132,-2.8637,-2.8612,-2.8612,-2.8637,-2.8334,-2.7898,-2.7283,0.0,0.0,0.0,0.0,0.0,0.0,0.0,0.0,0.0,0.0,0.0,0.0,0.0,0.0,0.0,0.0,0.0,0.0,0.0,0.0,0.0,0.0,0.0,0.0,0.0,-1.5387,0.0,0.0,0.0,0.0,0.0,0.0,0.0,0.0,0.0,0.0,0.0,-1.9169,-2.0533,-2.107,-2.1189,-2.0866,-2.0698,-2.0286,0.0,0.0,0.0,0.0,0.0,0.0,0.0,0.0,0.0,0.0,0.0,0.0,0.0,0.0,-1.1796,-1.0224,-1.0061,-1.0102,-1.0,0.0,0.0,0.0,0.0,0.0,0.0,0.0,0.0,0.0,0.0,0.0,0.0,0.0,0.0,-2.8163,0.0,-2.6857,0.0,0.0,0.0,0.0,0.0,0.0,0.0,0.0,-2.5787,-2.6275,-2.7106,-2.6642,-2.6586,0.0,-2.6599,-2.6316,0.0,0.0,0.0,0.0,0.0,0.0,0.0,0.0,-2.7949,-2.8021,-2.9173,-2.9623,-2.9429,-2.9419,-2.93,-2.9047,-2.8744,-2.82,-2.7295,-2.5709,-2.4609,0.0,0.0,0.0,0.0,0.0,0.0,0.0,0.0,0.0,0.0,0.0,0.0,0.0,0.0,0.0,0.0,0.0,0.0,0.0,0.0,0.0,0.0,0.0,-1.705,0.0,0.0,0.0,0.0,0.0,0.0,0.0,0.0,0.0,-1.9499,-1.953,-2.0149,-2.179,-2.1887,-2.1771,-2.1632,0.0,0.0,0.0,0.0,0.0,0.0,0.0,-1.8597,-1.8047,-1.726,-1.6374,-1.533,-1.3715,-1.2751,-1.3334,0.0,0.0,-1.1698,-1.1489,-1.1535,-1.1424,-1.1241,-1.1047,-1.1009,-1.0798,-1.0641,0.0,0.0,0.0,0.0,0.0,0.0,0.0,0.0,-3.0294,-2.9959,0.0,-2.9068,0.0,0.0,0.0,0.0,0.0,-2.6776,0.0,0.0,-2.8219,-2.8716,-2.9386,-2.942,-2.9143,-2.8622,-2.9143,-2.8793,-2.7587,-2.6112,0.0,0.0,0.0,0.0,0.0,0.0,-2.7942,-2.9424,-2.967,-3.0098,-3.0856,-3.0925,-3.0618,-2.9821,-2.9034,-2.8224,-2.7317,-2.716,-2.6415,-2.4849,-2.4005,0.0,0.0,0.0,0.0,0.0,0.0,0.0,0.0,0.0,0.0,0.0,0.0,0.0,0.0,0.0,0.0,0.0,0.0,0.0,0.0,-1.7582,0.0,0.0,0.0,0.0,0.0,0.0,0.0,0.0,0.0,0.0,-1.9653,-2.0847,-2.205,-2.2729,0.0,0.0,0.0,0.0,-2.2107,-2.1206,-2.0915,-2.0705,-2.0501,-2.0371,-1.9974,-1.9161,0.0,0.0,-1.543,-1.4758,-1.4466,-1.4312,-1.3927,-1.3258,-1.2559,-1.2201,-1.2006,-1.1917,-1.1731,-1.1458,-1.1382,-1.1247,-1.105,-3.9963,0.0,0.0,0.0,0.0,-3.4432,-3.4073,-3.3367,-3.3216,-3.2583,-3.1536,-3.0715,0.0,0.0,0.0,0.0,0.0,0.0,-2.8733,-2.9025,-2.9042,-2.9524,-3.0282,-2.9765,-2.9713,-3.0041,-2.9782,-2.9173,-2.8347,-2.8479,-2.8017,-2.7055,0.0,0.0,0.0,0.0,-2.9052,-2.9496,-3.021,-3.0676,-3.0892,-3.0975,-3.0618,-2.9821,-2.9603,-2.9057,-2.8173,-2.7545,-2.6979,-2.6412,-2.5549,0.0,0.0,0.0,0.0,0.0,0.0,0.0,0.0,0.0,0.0,0.0,0.0,0.0,0.0,0.0,0.0,0.0,0.0,0.0,-2.006,-1.9601,-1.8968,0.0,0.0,0.0,0.0,0.0,0.0,0.0,0.0,0.0,-2.2181,-2.1524,-2.1754,0.0,0.0,-2.2628,-2.2656,-2.3008,-2.2737,-2.1329,-2.0958,0.0,0.0,-2.0477,-2.0264,-1.9901,-1.9332,-1.8631,-1.769,-1.6552,-1.5783,-1.5994,-1.5551,-1.4907,-1.4272,-1.3726,-1.338,-1.3246,-1.31,-1.2895,-1.2705,-1.2454,-1.2365,-4.3064,-4.0349,-3.9192,-3.813,-3.7191,-3.6959,-3.6612,-3.6173,-3.5633,-3.4709,-3.3558,-3.2773,-3.1989,-3.128,-3.0822,0.0,0.0,0.0,-3.0514,-3.0349,-3.0349,-3.0798,-3.1489,-3.0765,-3.0697,-3.1218,-3.0768,-3.0057,-2.9193,-2.9945,-2.9766,-2.8745,0.0,0.0,-2.8953,-2.9525,-3.0034,-3.0428,-3.1009,-3.1491,-3.183,-3.1576,-3.1234,-3.0763,-3.0437,-2.9853,-2.9029,-2.8458,-2.7962,-2.7583,-2.6715,-2.5809,0.0,0.0,0.0,0.0,0.0,0.0,0.0,0.0,0.0,0.0,0.0,-1.935,0.0,0.0,0.0,0.0,-1.9924,-2.1073,-2.1601,-2.1204,0.0,0.0,0.0,0.0,0.0,0.0,0.0,-2.0816,-2.2037,-2.3011,-2.3286,-2.2441,-2.2374,-2.398,-2.3336,-2.2822,-2.3141,0.0,-2.3289,-2.2218,-2.1981,-2.1836,-2.1628,-2.1461,-2.1159,-2.0456,-1.9763,-1.9279,-1.9019,-1.7995,-1.7311,-1.738,-1.6563,-1.5625,-1.5479,-1.4838,-1.4225,-1.4007,-1.3782,-1.3624,-1.3472,-1.3338,-1.3337,-4.5816,-4.4559,-4.185,-4.0536,-4.0197,-3.9478,-3.914,-3.8971,-3.7574,-3.6434,-3.5566,-3.49,-3.4155,-3.341,-3.3423,0.0,-3.2676,-3.2696,-3.2436,-3.1954,-3.1972,-3.2352,-3.2938,-3.2283,-3.2099,-3.2263,-3.1995,-3.1341,-3.0321,-3.0818,-3.0833,-3.0305,-3.0411,-3.0404,-3.032,-3.0346,-3.0858,-3.1775,-3.19,-3.2406,-3.3274,-3.2625,-3.227,-3.2162,-3.1401,-3.0613,-2.9846,-2.9625,-2.9148,-2.8407,-2.7567,-2.7063,-2.6955,0.0,0.0,0.0,0.0,0.0,0.0,0.0,0.0,0.0,0.0,0.0,0.0,0.0,0.0,0.0,-2.2294,0.0,-2.2588,-2.2659,0.0,0.0,0.0,-2.2445,-2.2337,-2.2379,-2.2397,-2.239,0.0,0.0,-2.3393,0.0,-2.352,-2.4146,-2.3575,-2.3281,-2.3846,-2.3827,-2.37,-2.3455,-2.3412,-2.3283,-2.2888,-2.2712,-2.2192,-2.0955,-2.0124,-1.9792,-1.9741,-1.9305,-1.8951,-1.8963,-1.7271,-1.5994,-1.637,-1.569,-1.4886,-1.4523,-1.4103,-1.3851,-1.3905,-1.394,-1.3988,-4.7414,-4.638,-4.4754,-4.3143,-4.1745,-4.0967,-4.0358,-3.9758,-3.887,-3.7415,-3.56,-3.5486,-3.4814,-3.3707,-3.359,-3.3529,-3.3447,-3.3562,-3.3519,-3.3407,-3.3505,-3.3647,-3.382,-3.3647,-3.3602,-3.3647,-3.313,-3.2491,-3.1794,-3.2512,-3.2213,-3.1069,-3.2142,-3.1908,-3.0447,-3.0376,-3.0864,-3.1719,-3.181,-3.231,-3.3274,-3.3109,-3.2755,-3.2198,-3.1382,-3.0834,-3.0603,-2.9435,-2.89,-2.9173,-2.843,-2.77,-2.7128,-2.6568,0.0,0.0,0.0,0.0,0.0,0.0,0.0,0.0,0.0,-2.2478,-2.2129,0.0,-2.2607,0.0,-2.2475,-2.3738,-2.4987,-2.5145,0.0,0.0,-2.3314,-2.3081,-2.245,-2.2934,-2.3253,-2.3227,-2.3731,-2.4189,-2.4353,-2.4297,-2.4298,-2.4419,-2.4128,-2.396,-2.4046,-2.3821,-2.3649,-2.3652,-2.3482,-2.3235,-2.305,-2.2768,-2.233,-2.1639,-2.1352,-2.1172,-2.0876,-2.0655,-2.0464,-2.0349,-1.9739,-1.8747,-1.7512,-1.7021,-1.6638,-1.6044,-1.5086,-1.4321,-1.4496,-1.4541,-1.4699,-4.7591,-4.6995,-4.5748,-4.4499,-4.3288,-4.2387,-4.162,-4.0931,-4.0222,-3.883,-3.7077,-3.6503,-3.562,-3.461,-3.4576,-3.4597,-3.4627,-3.485,-3.4706,-3.4418,-3.4519,-3.4579,-3.4559,-3.4268,-3.4328,-3.4762,-3.4017,-3.3554,-3.3334,-3.3738,-3.3546,-3.2826,-3.3266,-3.2966,-3.1962,-3.1572,-3.1687,-3.2271,-3.2363,-3.2685,-3.3274,-3.331,-3.3109,-3.2683,-3.222,-3.16,-3.0872,-2.9994,-2.9327,-2.9035,-2.8564,-2.8134,-2.7694,-2.7374,-2.6669,0.0,0.0,0.0,0.0,0.0,0.0,0.0,0.0,0.0,0.0,0.0,-2.426,-2.3791,-2.4548,-2.5472,-2.6451,-2.6543,-2.6191,-2.531,-2.4881,-2.4466,-2.403,-2.4068,-2.4083,-2.4039,-2.4445,-2.485,-2.5209,-2.5198,-2.514,-2.5101,-2.4894,-2.4733,-2.4567,-2.4106,-2.3811,-2.415,-2.3777,-2.3319,-2.3112,-2.2755,-2.2371,-2.2041,-2.1853,-2.1693,-2.1404,-2.1262,-2.1119,-2.0844,-2.0578,-1.9916,-1.849,-1.7779,-1.7336,-1.6793,-1.6067,-1.5551,-1.5451,-1.5523,-1.5744,-4.72,-4.6932,-4.5754,-4.5033,-4.4561,-4.3494,-4.2713,-4.2011,-4.1305,-4.0264,-3.8928,-3.7472,-3.6423,-3.578,-3.5801,-3.5756,-3.5834,-3.6041,-3.5805,-3.5153,-3.5256,-3.5352,-3.5318,-3.4663,-3.4817,-3.5566,-3.4777,-3.4546,-3.4845,-3.4735,-3.4702,-3.4781,-3.4127,-3.3829,-3.3881,-3.3155,-3.2827,-3.2997,-3.3039,-3.3117,-3.3229,-3.328,-3.328,-3.3259,-3.3172,-3.2493,-3.116,-3.0758,-2.999,-2.8775,-2.8461,-2.834,-2.8393,-2.7895,-2.7548,0.0,-2.6983,0.0,0.0,0.0,0.0,0.0,0.0,0.0,0.0,-2.5901,-2.6298,-2.7156,-2.725,-2.7352,-2.7506,-2.7549,-2.7529,-2.7353,-2.6709,-2.6266,-2.6121,-2.5324,-2.4782,-2.5008,-2.485,-2.5045,-2.5992,-2.6018,-2.5884,-2.576,-2.5569,-2.5363,-2.5179,-2.4486,-2.427,-2.4928,-2.4382,-2.3851,-2.3407,-2.2981,-2.259,-2.2287,-2.1984,-2.1753,-2.1495,-2.1356,-2.1198,-2.0893,-2.0645,-2.0158,-1.925,-1.839,-1.7731,-1.7447,-1.7198,-1.6913,-1.6545,-1.6552,-1.6747,-4.7803,-4.6648,-4.5978,-4.5158,-4.4253,-4.3701,-4.2836,-4.1814,-4.1251,-4.0315,-3.905,-3.7519,-3.6786,-3.6752,-3.5983,-3.5689,-3.5778,-3.5954,-3.595,-3.5801,-3.5993,-3.6077,-3.6077,-3.5939,-3.6056,-3.6249,-3.5581,-3.5331,-3.5502,-3.5483,-3.5225,-3.476,-3.5104,-3.5055,-3.4605,0.0,0.0,0.0,-3.2997,-3.3008,-3.306,-3.306,-3.3091,-3.3117,-3.2445,0.0,-3.2598,-3.0823,-2.9946,-3.0205,-2.9103,0.0,0.0,0.0,0.0,0.0,0.0,0.0,0.0,0.0,0.0,0.0,-2.6581,-2.6177,-2.656,-2.6712,-2.7103,-2.7895,-2.811,-2.8418,-2.9111,-2.9195,-2.8977,-2.8327,-2.7939,-2.7524,-2.7094,-2.5702,-2.5242,-2.6547,-2.5533,-2.5308,-2.6697,-2.6355,-2.5893,-2.5907,-2.5689,-2.5494,-2.5334,-2.5011,-2.5063,-2.5742,-2.5422,-2.4901,-2.4193,-2.3815,-2.3206,-2.2465,-2.2041,-2.1749,-2.1449,-2.1324,-2.1278,-2.1054,-2.0728,-2.0412,-2.0083,-1.9619,-1.9087,-1.8907,-1.8584,-1.8172,-1.7395,-1.718,-1.7276,-4.7736,0.0,-4.6515,-4.563,0.0,-4.4304,-4.3477,-4.2104,-4.1653,-4.0549,-3.9069,-3.8241,-3.7723,-3.7477,-3.7069,-3.6876,-3.6831,-3.6771,-3.686,-3.7091,-3.6956,-3.7077,-3.7422,-3.7422,-3.7314,-3.704,-3.6762,-3.6516,-3.6232,-3.6311,-3.6159,-3.5846,-3.5789,-3.5598,-3.5289,-3.4288,-3.3505,-3.2918,-3.3327,-3.3538,-3.3586,-3.3586,-3.3602,-3.3613,0.0,0.0,0.0,0.0,0.0,0.0,0.0,0.0,0.0,0.0,0.0,-2.9724,-3.0089,-3.0152,-2.9791,-2.9409,-2.9306,-2.9442,-2.9287,-2.8682,-2.7476,-2.7823,-2.8329,-2.8751,-2.8904,-2.9111,-2.9541,-2.9673,-2.9532,-2.9137,-2.8469,-2.798,-2.7775,-2.6994,-2.6618,-2.7006,-2.6472,-2.6426,-2.7628,-2.746,-2.7117,-2.7017,-2.6544,-2.6143,-2.5966,-2.5486,-2.5361,-2.5961,-2.5838,-2.5339,-2.4513,-2.4138,-2.3646,-2.2706,-2.2226,-2.1897,-2.1584,-2.1402,-2.1278,-2.1103,-2.0859,-2.0578,-2.0323,-2.001,-1.969,-1.9398,-1.913,-1.8798,-1.8267,-1.7983,-1.7846,-4.7568,-4.7203,-4.6946,-4.6093,-4.4854,-4.4896,-4.4038,-4.2584,0.0,0.0,0.0,-3.9242,-3.8768,-3.8115,-3.8159,-3.8067,-3.7879,-3.7751,-3.7875,-3.8162,-3.7828,-3.803,-3.8594,-3.8594,-3.8294,-3.7793,-3.7783,-3.7526,-3.7015,-3.6961,-3.7005,-3.6954,-3.6319,-3.5933,-3.576,-3.4764,-3.3895,-3.335,-3.3671,-3.3953,-3.4178,-3.4162,-3.4233,-3.4393,-3.3669,-3.2901,-3.2184,-3.1831,-3.1449,-3.1002,-3.0729,-3.0729,-3.0948,-3.1134,-3.1192,-3.1123,-3.1267,-3.1325,-3.1311,-3.1195,-3.1202,-3.132,-3.1519,-3.0772,-2.8608,-2.9138,-2.9503,-2.9401,-2.9481,-2.9531,-2.9569,-2.9673,-2.9701,-2.9664,-2.8884,-2.8387,-2.8566,-2.8237,-2.7824,-2.7628,-2.7356,-2.7535,-2.8426,-2.8417,-2.8362,-2.8175,-2.7382,-2.6775,-2.6522,-2.604,-2.5941,-2.6428,-2.6468,-2.5935,-2.5072,-2.4707,-2.4079,-2.3249,-2.2672,-2.2219,-2.1905,-2.1572,-2.1325,-2.1119,-2.1084,-2.1041,-2.0657,-2.0329,-1.9966,-1.9705,-1.932,-1.9065,-1.8979,-1.8683,-1.8375,-4.7825,-4.7337,-4.6848,-4.5995,-4.4952,-4.4925,-4.4215,-4.3071,-4.249,-4.1753,-4.0865,-4.0197,-3.9546,-3.8802,-3.8326,-3.8031,-3.7912,-3.814,-3.8231,-3.8196,-3.8379,-3.8513,-3.8594,-3.8594,-3.8548,-3.8432,-3.804,-3.7763,-3.761,-3.712,-3.6871,-3.7005,-3.6766,-3.6455,-3.5995,-3.5825,-3.5438,-3.4781,-3.3588,-3.3336,-3.4096,-3.4013,-3.4333,-3.4972,-3.4346,-3.395,-3.382,-3.2406,-3.1622,-3.1646,-3.1001,-3.0672,-3.0844,-3.1635,-3.1988,-3.1989,-3.2611,-3.2943,-3.2772,-3.2358,-3.1892,-3.1433,-3.147,-3.1147,-3.033,-3.0352,-3.014,-2.9481,-2.9536,-2.9521,-2.9531,-2.9645,-2.9701,-2.9701,-2.956,-2.9476,-2.9439,-2.865,-2.8378,-2.9045,-2.7978,-2.7782,-2.8952,-2.8755,-2.8362,-2.8156,-2.7633,-2.6776,-2.6291,-2.6666,-2.7381,-2.7931,-2.7991,-2.7473,-2.6517,-2.6276,-2.5422,-2.4147,-2.3467,-2.2859,-2.2089,-2.1723,-2.1514,-2.1215,-2.1913,-2.2149,-2.1628,-2.1219,-2.0868,-2.0617,-1.9875,-1.9242,-1.913,-1.8893,-1.8702,-4.8011,-4.772,-4.7273,-4.6454,-4.5406,-4.4966,-4.4593,-4.4217,-4.3759,-4.2888,-4.1813,-4.1441,-4.0899,-4.0214,-4.0075,-3.9676,-3.9097,-3.911,-3.9238,-3.9416,-3.9273,-3.9445,-3.9825,-3.9859,-3.9595,-3.9203,-3.9049,-3.8734,-3.8339,-3.814,-3.809,-3.8117,-3.7732,-3.7176,-3.6591,-3.6228,-3.5914,-3.5634,-3.503,-3.4905,-3.5295,-3.5243,-3.5385,-3.5794,-3.5167,-3.4591,-3.4194,-3.3414,-3.2874,-3.2613,-3.2178,-3.1978,-3.2227,-3.2596,-3.2777,-3.2769,-3.3123,-3.3274,-3.3101,-3.3002,-3.2839,-3.261,-3.277,-3.2539,-3.1846,-3.1436,-3.1062,-3.0734,-3.04,-3.0133,-3.0143,-2.9859,-2.9655,-2.9617,-2.9683,-2.9692,-2.9598,-2.9279,-2.912,-2.9476,-2.897,-2.8792,-2.9533,-2.9298,-2.8998,-2.8857,-2.8125,-2.7197,-2.635,-2.6925,-2.7731,-2.8317,-2.8349,-2.7816,-2.6963,-2.6676,-2.5897,-2.4401,-2.3846,-2.323,-2.2363,-2.1934,-2.1994,-2.2378,-2.28,-2.2726,-2.2384,-2.1771,-2.1295,-2.0861,-2.0102,-1.9439,-1.9157,-1.8988,-1.8846,-4.8329,-4.8191,-4.766,-4.6877,-4.5961,-4.5399,-4.5172,-4.5072,-4.4918,-4.4107,-4.2895,-4.2625,-4.2151,-4.15,-4.1588,-4.112,-4.0391,-4.0059,-4.012,-4.0431,-4.0109,-4.0261,-4.086,-4.0894,-4.0584,-3.9997,-3.9951,-3.9604,-3.9106,-3.9038,-3.9041,-3.9048,-3.8593,-3.7988,-3.7235,-3.6751,-3.6475,-3.6338,-3.6431,-3.6433,-3.631,-3.6292,-3.6345,-3.6451,-3.59,-3.5256,-3.4701,-3.447,-3.4142,-3.3743,-3.3418,-3.3342,-3.3572,-3.3427,-3.334,-3.334,-3.334,-3.3274,-3.3178,-3.3364,-3.3524,-3.3623,-3.3834,-3.3683,-3.3105,-3.2526,-3.208,-3.179,-3.1239,-3.0974,-3.0884,-3.0295,-2.9869,-2.9869,-2.972,-2.973,-2.986,-2.9926,-2.9936,-2.9898,-2.9889,-2.987,-2.9701,-2.9617,-2.941,-2.9004,-2.8582,-2.7811,-2.6895,-2.7205,-2.7912,-2.8216,-2.8309,-2.7958,-2.714,-2.7,-2.638,-2.4936,-2.4316,-2.3707,-2.2906,-2.2429,-2.2511,-2.3227,-2.35,-2.3438,-2.3206,-2.242,-2.1737,-2.1332,-2.0418,-1.9508,-1.9176,-1.9055,-1.8951,-4.89,-4.8706,-4.7718,-4.6945,-4.652,-4.6548,-4.6036,-4.5239,-4.5457,-4.5162,-4.4344,-4.3639,-4.2895,-4.2204,-4.1801,-4.1461,-4.1086,-4.0749,-4.0597,-4.0534,-4.0563,-4.0741,-4.0894,-4.0894,-4.086,-4.0687,-4.0193,-3.9893,-3.9754,-3.9264,-3.899,-3.9118,-3.9154,-3.8775,-3.8093,-3.8053,-3.7725,-3.7039,-3.7039,-3.68,-3.6327,-3.6184,-3.6448,-3.7173,-3.6448,-3.6024,-3.5918,-3.5172,-3.4836,-3.4936,-3.4294,-3.4019,-3.4123,-3.3686,-3.3414,-3.3378,-3.3378,-3.3364,-3.3364,-3.3393,-3.3466,-3.3573,-3.3726,-3.3823,-3.3766,-3.3705,-3.313,-3.2164,-3.1752,-3.1701,-3.1719,-3.1075,-3.0632,-3.0547,-3.0007,-2.9812,-3.0478,-3.0685,-3.0685,-3.0685,-3.0487,-3.0393,-2.9603,-2.9434,-2.9123,-2.8548,-2.8676,-2.8382,-2.7279,-2.7644,-2.8219,-2.8251,-2.8213,-2.815,-2.7875,-2.7869,-2.7268,-2.6437,-2.5498,-2.4494,-2.369,-2.3407,-2.3719,-2.344,-2.4144,-2.4625,-2.4084,-2.3333,-2.2517,-2.1855,-2.0837,-1.9624,-1.9203,-1.9074,-1.8979,-4.8994,-4.8868,-4.7545,-4.6936,-4.6779,-4.6717,-4.6478,-4.6101,-4.5656,-4.5414,-4.5162,-4.4451,-4.3673,-4.2963,-4.2811,-4.2464,-4.197,-4.1971,-4.1719,-4.1317,-4.1405,-4.1271,-4.0905,-4.0894,-4.0894,-4.0894,-4.0631,-4.0492,-4.0447,-4.0297,-4.0073,-3.9831,-3.9861,-3.9518,-3.8845,-3.8872,-3.8757,-3.8501,-3.8042,-3.7694,-3.7453,-3.6955,-3.683,-3.7113,-3.6958,-3.6589,-3.6202,-3.5793,-3.5528,-3.5241,-3.4883,-3.4558,-3.4279,-3.4431,-3.4222,-3.3448,-3.3355,-3.3349,-3.3393,-3.3349,-3.34,-3.3481,-3.3587,-3.3712,-3.378,-3.3834,-3.3569,-3.313,-3.2662,-3.2413,-3.2398,-3.1868,-3.1379,-3.1272,-3.0623,-3.0309,-3.0634,-3.0292,-2.9987,-2.9987,-2.9979,-2.9952,-2.9556,-2.9384,-2.9163,-2.881,-2.8953,-2.8606,-2.814,-2.8349,-2.8337,-2.8232,-2.8213,-2.8186,-2.8095,-2.8046,-2.7607,-2.6873,-2.6204,-2.5363,-2.3646,-2.3022,-2.3088,-2.375,-2.4777,-2.5309,-2.4989,-2.3756,-2.2703,-2.204,-2.0823,-1.949,-1.925,-1.9205,-1.9149,-4.9192,-4.8799,-4.7475,-4.6927,-4.6896,-4.688,-4.6716,-4.6613,-4.5915,-4.5639,-4.5457,-4.4863,-4.431,-4.3802,-4.364,-4.3287,-4.2804,-4.2834,-4.2586,-4.2106,-4.2221,-4.1881,-4.124,-4.1205,-4.1101,-4.0929,-4.0894,-4.0894,-4.0918,-4.1047,-4.0932,-4.059,-4.0564,-4.0281,-3.9687,-3.9638,-3.954,-3.9376,-3.8848,-3.8476,-3.8194,-3.7666,-3.7298,-3.7087,-3.7164,-3.6974,-3.6465,-3.6394,-3.6218,-3.5776,-3.5563,-3.5258,-3.486,-3.5163,-3.4908,-3.4042,-3.3692,-3.3629,-3.3704,-3.3478,-3.3334,-3.3393,-3.3524,-3.3573,-3.3643,-3.3712,-3.3766,-3.3747,-3.3335,-3.3067,-3.3069,-3.2548,-3.215,-3.2004,-3.1184,-3.0638,-3.0872,-3.0384,-3.0155,-3.0102,-3.0387,-2.9949,-2.9593,-2.9353,-2.9201,-2.9174,-2.9055,-2.894,-2.8893,-2.8639,-2.8406,-2.8254,-2.8213,-2.8164,-2.8109,-2.8074,-2.7649,-2.7233,-2.6745,-2.5698,-2.3791,-2.3184,-2.3013,-2.4246,-2.5165,-2.5482,-2.5222,-2.4127,-2.2551,-2.1658,-2.0593,-1.9579,-1.9335,-1.9317,-1.9224,-4.9677,-4.8799,-4.7475,-4.6927,-4.6929,-4.7204,-4.6979,-4.6454,-4.6298,-4.5838,-4.5228,-4.4783,-4.4581,-4.4445,-4.3912,-4.3539,-4.3322,-4.2985,-4.2808,-4.2698,-4.2885,-4.2599,-4.1974,-4.194,-4.1619,-4.1032,-4.1032,-4.0963,-4.0929,-4.1023,-4.1129,-4.1139,-4.1196,-4.1016,-4.0494,-4.0411,-4.0081,-3.9533,-3.9357,-3.8936,-3.8234,-3.8093,-3.7692,-3.715,-3.7044,-3.6993,-3.6958,-3.6939,-3.6943,-3.7004,-3.6373,-3.6113,-3.6168,-3.5579,-3.5254,-3.5277,-3.4727,-3.4372,-3.4377,-3.3849,-3.3414,-3.3408,-3.3466,-3.3524,-3.3538,-3.3559,-3.3615,-3.3615,-3.3625,-3.3606,-3.3587,-3.3104,-3.2785,-3.2662,-3.1394,-3.102,-3.1678,-3.1567,-3.1686,-3.1666,-3.1512,-3.0831,-2.957,-2.9296,-2.9178,-2.9078,-2.8929,-2.8798,-2.8761,-2.8574,-2.8367,-2.8268,-2.8213,-2.8213,-2.8164,-2.8116,-2.8011,-2.7692,-2.7063,-2.6298,-2.534,-2.455,-2.4588,-2.4644,-2.5387,-2.5662,-2.5371,-2.4269,-2.2555,-2.1471,-2.0843,-2.011,-1.9918,-1.9501,-1.9466,-4.9089,-4.8139,-4.7729,-4.7346,-4.6927,-4.7167,-4.7206,-4.7144,-4.6679,-4.6296,-4.5928,-4.5249,-4.4793,-4.4581,-4.4338,-4.4258,-4.4279,-4.4116,-4.3856,-4.3526,-4.3649,-4.3305,-4.2643,-4.2708,-4.2344,-4.1664,-4.1595,-4.1343,-4.0929,-4.0976,-4.1047,-4.1163,-4.1244,-4.1161,-4.0996,-4.1028,-4.0911,-4.0631,-4.0176,-3.9834,-3.9498,-3.862,-3.7953,-3.7707,-3.7235,-3.6989,-3.6989,-3.6989,-3.7009,-3.7029,-3.6844,-3.6586,-3.6184,-3.5563,-3.5506,-3.5983,-3.5424,-3.4842,-3.4501,-3.4207,-3.384,-3.3465,-3.3422,-3.3466,-3.3495,-3.3538,-3.3553,-3.3567,-3.3587,-3.3601,-3.3587,-3.3486,-3.3484,-3.3311,-3.2564,-3.1997,-3.223,-3.1982,-3.1684,-3.1738,-3.1392,-3.0461,-2.9643,-2.9078,-2.8975,-2.887,-2.8785,-2.8748,-2.86,-2.8471,-2.8398,-2.8254,-2.8213,-2.8213,-2.8213,-2.8144,-2.8039,-2.7961,-2.755,-2.6927,-2.6075,-2.6006,-2.6018,-2.5212,-2.5704,-2.568,-2.5366,-2.4516,-2.2802,-2.1904,-2.1228,-2.0884,-2.0803,-2.042,-2.0362,-4.9106,-4.8385,-4.8117,-4.7734,-4.7283,-4.7127,-4.7235,-4.7372,-4.6848,-4.6608,-4.6413,-4.5604,-4.5105,-4.493,-4.4716,-4.4637,-4.472,-4.4776,-4.4586,-4.4224,-4.435,-4.4018,-4.3417,-4.3416,-4.3088,-4.2492,-4.2413,-4.1999,-4.1343,-4.1274,-4.1183,-4.1128,-4.114,-4.1209,-4.1232,-4.1358,-4.138,-4.1218,-4.0834,-4.0552,-4.0311,-3.9364,-3.8684,-3.8459,-3.7988,-3.7481,-3.706,-3.6989,-3.6989,-3.6989,-3.7048,-3.6879,-3.6425,-3.6095,-3.6185,-3.6684,-3.6112,-3.5517,-3.5123,-3.4702,-3.4192,-3.3813,-3.3538,-3.3422,-3.3466,-3.3495,-3.3495,-3.3495,-3.3538,-3.3524,-3.3481,-3.3615,-3.3766,-3.367,-3.3162,-3.276,-3.2748,-3.2293,-3.2083,-3.2115,-3.1758,-3.0877,-2.9975,-2.9537,-2.9332,-2.9125,-2.9063,-2.8998,-2.8953,-2.8811,-2.873,-2.8655,-2.8392,-2.8249,-2.8213,-2.8172,-2.8067,-2.8011,-2.7876,-2.7315,-2.6989,-2.7103,-2.6852,-2.6051,-2.5656,-2.555,-2.5139,-2.4417,-2.3569,-2.2597,-2.2007,-2.1603,-2.1494,-2.1386,-2.1235,-4.9802,-4.9512,-4.8501,-4.8055,-4.7929,-4.7316,-4.6959,-4.7032,-4.6716,-4.6649,-4.6606,-4.5811,-4.5547,-4.5544,-4.5099,-4.475,-4.4846,-4.489,-4.481,-4.4701,-4.4838,-4.4597,-4.4112,-4.4104,-4.3804,-4.3207,-4.3172,-4.2758,-4.2043,-4.193,-4.1667,-4.1232,-4.1256,-4.129,-4.1209,-4.1347,-4.137,-4.1232,-4.1105,-4.0871,-4.039,-4.0167,-3.9847,-3.935,-3.9161,-3.8515,-3.72,-3.7095,-3.706,-3.6989,-3.6989,-3.7029,-3.702,-3.7045,-3.7302,-3.7326,-3.6809,-3.6576,-3.6475,-3.5319,-3.4681,-3.447,-3.3921,-3.3596,-3.3589,-3.3597,-3.3575,-3.3422,-3.3466,-3.3481,-3.3422,-3.3495,-3.3573,-3.3597,-3.309,-3.2779,-3.2821,-3.2772,-3.2748,-3.2773,-3.26,-3.2428,-3.1568,-3.0528,-2.999,-2.9926,-2.9725,-2.9616,-2.9678,-2.9568,-2.9562,-2.9355,-2.8927,-2.8499,-2.832,-2.82,-2.813,-2.8011,-2.7847,-2.7546,-2.7241,-2.7181,-2.6923,-2.6252,-2.5816,-2.5687,-2.5148,-2.4474,-2.3954,-2.3157,-2.2725,-2.238,-2.2244,-2.2099,-2.1819,-4.9879,-4.9544,-4.9202,-4.8905,-4.8605,-4.7961,-4.7707,-4.7749,-4.7134,-4.6782,-4.6616,-4.6346,-4.6162,-4.6126,-4.5972,-4.5988,-4.6041,-4.5659,-4.5145,-4.4766,-4.4803,-4.4838,-4.4734,-4.4807,-4.4561,-4.394,-4.3414,-4.3103,-4.2792,-4.2285,-4.1885,-4.1771,-4.1856,-4.1591,-4.1209,-4.1638,-4.1731,-4.1256,-4.1152,-4.1036,-4.0871,-4.0507,-4.0167,-3.9966,-3.954,-3.902,-3.8585,-3.8058,-3.7532,-3.706,-3.6989,-3.7029,-3.7071,-3.711,-3.7241,-3.7354,-3.7196,-3.6843,-3.6505,-3.6143,-3.5598,-3.5315,-3.5038,-3.4708,-3.4283,-3.4241,-3.3987,-3.3538,-3.3422,-3.3422,-3.3408,-3.3452,-3.3597,-3.3567,-3.341,-3.3309,-3.3353,-3.3458,-3.3276,-3.2808,-3.2736,-3.2342,-3.1494,-3.0636,-3.0314,-3.0482,-3.0112,-2.9863,-2.989,-3.0191,-2.9698,-2.8941,-2.8727,-2.8841,-2.872,-2.8621,-2.855,-2.8351,-2.8108,-2.7692,-2.7384,-2.7184,-2.6892,-2.6503,-2.6045,-2.5631,-2.5091,-2.4684,-2.4213,-2.3962,-2.366,-2.3376,-2.3044,-2.2765,-2.2503,-4.9999,-4.9917,-4.9629,-4.947,-4.9317,-4.8673,-4.8385,-4.8397,-4.7712,-4.7365,-4.7275,-4.6847,-4.6738,-4.6678,-4.6589,-4.6604,-4.6752,-4.6278,-4.5703,-4.5055,-4.4766,-4.4865,-4.5022,-4.5177,-4.5138,-4.4708,-4.4216,-4.3837,-4.3586,-4.3103,-4.2723,-4.2541,-4.2545,-4.2396,-4.1912,-4.2074,-4.1949,-4.1522,-4.1174,-4.1093,-4.1082,-4.0791,-4.0637,-4.0634,-4.0302,-3.9982,-3.9743,-3.9252,-3.8515,-3.7567,-3.7165,-3.7029,-3.7071,-3.7106,-3.7126,-3.7241,-3.726,-3.7104,-3.6845,-3.6595,-3.6343,-3.5976,-3.5719,-3.5391,-3.5022,-3.4929,-3.4615,-3.3994,-3.419,-3.4154,-3.3936,-3.422,-3.4322,-3.4277,-3.3844,-3.3674,-3.3643,-3.3766,-3.361,-3.314,-3.303,-3.266,-3.2065,-3.1329,-3.0853,-3.1088,-3.0794,-3.042,-3.0513,-3.0791,-3.0225,-2.9804,-2.9781,-2.9674,-2.919,-2.9062,-2.8968,-2.8711,-2.8405,-2.7837,-2.7388,-2.7197,-2.6972,-2.6469,-2.5972,-2.5677,-2.5201,-2.508,-2.4803,-2.4675,-2.4338,-2.3935,-2.351,-2.3357,-2.3109,-5.0129,-5.0454,-4.9847,-4.9748,-4.9992,-4.935,-4.9062,-4.8965,-4.8462,-4.8276,-4.8223,-4.7441,-4.7204,-4.7285,-4.7005,-4.6915,-4.6891,-4.6887,-4.6549,-4.5838,-4.5219,-4.4884,-4.5022,-4.5238,-4.5302,-4.5294,-4.5259,-4.4941,-4.438,-4.4138,-4.3931,-4.331,-4.3316,-4.3272,-4.297,-4.2545,-4.2234,-4.1909,-4.1263,-4.1,-4.1093,-4.1082,-4.114,-4.1311,-4.1263,-4.1016,-4.0578,-4.034,-3.9638,-3.8304,-3.7602,-3.738,-3.7244,-3.7134,-3.7208,-3.7399,-3.72,-3.7243,-3.7288,-3.6916,-3.6577,-3.6557,-3.6107,-3.5565,-3.5581,-3.5594,-3.5335,-3.4677,-3.5033,-3.523,-3.4847,-3.5044,-3.5374,-3.5383,-3.4371,-3.372,-3.3495,-3.353,-3.3486,-3.3465,-3.3459,-3.343,-3.311,-3.2416,-3.2054,-3.1966,-3.1784,-3.1488,-3.1601,-3.1704,-3.2034,-3.156,-3.0782,-3.0376,-2.9858,-2.9656,-2.9561,-2.9359,-2.9002,-2.8386,-2.7568,-2.7271,-2.6907,-2.6383,-2.5972,-2.5659,-2.5413,-2.5259,-2.5025,-2.4645,-2.438,-2.4141,-2.3909,-2.3696,-2.3501,-4.9733,-5.0018,-4.9899,-5.0037,-5.0294,-4.995,-4.9807,-4.971,-4.9098,-4.8846,-4.8689,-4.8182,-4.8032,-4.8332,-4.7961,-4.7946,-4.8057,-4.7774,-4.7564,-4.7128,-4.5974,-4.5264,-4.5063,-4.5184,-4.5318,-4.5371,-4.5397,-4.5294,-4.5079,-4.4596,-4.4216,-4.4035,-4.4026,-4.38,-4.3306,-4.3108,-4.2659,-4.2096,-4.1332,-4.1011,-4.1139,-4.1163,-4.1163,-4.1232,-4.1393,-4.1333,-4.1121,-4.0718,-4.0059,-3.9111,-3.8831,-3.8725,-3.8591,-3.8114,-3.7817,-3.7752,-3.7388,-3.711,-3.7206,-3.714,-3.7109,-3.7309,-3.6952,-3.672,-3.627,-3.6199,-3.584,-3.5244,-3.4918,-3.4895,-3.5135,-3.5094,-3.5151,-3.5387,-3.467,-3.3893,-3.3439,-3.3364,-3.3437,-3.3437,-3.3452,-3.3437,-3.3248,-3.2762,-3.2328,-3.2526,-3.2343,-3.2015,-3.2199,-3.2299,-3.2433,-3.1789,-3.1133,-3.0823,-3.0543,-3.0355,-3.0187,-3.0004,-2.9667,-2.9164,-2.8178,-2.7315,-2.6809,-2.6259,-2.5936,-2.5654,-2.5464,-2.5259,-2.4946,-2.4625,-2.4421,-2.4183,-2.3973,-2.3739,-2.3566,-4.9613,-5.005,-4.9971,-5.0207,-5.064,-5.0489,-5.0477,-5.0422,-4.9807,-4.9483,-4.9293,-4.8562,-4.8449,-4.8726,-4.8332,-4.8389,-4.8702,-4.8425,-4.8146,-4.7669,-4.6684,-4.5744,-4.522,-4.5343,-4.5574,-4.5318,-4.5371,-4.5371,-4.5241,-4.4914,-4.4742,-4.4682,-4.4742,-4.4552,-4.4258,-4.3784,-4.3473,-4.3005,-4.2299,-4.1885,-4.1957,-4.1992,-4.1797,-4.1719,-4.1673,-4.165,-4.1335,-4.106,-4.0424,-3.9505,-3.9245,-3.9322,-3.9287,-3.888,-3.848,-3.8164,-3.7732,-3.742,-3.7122,-3.7164,-3.7241,-3.7336,-3.7317,-3.7197,-3.6933,-3.6827,-3.6506,-3.5862,-3.5361,-3.5268,-3.5335,-3.528,-3.5462,-3.5715,-3.5128,-3.4341,-3.3633,-3.3368,-3.3219,-3.3214,-3.3208,-3.3238,-3.3274,-3.2751,-3.2727,-3.2793,-3.2592,-3.2577,-3.2704,-3.2699,-3.2631,-3.2109,-3.1797,-3.1611,-3.1492,-3.1338,-3.1067,-3.0861,-3.0296,-2.985,-2.887,-2.7742,-2.6991,-2.6453,-2.603,-2.5654,-2.5464,-2.522,-2.4985,-2.4726,-2.4482,-2.4204,-2.3973,-2.376,-2.361,-4.9716,-5.0168,-4.9971,-5.0246,-5.0743,-5.0858,-5.0946,-5.1,-5.0487,-5.0265,-4.9977,-4.8852,-4.8609,-4.8823,-4.8299,-4.8228,-4.8675,-4.8702,-4.8388,-4.7909,-4.7225,-4.6501,-4.5422,-4.5986,-4.5953,-4.5581,-4.5516,-4.5558,-4.5532,-4.5482,-4.5421,-4.5325,-4.5318,-4.5336,-4.501,-4.4561,-4.4345,-4.4,-4.331,-4.2955,-4.2946,-4.2946,-4.2728,-4.2375,-4.2122,-4.1788,-4.1418,-4.1228,-4.0828,-3.9411,-3.9448,-3.9687,-3.9638,-3.9547,-3.9126,-3.8579,-3.8333,-3.7898,-3.7266,-3.724,-3.7138,-3.7138,-3.7219,-3.7276,-3.7208,-3.7175,-3.6983,-3.6452,-3.6328,-3.5722,-3.5435,-3.5811,-3.6221,-3.6257,-3.5616,-3.4816,-3.4258,-3.347,-3.285,-3.2886,-3.2866,-3.2866,-3.2902,-3.2902,-3.2902,-3.2827,-3.2676,-3.2695,-3.275,-3.2685,-3.2753,-3.2707,-3.2508,-3.2433,-3.24,-3.2366,-3.2055,-3.176,-3.1027,-3.0381,-2.9549,-2.8513,-2.7554,-2.6829,-2.6456,-2.5932,-2.5388,-2.5162,-2.5005,-2.4726,-2.4462,-2.4193,-2.394,-2.3739,-2.3566,-4.9708,-4.9501,-4.9781,-5.001,-5.0207,-5.0666,-5.0896,-5.0972,-5.1,-5.0983,-5.0802,-4.9527,-4.9088,-4.9341,-4.833,-4.7902,-4.8293,-4.8578,-4.8459,-4.8007,-4.8443,-4.7695,-4.667,-4.681,-4.6538,-4.6261,-4.6749,-4.668,-4.6268,-4.6124,-4.6096,-4.6035,-4.5608,-4.5318,-4.5328,-4.4803,-4.4311,-4.4207,-4.3621,-4.337,-4.3385,-4.337,-4.3256,-4.3044,-4.2559,-4.1856,-4.1313,-4.1244,-4.108,-4.0916,-4.0911,-4.088,-4.081,-4.0459,-4.003,-3.9651,-3.9105,-3.8524,-3.7868,-3.772,-3.7577,-3.711,-3.715,-3.7068,-3.7145,-3.7106,-3.7075,-3.6708,-3.5932,-3.5314,-3.5279,-3.5901,-3.6506,-3.6646,-3.5918,-3.5049,-3.464,-3.354,-3.2795,-3.2688,-3.2773,-3.2821,-3.2821,-3.2838,-3.2821,-3.2805,-3.2773,-3.274,-3.2743,-3.2797,-3.3005,-3.3229,-3.2956,-3.2806,-3.2754,-3.2615,-3.2214,-3.1982,-3.1398,-3.0893,-3.0055,-2.936,-2.8358,-2.7571,-2.6939,-2.6327,-2.5561,-2.5259,-2.5123,-2.4786,-2.4421,-2.4213,-2.3952,-2.376,-2.3566,-4.9616,-4.9768,-4.9658,-4.9733,-4.9971,-5.0402,-5.0672,-5.0896,-5.1124,-5.1275,-5.1025,-4.9787,-4.9349,-4.9501,-4.8328,-4.7836,-4.8164,-4.858,-4.8661,-4.8514,-4.8815,-4.8545,-4.8071,-4.7789,-4.7559,-4.6931,-4.7208,-4.7202,-4.6962,-4.6914,-4.6942,-4.6824,-4.6158,-4.5964,-4.5845,-4.5216,-4.4872,-4.4803,-4.4458,-4.4242,-4.4267,-4.4267,-4.4,-4.3696,-4.3089,-4.2351,-4.1646,-4.1707,-4.1511,-4.1325,-4.13,-4.1436,-4.1458,-4.1086,-4.0669,-4.0206,-3.9848,-3.9142,-3.8556,-3.832,-3.8126,-3.7344,-3.7391,-3.7226,-3.7091,-3.6911,-3.695,-3.6818,-3.6079,-3.5324,-3.5418,-3.5755,-3.6427,-3.6816,-3.6143,-3.5453,-3.5117,-3.374,-3.2606,-3.2606,-3.2655,-3.2672,-3.2724,-3.2934,-3.2776,-3.2795,-3.2707,-3.271,-3.3278,-3.3368,-3.365,-3.3737,-3.3369,-3.3142,-3.3036,-3.2704,-3.209,-3.1802,-3.1435,-3.106,-3.0496,-2.9882,-2.9238,-2.8418,-2.7538,-2.6484,-2.5805,-2.5522,-2.5206,-2.4766,-2.4441,-2.4255,-2.3994,-2.3782,-2.3588,-4.9522,-5.0061,-4.9509,-4.9501,-4.9892,-5.0136,-5.0448,-5.0858,-5.1124,-5.1205,-5.0983,-4.9896,-4.942,-4.9305,-4.8262,-4.7935,-4.8195,-4.8485,-4.8637,-4.8889,-4.8889,-4.8886,-4.8781,-4.8677,-4.8425,-4.7568,-4.7877,-4.7832,-4.7751,-4.7767,-4.7733,-4.7573,-4.7038,-4.6611,-4.6431,-4.5983,-4.5466,-4.5294,-4.519,-4.519,-4.5251,-4.5251,-4.4872,-4.4233,-4.3765,-4.2901,-4.2185,-4.2029,-4.1892,-4.1163,-4.1152,-4.1209,-4.129,-4.122,-4.0977,-4.0294,-4.0259,-3.981,-3.9175,-3.8942,-3.8651,-3.7767,-3.7798,-3.7519,-3.7015,-3.6791,-3.6846,-3.6641,-3.6171,-3.561,-3.5773,-3.5849,-3.6217,-3.6619,-3.6268,-3.5881,-3.5479,-3.4058,-3.3281,-3.3103,-3.3332,-3.3438,-3.3277,-3.3275,-3.2993,-3.2764,-3.2695,-3.2855,-3.3493,-3.3882,-3.4076,-3.4129,-3.3758,-3.3072,-3.2879,-3.2581,-3.2,-3.1691,-3.1423,-3.1112,-3.081,-3.0335,-2.9694,-2.8951,-2.8061,-2.715,-2.6318,-2.5931,-2.552,-2.4894,-2.4462,-2.4255,-2.3994,-2.3782,-2.364,-4.9584,-4.9233,-4.9281,-4.9421,-4.9693,-5.0058,-5.0331,-5.0705,-5.1016,-5.1312,-5.1229,-4.9964,-4.9388,-4.9239,-4.8262,-4.7935,-4.8163,-4.8356,-4.8549,-4.8801,-4.8832,-4.8894,-4.8987,-4.9015,-4.8839,-4.8957,-4.8963,-4.8709,-4.8425,-4.838,-4.8466,-4.8266,-4.7711,-4.721,-4.6776,-4.6424,-4.5949,-4.5466,-4.5397,-4.5397,-4.5397,-4.5363,-4.5113,-4.4483,-4.4233,-4.3439,-4.2344,-4.2023,-4.176,-4.1174,-4.0989,-4.1012,-4.1105,-4.1175,-4.1071,-4.0897,-4.0805,-4.0412,-3.9755,-3.9662,-3.898,-3.8066,-3.7909,-3.7554,-3.7018,-3.6774,-3.6969,-3.6641,-3.6247,-3.5727,-3.5712,-3.5875,-3.6155,-3.6451,-3.633,-3.5878,-3.5652,-3.5057,-3.441,-3.4429,-3.4447,-3.4288,-3.4005,-3.3704,-3.3475,-3.3246,-3.3035,-3.3371,-3.3988,-3.4199,-3.427,-3.4253,-3.4111,-3.3318,-3.2651,-3.2266,-3.1857,-3.1617,-3.1332,-3.1072,-3.081,-3.0647,-3.0117,-2.9362,-2.886,-2.8285,-2.7506,-2.6646,-2.6091,-2.5665,-2.4989,-2.4347,-2.4219,-2.4118,-2.3634,-4.9665,-4.9325,-4.9078,-4.9087,-4.9331,-4.9701,-5.0097,-5.0441,-5.0826,-5.1162,-5.089,-4.9961,-4.942,-4.9239,-4.8262,-4.7935,-4.813,-4.8195,-4.8356,-4.8644,-4.8738,-4.8832,-4.8925,-4.8984,-4.9077,-4.9168,-4.9316,-4.9364,-4.911,-4.9135,-4.9188,-4.9137,-4.8552,-4.7858,-4.7189,-4.6769,-4.6217,-4.5569,-4.5397,-4.5397,-4.5397,-4.5397,-4.5182,-4.501,-4.4768,-4.4078,-4.294,-4.2521,-4.197,-4.1123,-4.0834,-4.0823,-4.0894,-4.0965,-4.1035,-4.1023,-4.1,-4.0861,-4.0411,-4.0354,-3.9893,-3.896,-3.8772,-3.8283,-3.7658,-3.7505,-3.7484,-3.7109,-3.6635,-3.6242,-3.6242,-3.6212,-3.6402,-3.6591,-3.6422,-3.6287,-3.6186,-3.5926,-3.5827,-3.566,-3.5132,-3.4763,-3.4534,-3.427,-3.4023,-3.3759,-3.3459,-3.3899,-3.4515,-3.4709,-3.4763,-3.4903,-3.478,-3.3845,-3.3071,-3.2488,-3.2107,-3.1773,-3.1297,-3.1053,-3.0708,-3.0501,-3.0234,-2.9749,-2.9405,-2.893,-2.8287,-2.7327,-2.6862,-2.6398,-2.5849,-2.5259,-2.4802,-2.4373,-2.4007,-4.9466,-4.9404,-4.885,-4.8759,-4.9037,-4.9452,-4.9781,-5.0175,-5.0705,-5.0972,-5.0968,-4.9888,-4.9385,-4.9169,-4.8426,-4.7869,-4.813,-4.813,-4.826,-4.842,-4.858,-4.8675,-4.8801,-4.8925,-4.9015,-4.908,-4.9172,-4.9441,-4.9428,-4.9546,-4.9767,-4.9653,-4.9229,-4.8534,-4.7707,-4.7182,-4.6293,-4.5638,-4.5397,-4.5397,-4.5397,-4.5397,-4.5397,-4.5397,-4.5397,-4.4708,-4.351,-4.3021,-4.2259,-4.1332,-4.0793,-4.069,-4.069,-4.0752,-4.0823,-4.0881,-4.0871,-4.0894,-4.086,-4.0825,-4.0411,-3.9549,-3.9755,-3.9074,-3.8347,-3.8139,-3.8334,-3.7698,-3.7207,-3.6748,-3.6574,-3.6629,-3.6629,-3.6629,-3.6684,-3.6705,-3.6661,-3.6561,-3.6551,-3.621,-3.5563,-3.5428,-3.5432,-3.5008,-3.4815,-3.4622,-3.4357,-3.4497,-3.5041,-3.5338,-3.5514,-3.576,-3.5511,-3.4541,-3.3728,-3.2967,-3.2627,-3.2292,-3.1618,-3.1075,-3.0667,-3.029,-3.0054,-2.9838,-2.9426,-2.8962,-2.8436,-2.8072,-2.7549,-2.7089,-2.6665,-2.6164,-2.5571,-2.5069,-2.4649,-4.8727,-4.8727,-4.8635,-4.8759,-4.9037,-4.9412,-4.9701,-5.001,-5.0589,-5.0896,-5.0876,-4.9815,-4.9281,-4.8966,-4.8162,-4.7869,-4.8001,-4.8066,-4.8231,-4.8494,-4.8392,-4.8487,-4.8549,-4.8547,-4.8861,-4.8954,-4.8956,-4.9049,-4.929,-4.956,-4.9708,-4.9698,-4.9682,-4.9183,-4.7913,-4.7507,-4.681,-4.5707,-4.5432,-4.5397,-4.5397,-4.5397,-4.5397,-4.5397,-4.5328,-4.4923,-4.395,-4.3383,-4.2517,-4.1569,-4.0886,-4.0603,-4.0534,-4.0534,-4.0607,-4.0704,-4.0799,-4.0894,-4.0894,-4.0894,-4.0653,-4.0008,-3.9825,-3.9307,-3.8915,-3.8501,-3.8385,-3.7676,-3.7455,-3.7199,-3.6804,-3.6658,-3.6623,-3.6602,-3.6602,-3.6643,-3.6705,-3.6643,-3.669,-3.6771,-3.6112,-3.6427,-3.6648,-3.6098,-3.562,-3.5446,-3.5324,-3.5374,-3.5547,-3.5878,-3.5961,-3.6097,-3.5887,-3.4952,-3.4291,-3.3559,-3.3037,-3.2739,-3.1955,-3.1239,-3.0925,-3.0566,-3.0021,-2.9738,-2.938,-2.9195,-2.8946,-2.858,-2.8161,-2.7749,-2.7309,-2.6809,-2.6234,-2.5758,-2.5318,-4.8604,-4.8604,-4.8604,-4.8676,-4.88,-4.9128,-4.9452,-4.9773,-5.0168,-5.055,-5.0568,-4.9531,-4.8644,-4.8211,-4.7735,-4.8001,-4.8266,-4.82,-4.8564,-4.8895,-4.8695,-4.8559,-4.8952,-4.8811,-4.8798,-4.8954,-4.8984,-4.9015,-4.9229,-4.9441,-4.9619,-4.9708,-4.9732,-4.9372,-4.8236,-4.7676,-4.6976,-4.6205,-4.5707,-4.5432,-4.5397,-4.5397,-4.5397,-4.5397,-4.5397,-4.4905,-4.4242,-4.376,-4.28,-4.1852,-4.1443,-4.118,-4.0762,-4.0743,-4.1047,-4.0583,-4.0631,-4.0728,-4.0871,-4.0871,-4.0664,-4.0549,-4.0342,-4.0239,-3.9767,-3.9112,-3.8824,-3.8834,-3.7992,-3.7439,-3.7024,-3.67,-3.6492,-3.6457,-3.6568,-3.6541,-3.6561,-3.6485,-3.6485,-3.6588,-3.6725,-3.6886,-3.69,-3.6408,-3.6015,-3.6085,-3.5894,-3.584,-3.6046,-3.6396,-3.6367,-3.6267,-3.5884,-3.5272,-3.4728,-3.4094,-3.3461,-3.2972,-3.2138,-3.1571,-3.1352,-3.0965,-3.0429,-2.9904,-2.9553,-2.9421,-2.9366,-2.9085,-2.86,-2.83,-2.7953,-2.745,-2.6903,-2.6367,-2.5769,-4.8604,-4.8604,-4.8604,-4.8604,-4.8604,-4.8883,-4.92,-4.9533,-4.986,-5.0285,-5.0282,-4.9346,-4.8282,-4.7756,-4.7898,-4.8395,-4.9123,-4.8729,-4.9193,-4.9492,-4.936,-4.906,-4.9125,-4.9019,-4.8875,-4.9046,-4.8861,-4.8923,-4.9138,-4.932,-4.9471,-4.959,-4.9619,-4.9262,-4.8609,-4.7969,-4.7255,-4.6419,-4.5688,-4.5405,-4.5371,-4.5371,-4.5344,-4.5344,-4.5249,-4.4963,-4.4376,-4.3928,-4.3011,-4.2438,-4.1868,-4.1426,-4.0841,-4.0789,-4.083,-4.0504,-4.0461,-4.0558,-4.0704,-4.0776,-4.0799,-4.0847,-4.0871,-4.0733,-4.0617,-3.9709,-3.9112,-3.9549,-3.8858,-3.8099,-3.7512,-3.7064,-3.6857,-3.6719,-3.6636,-3.6554,-3.6492,-3.6437,-3.6381,-3.6464,-3.6547,-3.6623,-3.6591,-3.6322,-3.6287,-3.6561,-3.6507,-3.6282,-3.6437,-3.6716,-3.66,-3.6394,-3.6139,-3.5662,-3.5208,-3.4635,-3.3998,-3.3326,-3.2508,-3.1978,-3.1857,-3.1403,-3.0868,-3.0348,-2.9838,-2.9411,-2.922,-2.916,-2.9068,-2.8662,-2.8319,-2.8028,-2.7557,-2.6945,-2.6208,-4.8604,-4.8604,-4.8604,-4.8604,-4.8635,-4.8883,-4.9118,-4.9412,-4.99,-5.0143,-5.0058,-4.9267,-4.8641,-4.8413,-4.8453,-4.9052,-5.0052,-5.0054,-5.022,-5.022,-5.0055,-4.9658,-4.946,-4.9161,-4.8893,-4.8646,-4.861,-4.8736,-4.8954,-4.9138,-4.9199,-4.926,-4.9411,-4.9056,-4.8607,-4.8162,-4.7313,-4.6419,-4.5554,-4.5291,-4.5318,-4.5291,-4.5203,-4.5177,-4.5069,-4.4927,-4.4722,-4.4184,-4.3593,-4.3017,-4.2441,-4.156,-4.112,-4.0909,-4.0747,-4.039,-4.0313,-4.0387,-4.0485,-4.0583,-4.0607,-4.0704,-4.0776,-4.0799,-4.0669,-4.0789,-4.0422,-3.9847,-3.9365,-3.8767,-3.8249,-3.7836,-3.7491,-3.7146,-3.7008,-3.696,-3.6774,-3.6395,-3.636,-3.636,-3.6402,-3.6534,-3.6645,-3.647,-3.6342,-3.658,-3.6615,-3.6406,-3.6455,-3.6664,-3.6588,-3.6471,-3.6346,-3.6075,-3.573,-3.5194,-3.46,-3.3983,-3.3208,-3.2784,-3.2482,-3.1935,-3.1276,-3.0895,-3.0434,-2.973,-2.9177,-2.9288,-2.9273,-2.8944,-2.8575,-2.8124,-2.7678,-2.706,-2.6363,-4.8604,-4.8604,-4.8604,-4.8604,-4.8635,-4.8718,-4.8965,-4.9291,-4.9541,-4.9433,-4.9196,-4.924,-4.8921,-4.8562,-4.9006,-4.9637,-5.0404,-5.0284,-5.0749,-5.0982,-5.075,-5.0155,-4.9758,-4.936,-4.8927,-4.8651,-4.8485,-4.8578,-4.8987,-4.8987,-4.8984,-4.9077,-4.9229,-4.9278,-4.8928,-4.8177,-4.7153,-4.6299,-4.5528,-4.513,-4.513,-4.513,-4.5069,-4.5042,-4.5076,-4.494,-4.4763,-4.4565,-4.4048,-4.3532,-4.3234,-4.2455,-4.1542,-4.1305,-4.0917,-4.0332,-4.0256,-4.0213,-4.0313,-4.0412,-4.0534,-4.0558,-4.0631,-4.0631,-4.0583,-4.0631,-4.0601,-4.0246,-3.9857,-3.9227,-3.9146,-3.8698,-3.8215,-3.7732,-3.7525,-3.7525,-3.7284,-3.6917,-3.6939,-3.7236,-3.6822,-3.6588,-3.6679,-3.67,-3.6589,-3.6527,-3.6527,-3.6582,-3.6561,-3.6541,-3.6464,-3.636,-3.6255,-3.6019,-3.5689,-3.5418,-3.5142,-3.449,-3.3811,-3.3413,-3.2948,-3.235,-3.1765,-3.1378,-3.1114,-3.0559,-3.0101,-2.9801,-2.9422,-2.8936,-2.8477,-2.8033,-2.756,-2.7074,-2.648,-4.8604,-4.8604,-4.8604,-4.8604,-4.8604,-4.8604,-4.8841,-4.921,-4.934,-4.9182,-4.876,-4.9358,-4.9282,-4.8929,-4.9417,-5.0284,-5.0889,-5.1072,-5.1543,-5.1645,-5.1448,-5.0819,-5.0422,-4.9891,-4.9294,-4.8822,-4.8421,-4.8452,-4.8673,-4.8673,-4.8798,-4.8925,-4.9049,-4.9168,-4.8954,-4.8128,-4.7083,-4.6538,-4.571,-4.5343,-4.5337,-4.507,-4.494,-4.494,-4.4886,-4.4831,-4.4748,-4.4591,-4.4393,-4.4039,-4.3741,-4.3267,-4.2489,-4.1779,-4.1373,-4.0764,-4.0197,-4.0062,-4.0163,-4.0288,-4.0412,-4.0387,-4.051,-4.0485,-4.0461,-4.0485,-4.0514,-4.0538,-4.0083,-3.9763,-3.9778,-3.9353,-3.8803,-3.8334,-3.8779,-3.8824,-3.8262,-3.7895,-3.802,-3.8203,-3.7676,-3.7184,-3.693,-3.6986,-3.6753,-3.6748,-3.6907,-3.6734,-3.6402,-3.6381,-3.636,-3.6233,-3.6062,-3.58,-3.5509,-3.5165,-3.4811,-3.4456,-3.3884,-3.3709,-3.3258,-3.2691,-3.2247,-3.1924,-3.1627,-3.1356,-3.0833,-3.0193,-2.9539,-2.8864,-2.8339,-2.7815,-2.7361,-2.6867,-2.6498,-4.8604,-4.8604,-4.8604,-4.8604,-4.8604,-4.8604,-4.88,-4.9118,-4.9421,-4.9489,-4.9323,-4.9413,-4.9495,-4.9646,-5.0083,-5.0863,-5.147,-5.1963,-5.2277,-5.221,-5.2111,-5.1779,-5.1149,-5.042,-4.9625,-4.9094,-4.853,-4.8195,-4.8292,-4.8452,-4.8578,-4.8769,-4.8863,-4.8956,-4.8917,-4.8274,-4.7928,-4.7776,-4.6481,-4.5988,-4.5874,-4.5341,-4.5041,-4.498,-4.4896,-4.4874,-4.4671,-4.4581,-4.4451,-4.4356,-4.3888,-4.3483,-4.305,-4.1929,-4.1354,-4.105,-4.0272,-3.9994,-4.0087,-4.0213,-4.0213,-4.0213,-4.0337,-4.0387,-4.0362,-4.0387,-4.0461,-4.0451,-4.0373,-4.0031,-3.9953,-3.985,-3.9337,-3.9271,-3.9686,-3.9732,-3.9147,-3.8551,-3.8608,-3.8826,-3.854,-3.8105,-3.7647,-3.7291,-3.699,-3.6965,-3.7215,-3.7029,-3.6525,-3.6599,-3.6694,-3.6165,-3.6002,-3.5656,-3.5335,-3.4811,-3.4472,-3.4168,-3.3942,-3.37,-3.3572,-3.3252,-3.2831,-3.2469,-3.2228,-3.2019,-3.1225,-3.0434,-2.9477,-2.8541,-2.8075,-2.7564,-2.7104,-2.6659,-2.6231,-4.8604,-4.8604,-4.8604,-4.8604,-4.8604,-4.88,-4.8996,-4.925,-4.959,-4.9599,-4.9458,-4.968,-4.9732,-4.9946,-5.0584,-5.1275,-5.1619,-5.2194,-5.2409,-5.2409,-5.2373,-5.1945,-5.128,-5.0618,-4.9856,-4.9094,-4.8464,-4.8197,-4.8227,-4.8292,-4.842,-4.858,-4.8738,-4.8863,-4.8785,-4.8342,-4.7932,-4.7661,-4.6675,-4.5959,-4.6389,-4.5852,-4.5382,-4.5349,-4.5292,-4.5026,-4.4688,-4.457,-4.444,-4.4412,-4.3945,-4.3749,-4.325,-4.2139,-4.1526,-4.1002,-4.0191,-3.9781,-3.9833,-3.9884,-3.9986,-4.0087,-4.0163,-4.0213,-4.0188,-4.0213,-4.0288,-4.0337,-4.0362,-4.0207,-4.028,-4.0305,-4.0031,-4.0031,-4.024,-4.024,-3.985,-3.9153,-3.8914,-3.9234,-3.9224,-3.8665,-3.8197,-3.8083,-3.782,-3.7612,-3.7828,-3.7331,-3.6801,-3.7225,-3.7421,-3.6457,-3.596,-3.5572,-3.5186,-3.4668,-3.4275,-3.4025,-3.3822,-3.3617,-3.3487,-3.3466,-3.3287,-3.2892,-3.2771,-3.2593,-3.1569,-3.0472,-2.9143,-2.8213,-2.776,-2.7233,-2.6657,-2.6258,-2.5907,-4.8604,-4.8604,-4.8604,-4.8604,-4.8604,-4.8914,-4.9159,-4.9412,-4.9661,-4.9647,-4.9582,-4.9977,-5.0023,-5.0141,-5.0752,-5.1424,-5.1536,-5.1941,-5.2266,-5.2266,-5.2302,-5.2002,-5.1506,-5.0848,-5.0286,-4.9458,-4.8763,-4.8398,-4.8131,-4.8098,-4.8227,-4.842,-4.8675,-4.8801,-4.8757,-4.8517,-4.8342,-4.8071,-4.7293,-4.6616,-4.6578,-4.6143,-4.5669,-4.5568,-4.5432,-4.5133,-4.484,-4.4552,-4.4265,-4.4236,-4.414,-4.3977,-4.3283,-4.2512,-4.1835,-4.1111,-4.0273,-3.9811,-3.9651,-3.9703,-3.9833,-3.9935,-3.9961,-4.0011,-4.0062,-4.0087,-4.0138,-4.0188,-4.0213,-4.0263,-4.0303,-4.0362,-4.0387,-4.0328,-4.0353,-4.0353,-4.0241,-3.9545,-3.9423,-3.9778,-3.972,-3.9187,-3.8903,-3.8845,-3.8754,-3.8608,-3.846,-3.7737,-3.7106,-3.7513,-3.7801,-3.6951,-3.6095,-3.5699,-3.5185,-3.4537,-3.4198,-3.3873,-3.3668,-3.3519,-3.344,-3.3388,-3.3335,-3.3282,-3.3014,-3.2567,-3.1706,-3.0587,-2.9372,-2.8291,-2.7565,-2.6954,-2.6286,-2.5935,-2.5661,-4.8563,-4.8604,-4.8604,-4.8604,-4.8646,-4.8914,-4.925,-4.9613,-4.9622,-4.9741,-4.99,-4.9868,-4.9986,-5.0324,-5.0743,-5.1086,-5.1424,-5.1721,-5.1941,-5.2086,-5.2122,-5.2056,-5.1897,-5.1409,-5.0817,-5.0154,-4.9425,-4.863,-4.81,-4.8033,-4.8098,-4.826,-4.8515,-4.8675,-4.8702,-4.8762,-4.8754,-4.848,-4.8003,-4.7428,-4.7225,-4.6481,-4.608,-4.5877,-4.5505,-4.5211,-4.4923,-4.4572,-4.4279,-4.4155,-4.4064,-4.4035,-4.36,-4.2663,-4.2222,-4.1492,-4.0454,-4.0074,-3.9721,-3.9773,-3.9685,-3.9796,-3.9703,-3.9833,-3.9935,-3.9935,-3.9961,-4.0037,-4.0062,-4.0087,-4.0113,-4.0138,-4.0163,-4.0188,-4.0238,-4.0263,-4.0313,-4.0133,-4.0139,-4.0173,-4.0007,-3.9759,-3.9783,-3.9725,-3.9292,-3.9024,-3.8628,-3.7888,-3.7399,-3.7608,-3.7727,-3.736,-3.6565,-3.5868,-3.5288,-3.4644,-3.4136,-3.3867,-3.3648,-3.3492,-3.3388,-3.3309,-3.3282,-3.3229,-3.3069,-3.2507,-3.1588,-3.0658,-2.9709,-2.8737,-2.7756,-2.6862,-2.6268,-2.5799,-2.5522,-4.8438,-4.8604,-4.8604,-4.8604,-4.8646,-4.9047,-4.9452,-4.9812,-4.9812,-4.9892,-4.99,-4.99,-4.9971,-5.005,-5.0628,-5.0934,-5.1237,-5.1536,-5.1868,-5.2013,-5.2083,-5.2191,-5.2035,-5.1676,-5.1214,-5.0618,-4.9856,-4.9094,-4.8696,-4.8365,-4.8066,-4.8227,-4.8356,-4.8485,-4.858,-4.8644,-4.8767,-4.8757,-4.8281,-4.8075,-4.7939,-4.7398,-4.6862,-4.6262,-4.6085,-4.563,-4.4716,-4.4423,-4.4135,-4.4015,-4.3956,-4.3927,-4.3647,-4.2936,-4.2422,-4.1582,-4.1056,-4.0757,-4.0265,-4.0159,-4.0074,-3.9727,-3.9568,-3.9573,-3.9703,-3.9815,-3.9815,-3.9858,-3.9935,-3.9961,-3.9986,-4.0011,-4.0037,-4.0062,-4.0113,-4.0138,-4.0163,-4.0179,-4.0186,-3.9948,-3.9815,-3.9976,-4.0043,-4.0052,-3.9645,-3.9355,-3.8788,-3.7946,-3.7499,-3.7593,-3.7639,-3.7308,-3.6843,-3.6078,-3.5487,-3.4858,-3.4336,-3.386,-3.373,-3.3504,-3.3361,-3.3309,-3.3256,-3.3123,-3.2904,-3.2292,-3.144,-3.0627,-2.9943,-2.9015,-2.8048,-2.7112,-2.6327,-2.5967,-2.5547,-4.8396,-4.8563,-4.8604,-4.8676,-4.88,-4.9047,-4.9412,-4.9733,-4.9852,-4.99,-4.99,-4.99,-4.9971,-5.0129,-5.0589,-5.0896,-5.1086,-5.135,-5.1647,-5.1794,-5.1941,-5.1941,-5.1819,-5.1803,-5.1543,-5.098,-5.0418,-4.9756,-4.916,-4.8431,-4.8066,-4.8098,-4.813,-4.826,-4.8388,-4.8483,-4.8547,-4.8539,-4.8464,-4.8453,-4.8314,-4.8081,-4.7315,-4.6746,-4.6671,-4.5689,-4.4671,-4.4411,-4.4223,-4.3905,-4.3809,-4.3717,-4.3495,-4.302,-4.2318,-4.1574,-4.1342,-4.1138,-4.0873,-4.0807,-4.0431,-4.0059,-3.98,-3.9854,-3.9801,-3.984,-3.9785,-3.9729,-3.9781,-3.9833,-3.9858,-3.9884,-3.991,-3.9935,-3.9986,-4.0011,-4.0037,-4.0087,-3.9876,-3.9605,-3.9639,-3.9808,-3.9918,-3.9969,-3.9826,-3.9286,-3.8439,-3.7378,-3.7037,-3.7044,-3.7214,-3.7199,-3.6749,-3.6221,-3.569,-3.5252,-3.4787,-3.433,-3.4064,-3.3831,-3.3498,-3.3229,-3.3118,-3.2931,-3.2687,-3.2074,-3.1469,-3.089,-3.0229,-2.9316,-2.8426,-2.7598,-2.6889,-2.6516,-2.6034,-4.8427,-4.8604,-4.8604,-4.8759,-4.8996,-4.9037,-4.925,-4.9582,-4.9852,-4.99,-4.99,-4.99,-5.001,-5.0168,-5.0441,-5.0781,-5.0972,-5.1199,-5.1387,-5.1499,-5.1758,-5.1831,-5.1904,-5.1984,-5.1801,-5.1404,-5.0876,-5.0251,-4.9292,-4.863,-4.82,-4.8067,-4.8065,-4.8098,-4.8098,-4.8292,-4.8356,-4.829,-4.8349,-4.8438,-4.8124,-4.7754,-4.7325,-4.6723,-4.6334,-4.5815,-4.5157,-4.4734,-4.4474,-4.389,-4.3598,-4.3598,-4.3396,-4.3098,-4.2336,-4.2038,-4.1943,-4.1711,-4.1607,-4.1508,-4.111,-4.0741,-4.0509,-4.0475,-4.0392,-3.9814,-3.9561,-3.9773,-3.9893,-3.9718,-3.9703,-3.9755,-3.9807,-3.9833,-3.9858,-3.991,-3.9961,-3.9885,-3.9674,-3.9412,-3.9337,-3.9505,-3.9621,-3.967,-3.9513,-3.9049,-3.8268,-3.7091,-3.6659,-3.6614,-3.6648,-3.6893,-3.6886,-3.6614,-3.6326,-3.5915,-3.5354,-3.4927,-3.4496,-3.4067,-3.3698,-3.337,-3.3011,-3.2715,-3.2385,-3.2135,-3.1613,-3.1059,-3.045,-2.9697,-2.8822,-2.8071,-2.752,-2.7135,-2.6571,-4.8301,-4.8604,-4.8604,-4.8759,-4.8996,-4.9169,-4.9372,-4.9613,-4.9812,-4.9892,-4.99,-4.9931,-4.9931,-5.005,-5.0285,-5.0557,-5.0743,-5.0972,-5.1199,-5.1462,-5.1684,-5.1758,-5.1868,-5.2013,-5.2062,-5.1902,-5.1407,-5.0712,-4.992,-4.9159,-4.8595,-4.8496,-4.8266,-4.7935,-4.777,-4.8033,-4.8131,-4.8001,-4.8163,-4.8289,-4.8182,-4.8176,-4.7943,-4.7178,-4.6586,-4.5796,-4.5039,-4.4437,-4.4049,-4.3658,-4.3598,-4.3598,-4.3565,-4.34,-4.3234,-4.3102,-4.2874,-4.2576,-4.2311,-4.2146,-4.1815,-4.1413,-4.1149,-4.1177,-4.0807,-3.9906,-3.9568,-3.9854,-3.9941,-3.9761,-3.9614,-3.9692,-3.9711,-3.9737,-3.9729,-3.9781,-3.9858,-3.9707,-3.9497,-3.9354,-3.9151,-3.9198,-3.9335,-3.9276,-3.9115,-3.8683,-3.8029,-3.722,-3.6625,-3.6421,-3.6107,-3.6394,-3.7096,-3.7025,-3.6829,-3.654,-3.6038,-3.5348,-3.4822,-3.436,-3.39,-3.3275,-3.2715,-3.2358,-3.2053,-3.1824,-3.1596,-3.1218,-3.0573,-2.9833,-2.9325,-2.8591,-2.8247,-2.7931,-2.7259,-4.8343,-4.8563,-4.8604,-4.8759,-4.8996,-4.9159,-4.9331,-4.9582,-4.9701,-4.9852,-4.9892,-4.99,-4.9931,-4.9971,-5.0168,-5.0402,-5.0589,-5.082,-5.1086,-5.135,-5.1573,-5.161,-5.1758,-5.1904,-5.1944,-5.1888,-5.147,-5.0913,-5.0549,-4.9784,-4.9254,-4.8958,-4.8397,-4.8,-4.7735,-4.7836,-4.7902,-4.7671,-4.7869,-4.8,-4.813,-4.8096,-4.7925,-4.7258,-4.6897,-4.6041,-4.5147,-4.4517,-4.4257,-4.383,-4.3539,-4.3509,-4.3479,-4.3353,-4.3323,-4.329,-4.3224,-4.3191,-4.2891,-4.2627,-4.2397,-4.1935,-4.1762,-4.1795,-4.1692,-4.0894,-4.0542,-4.0768,-4.0763,-4.0591,-4.0153,-4.0074,-3.9768,-3.9601,-3.9614,-3.9651,-3.9729,-3.9706,-3.9605,-3.958,-3.9358,-3.9208,-3.9249,-3.9061,-3.8871,-3.8321,-3.7695,-3.7178,-3.6644,-3.6419,-3.6063,-3.5995,-3.6819,-3.7291,-3.7189,-3.6967,-3.6653,-3.5992,-3.5208,-3.4286,-3.356,-3.2967,-3.2413,-3.2135,-3.1883,-3.1625,-3.1365,-3.1014,-3.0507,-2.9787,-2.9445,-2.9101,-2.883,-2.8444,-2.7793,-4.8396,-4.8635,-4.8676,-4.8759,-4.8996,-4.9078,-4.9291,-4.9573,-4.9622,-4.9733,-4.986,-4.99,-4.9931,-5.005,-5.0129,-5.0363,-5.0589,-5.0743,-5.0972,-5.1162,-5.1387,-5.1499,-5.1536,-5.1577,-5.1758,-5.1776,-5.1529,-5.147,-5.1343,-5.0439,-4.9678,-4.9323,-4.8925,-4.8492,-4.8067,-4.7902,-4.8001,-4.7603,-4.7604,-4.7671,-4.7704,-4.7737,-4.7669,-4.7601,-4.7436,-4.6743,-4.5719,-4.496,-4.4731,-4.4111,-4.3454,-4.3388,-4.3358,-4.3265,-4.3204,-4.3174,-4.3174,-4.3108,-4.3043,-4.301,-4.2652,-4.2419,-4.241,-4.2308,-4.2235,-4.2034,-4.1659,-4.155,-4.155,-4.111,-4.0674,-4.031,-3.9939,-3.9508,-3.9515,-3.9528,-3.9606,-3.9618,-3.9651,-3.9625,-3.9355,-3.9142,-3.8925,-3.8733,-3.839,-3.7898,-3.7476,-3.6959,-3.6561,-3.6619,-3.6506,-3.6418,-3.6796,-3.7139,-3.7354,-3.7229,-3.6947,-3.6513,-3.5671,-3.4344,-3.3246,-3.2712,-3.2247,-3.1994,-3.171,-3.1394,-3.1014,-3.0628,-3.0115,-2.962,-2.9338,-2.899,-2.8638,-2.8281,-2.8052,-4.8396,-4.8604,-4.8872,-4.8955,-4.9037,-4.9331,-4.9533,-4.9613,-4.9773,-4.9892,-4.9892,-4.9931,-5.001,-5.0207,-5.001,-5.0168,-5.0589,-5.0666,-5.0781,-5.0972,-5.1275,-5.1387,-5.1462,-5.1573,-5.1573,-5.1627,-5.178,-5.1957,-5.1768,-5.0922,-5.0421,-5.0476,-4.9499,-4.9006,-4.8456,-4.8361,-4.8197,-4.7733,-4.7436,-4.7537,-4.7538,-4.7638,-4.7803,-4.7572,-4.7045,-4.6813,-4.6218,-4.523,-4.4611,-4.3994,-4.3541,-4.3375,-4.3373,-4.3408,-4.3346,-4.3315,-4.3282,-4.3281,-4.3282,-4.3119,-4.2792,-4.2921,-4.2883,-4.2783,-4.2747,-4.2777,-4.2509,-4.2407,-4.2169,-4.1352,-4.0851,-4.058,-4.0243,-3.9674,-3.9422,-3.9488,-3.9548,-3.9481,-3.9448,-3.9208,-3.8849,-3.8539,-3.8197,-3.803,-3.777,-3.7413,-3.7354,-3.6894,-3.6773,-3.6837,-3.6839,-3.6869,-3.6867,-3.7142,-3.7389,-3.7268,-3.702,-3.6679,-3.603,-3.4612,-3.3422,-3.2486,-3.2079,-3.1798,-3.1423,-3.1043,-3.0658,-3.0267,-2.9808,-2.9338,-2.9058,-2.8739,-2.8417,-2.8124,-2.7921]},{"header":{"parameterUnit":"m.s-1","parameterCategory":1,"la1":31.0,"la2":29.5877,"lo1":-88.7671,"lo2":-86.6584,"dy":0.0162,"dx":0.0185,"nx":115,"ny":88,"refTime":"2023-04-21T00:00:00:Z","depth":0,"parameterNumber":3,"parameterNumberName":"V-component_of_WINDS"},"data":[0.0,0.0,0.0,0.0,0.0,0.0,0.0,0.0,0.0,0.0,0.0,0.0,0.0,0.0,0.0,0.0,0.0,0.0,0.0,0.0,0.0,0.0,0.0,0.0,0.0,0.0,0.0,0.0,0.0,0.0,0.0,0.0,0.0,0.0,0.0,0.0,0.0,0.0,0.0,0.0,0.0,0.0,0.0,0.0,0.0,0.0,0.0,0.0,0.0,0.0,0.0,0.0,0.0,0.0,0.0,0.0,0.0,0.0,0.0,0.0,0.0,0.0,0.0,0.0,0.0,0.0,0.0,0.0,0.0,0.0,0.0,0.0,0.0,0.0,0.0,0.0,0.0,0.0,0.0,0.0,0.0,0.0,0.0,0.0,0.0,0.0,0.0,0.0,0.0,0.0,0.0,0.0,0.0,0.0,0.0,0.0,0.0,0.0,0.0,0.0,0.0,0.0,0.0,0.0,0.0,0.0,0.0,0.0,0.0,0.0,0.0,0.0,0.0,0.0,0.0,0.0,0.0,0.0,0.0,0.0,0.0,0.0,0.0,0.0,0.0,0.0,0.0,0.0,0.0,0.0,0.0,0.0,0.0,0.0,0.0,0.0,0.0,0.0,0.0,0.0,0.0,0.0,0.0,0.0,0.0,0.0,0.0,0.0,0.0,0.0,0.0,0.0,0.0,0.0,0.0,0.0,0.0,0.0,0.0,0.0,0.0,0.0,0.0,0.0,0.0,0.0,0.0,0.0,0.0,0.0,0.0,0.0,0.0,0.0,0.0,0.0,0.0,0.0,0.0,0.0,0.0,0.0,0.0,0.0,0.0,0.0,0.0,0.0,0.0,0.0,0.0,0.0,0.0,0.0,0.0,0.0,0.0,0.0,0.0,0.0,0.0,0.0,0.0,0.0,0.0,0.0,0.0,0.0,0.0,0.0,0.0,0.0,0.0,0.0,0.0,0.0,0.0,0.0,0.0,0.0,0.0,0.0,0.0,0.0,0.0,0.0,0.0,0.0,0.0,0.0,0.0,0.0,0.0,0.0,0.0,0.0,0.0,0.0,0.0,0.0,0.0,0.0,0.0,0.0,0.0,0.0,0.0,0.0,0.0,0.0,0.0,0.0,0.0,0.0,0.0,0.0,0.0,0.0,0.0,0.0,0.0,0.0,0.0,0.0,0.0,0.0,0.0,0.0,0.0,0.0,0.0,0.0,0.0,0.0,0.0,0.0,0.0,0.0,0.0,0.0,0.0,0.0,0.0,0.0,0.0,0.0,0.0,0.0,0.0,0.0,0.0,0.0,0.0,0.0,0.0,0.0,0.0,0.0,0.0,0.0,0.0,0.0,0.0,0.0,0.0,0.0,0.0,0.0,0.0,0.0,0.0,0.0,0.0,0.0,0.0,0.0,0.0,0.0,0.0,0.0,0.0,0.0,0.0,0.0,0.0,0.0,0.0,0.0,0.0,0.0,0.0,0.0,0.0,0.0,0.0,0.0,0.0,0.0,0.0,0.0,0.0,0.0,0.0,0.0,0.0,0.0,0.0,0.0,0.0,0.0,0.0,0.0,0.0,0.0,0.0,0.0,0.0,0.0,0.0,0.0,0.0,0.0,0.0,0.0,0.0,0.0,0.0,0.0,0.0,0.0,0.0,0.0,0.0,0.0,0.0,0.0,0.0,0.0,0.0,0.0,0.0,0.0,0.0,0.0,0.0,0.0,0.0,0.0,0.0,0.0,0.0,0.0,0.0,0.0,0.0,0.0,0.0,0.0,0.0,0.0,0.0,0.0,0.0,0.0,0.0,0.0,0.0,0.0,0.0,0.0,0.0,0.0,0.0,0.0,0.0,0.0,0.0,0.0,0.0,0.0,0.0,0.0,0.0,0.0,0.0,0.0,0.0,0.0,0.0,0.0,0.0,0.0,0.0,0.0,0.0,0.0,0.0,0.0,0.0,0.0,0.0,0.0,0.0,0.0,0.0,0.0,0.0,0.0,0.0,0.0,0.0,0.0,0.0,0.0,0.0,0.0,0.0,0.0,0.0,0.0,0.0,0.0,0.0,0.0,0.0,0.0,0.0,0.0,0.0,0.0,0.0,0.0,0.0,0.0,0.0,0.0,0.0,0.0,0.0,0.0,0.0,0.0,0.0,0.0,0.0,0.0,0.0,0.0,0.0,0.0,0.0,0.0,0.0,0.0,0.0,0.0,0.0,0.0,0.0,0.0,0.0,0.0,0.0,0.0,0.0,0.0,0.0,0.0,0.0,0.0,0.0,0.0,0.0,0.0,0.0,0.0,0.0,0.0,0.0,0.0,0.0,0.0,0.0,0.0,0.0,0.0,0.0,0.0,0.0,0.0,0.0,0.0,0.0,0.0,0.0,0.0,0.0,0.0,0.0,0.0,0.0,0.0,0.0,0.0,0.0,0.0,0.0,0.0,0.0,0.0,0.0,0.0,0.0,0.0,0.0,0.0,0.0,0.0,0.0,0.0,0.0,0.0,0.0,0.0,0.0,0.0,0.0,0.0,0.0,0.0,0.0,0.0,0.0,0.0,0.0,0.0,0.0,0.0,0.0,0.0,0.0,0.0,0.0,0.0,0.0,0.0,0.0,0.0,0.0,0.0,0.0,0.0,0.0,0.0,0.0,0.0,0.0,0.0,0.0,0.0,0.0,0.0,0.0,0.0,0.0,0.0,0.0,0.0,0.0,0.0,0.0,0.0,0.0,0.0,0.0,0.0,0.0,0.0,0.0,0.0,0.0,0.0,0.0,0.0,0.0,0.0,0.0,0.0,0.0,0.0,0.0,0.0,0.0,0.0,0.0,0.0,0.0,0.0,0.0,0.0,0.0,0.0,0.0,0.0,0.0,0.0,0.0,0.0,0.0,0.0,0.0,0.0,0.0,0.0,0.0,0.0,0.0,0.0,0.0,0.0,0.0,0.0,0.0,0.0,0.0,0.0,0.0,0.0,0.0,0.0,0.0,0.0,0.0,0.0,0.0,0.0,0.0,0.0,0.0,0.0,0.0,0.0,0.0,0.0,0.0,0.0,0.0,0.0,0.0,0.0,0.0,0.0,0.0,0.0,0.0,0.0,0.0,0.0,0.0,0.0,0.0,0.0,0.0,0.0,0.0,0.0,0.0,0.0,0.0,0.0,0.0,0.0,0.0,0.0,0.0,0.0,0.0,0.0,0.0,0.0,0.0,0.0,0.0,0.0,0.0,0.0,0.0,0.0,0.0,0.0,0.0,0.0,0.0,0.0,0.0,0.0,0.0,0.0,0.0,0.0,0.0,0.0,0.0,0.0,0.0,0.0,0.0,0.0,0.0,0.0,0.0,0.0,0.0,0.0,0.0,0.0,0.0,0.0,0.0,0.0,0.0,0.0,0.0,0.0,0.0,0.0,0.0,0.0,0.0,0.0,0.0,0.0,0.0,0.0,0.0,0.0,0.0,0.0,0.0,0.0,0.0,0.0,0.0,0.0,0.0,0.0,0.0,0.0,0.0,0.0,0.0,0.0,0.0,0.0,0.0,0.0,0.0,0.0,0.0,0.0,0.0,0.0,0.0,0.0,0.0,0.0,0.0,0.0,0.0,0.0,0.0,0.0,0.0,0.0,0.0,0.0,0.0,0.0,0.0,0.0,0.0,0.0,0.0,0.0,0.0,0.0,0.0,0.0,0.0,0.0,0.0,0.0,0.0,0.0,0.0,0.0,0.0,0.0,0.0,0.0,0.0,0.0,0.0,0.0,0.0,0.0,0.0,0.0,0.0,0.0,0.0,0.0,0.0,0.0,0.0,0.0,0.0,0.0,0.0,0.0,0.0,0.0,0.0,0.0,0.0,0.0,0.0,0.0,0.0,0.0,0.0,0.0,0.0,0.0,0.0,0.0,0.0,0.0,0.0,0.0,0.0,0.0,0.0,0.0,0.0,0.0,0.0,0.0,0.0,0.0,0.0,0.0,0.0,0.0,0.0,0.0,0.0,0.0,0.0,0.0,0.0,0.0,0.0,0.0,0.0,0.0,0.0,0.0,0.0,0.0,0.0,0.0,0.0,0.0,0.0,0.0,0.0,0.0,0.0,0.0,0.0,0.0,0.0,0.0,0.0,0.0,0.0,0.0,0.0,0.0,0.0,0.0,0.0,0.0,0.0,0.0,0.0,0.0,0.0,0.0,0.0,0.0,0.0,0.0,0.0,0.0,0.0,0.0,0.0,0.0,0.0,0.0,0.0,0.0,0.0,0.0,0.0,0.0,0.0,0.0,0.0,0.0,0.0,0.0,0.0,0.0,0.5275,0.0,0.0,0.0,0.0,0.0,0.0,0.0,0.0,0.0,0.0,0.0,0.0,0.0,0.0,0.0,0.0,0.0,0.0,0.0,0.0,0.0,0.0,0.0,0.0,0.0,0.0,0.0,0.0,0.0,0.0,0.0,0.0,0.0,0.0,0.0,0.0,0.0,0.0,0.0,0.0,0.0,0.0,0.0,0.0,0.0,0.0,0.0,0.0,0.0,0.0,0.0,0.0,0.0,0.0,0.0,0.0,0.0,0.0,0.0,0.0,0.0,0.0,0.0,0.0,0.0,0.0,0.0,0.0,0.0,0.0,0.0,0.0,0.0,0.0,0.0,0.0,0.0,0.0,0.0,0.0,0.0,0.0,0.0,0.0,0.0,0.0,0.0,0.0,0.0,0.0,0.0,0.0,0.0,0.0,0.0,0.0,0.0,0.0,0.0,0.0,0.0,0.0,0.0,0.0,0.0,0.0,0.0,0.0,0.0,0.0,0.4884,0.5119,0.5182,0.534,0.5545,0.0,0.0,0.0,0.0,0.0,0.0,0.0,0.0,0.0,0.0,0.0,0.0,0.0,0.0,0.0,0.0,0.0,0.0,0.0,0.0,0.0,0.0,0.0,0.0,0.0,0.0,0.0,0.0,0.0,0.0,0.0,0.0,0.0,0.0,0.0,0.0,0.0,0.0,0.0,0.0,0.0,0.0,0.0,0.0,0.0,0.0,0.0,0.0,0.0,0.0,0.0,0.0,0.0,0.0,0.0,0.0,0.0,0.0,0.0,0.0,0.0,0.0,0.0,0.0,0.0,0.0,0.0,0.0,0.0,0.0,0.0,0.0,0.0,0.0,0.0,0.0,0.0,0.0,0.0,0.0,0.0,0.0,0.0,0.0,0.0,0.0,0.0,0.0,0.0,0.0,0.0,0.0,0.0,0.0,0.0,0.0,0.0,0.0,0.0,0.0,0.0,0.0,0.0,0.0,0.0,0.0,0.0,0.0,0.0,0.0,0.0,0.0,0.5435,0.5592,0.5763,0.0,0.0,0.0,0.0,0.0,0.0,0.0,0.0,0.0,0.0,0.0,0.0,0.0,0.0,0.0,0.0,0.0,0.0,0.0,0.0,0.0,0.0,0.0,0.0,0.0,0.0,0.0,0.0,0.0,0.0,0.0,0.0,0.0,0.0,0.0,0.0,0.0,0.0,0.0,0.0,0.0,0.0,0.0,0.0,0.0,0.0,0.0,0.0,0.0,0.0,0.0,0.0,0.0,0.0,0.0,0.0,0.0,0.0,0.0,0.0,0.0,0.0,0.0,0.0,0.0,0.0,0.0,0.0,0.0,0.0,0.0,0.0,0.0,0.0,0.0,0.0,0.0,0.0,0.0,0.0,0.0,0.0,0.0,0.0,0.0,0.0,0.0,0.0,0.0,0.0,0.0,0.0,0.0,0.0,0.0,0.0,0.0,0.0,0.0,0.0,0.0,0.0,0.0,0.0,0.0,0.0,0.0,0.0,0.0,0.0,0.534,0.5482,0.5671,0.0,0.5967,0.0,0.0,0.0,0.0,0.0,0.0,0.0,0.0,0.0,0.0,0.0,0.0,0.0,0.0,0.0,0.0,0.0,0.0,0.0,0.0,0.0,0.0,0.0,0.0,0.0,0.0,0.0,0.0,0.0,0.0,0.0,0.0,0.0,0.0,0.0,0.0,0.0,0.0,0.0,0.0,0.0,0.0,0.0,0.0,0.0,0.0,0.0,0.0,0.0,0.0,0.0,0.0,0.0,0.0,0.0,0.0,0.0,0.0,0.0,0.0,0.0,0.0,0.0,0.0,0.0,0.0,0.0,0.0,0.0,0.0,0.0,0.0,0.0,0.0,0.0,0.0,0.0,0.0,0.0,0.0,0.0,0.0,0.0,0.0,0.0,0.0,0.0,0.0,0.0,0.0,0.0,0.0,0.0,0.0,0.0,0.0,0.0,0.0,0.0,0.0,0.0,0.0,0.0,0.0,0.0,0.0,0.0,0.0,0.0,0.0,0.5591,0.5671,0.5842,0.5967,0.0,0.0,0.0,0.0,0.0,0.0,0.0,0.0,0.0,0.0,0.0,0.0,0.0,0.0,0.0,0.0,0.0,0.0,0.0,0.0,0.0,0.0,0.0,0.0,0.0,0.0,0.0,0.0,0.0,0.0,0.0,0.0,0.0,0.0,0.0,0.0,0.0,0.0,0.0,0.0,0.0,0.0,0.0,0.0,0.0,0.0,0.0,0.0,0.0,0.0,0.0,0.0,0.0,0.0,0.0,0.0,0.0,0.0,0.0,0.0,0.0,0.0,0.0,0.0,0.0,0.0,0.0,0.0,0.0,0.0,0.0,0.0,0.0,0.0,0.0,0.0,0.0,0.0,0.0,0.0,0.0,0.0,0.0,0.0,0.0,0.0,0.0,0.0,0.0,0.0,0.0,0.0,0.0,0.0,0.0,0.0,0.0,0.0,0.0,0.0,0.0,0.0,0.0,0.0,0.0,0.0,0.0,0.0,0.0,0.0,0.5718,0.5862,0.5991,0.6059,0.6122,0.626,0.0,0.0,0.0,0.0,0.0,0.0,0.0,0.0,0.0,0.0,0.0,0.0,0.0,0.0,0.0,0.0,0.0,0.0,0.0,0.0,0.0,0.0,0.0,0.0,0.0,0.0,0.0,0.0,0.0,0.0,0.0,0.0,0.0,0.0,0.0,0.0,0.0,0.0,0.0,0.0,0.0,0.0,0.0,0.0,0.0,0.0,0.0,0.0,0.0,0.0,0.0,0.0,0.0,0.0,0.0,0.0,0.0,0.0,0.0,0.0,0.0,0.0,0.0,0.0,0.0,0.0,0.0,0.0,0.0,0.0,0.0,0.0,0.0,0.0,0.0,0.0,0.0,0.0,0.0,0.0,0.0,0.0,0.0,0.0,0.0,0.0,0.0,0.0,0.0,0.0,0.0,0.0,0.0,0.0,0.0,0.0,0.0,0.0,0.0,0.0,0.0,0.0,0.0,0.0,0.0,0.0,0.0,0.0,0.5963,0.6045,0.6198,0.6437,0.6356,0.6322,0.0,0.0,0.0,0.0,0.0,0.0,0.0,0.0,0.0,0.0,0.0,0.0,0.0,0.0,0.0,0.0,0.0,0.0,0.0,0.0,0.0,0.0,0.0,0.0,0.0,0.0,0.0,0.0,0.0,0.0,0.0,0.0,0.0,0.0,0.0,0.0,0.0,0.0,0.0,0.0,0.0,0.0,0.0,0.0,0.0,0.0,0.0,0.0,0.0,0.0,0.0,0.0,0.0,0.0,0.0,0.0,0.0,0.0,0.0,0.0,0.0,0.0,0.0,0.0,0.0,0.0,0.0,0.0,0.0,0.0,0.0,0.0,0.0,0.0,0.0,0.0,0.0,0.0,0.0,0.0,0.0,0.0,0.0,0.0,0.0,0.0,0.0,0.0,0.0,0.0,0.0,0.0,0.0,0.0,0.0,0.0,0.0,0.0,0.0,0.0,0.0,0.0,0.0,0.0,0.0,0.0,0.0,0.0,0.0,0.6321,0.6552,0.664,0.6514,0.6624,0.6609,0.0,0.0,0.0,0.0,0.0,0.0,0.0,0.0,0.0,0.0,0.0,0.0,0.0,0.0,0.0,0.0,0.0,0.0,0.0,0.0,0.0,0.0,0.0,0.0,0.0,0.0,0.0,0.0,0.0,0.0,0.0,0.0,0.0,0.0,0.0,0.0,0.0,0.0,0.0,0.0,0.0,0.0,0.0,0.0,0.0,0.0,0.0,0.0,0.0,0.0,0.0,0.0,0.0,0.0,0.0,0.0,0.0,0.0,0.0,0.0,0.0,0.0,0.0,0.0,0.0,0.0,0.0,0.0,0.0,0.0,0.0,0.0,0.0,0.0,0.0,0.0,0.0,0.0,0.0,0.0,0.0,0.0,0.0,0.0,0.0,0.0,0.0,0.0,0.0,0.0,0.0,0.0,0.0,0.0,0.0,0.0,0.0,0.0,0.0,0.0,0.0,0.0,0.0,0.0,0.0,0.0,0.0,0.0,0.0,0.6701,0.0,0.7061,0.6833,0.6894,0.6852,0.0,0.0,0.0,0.0,0.0,0.0,0.0,0.0,0.0,0.0,0.0,0.0,0.0,0.0,0.0,0.0,0.0,0.0,0.0,0.0,0.0,0.0,0.0,0.0,0.0,0.0,0.0,0.0,0.0,0.0,0.0,0.0,0.0,0.0,0.0,0.0,0.0,0.0,0.0,0.0,0.0,0.0,0.0,0.0,0.0,0.0,0.0,0.0,0.0,0.0,0.0,0.0,0.0,0.0,0.0,0.0,0.0,0.0,0.0,0.0,0.0,0.0,0.0,0.0,0.0,0.0,0.0,0.0,0.0,0.0,0.0,0.0,0.0,0.0,0.0,0.0,0.0,0.0,0.0,0.0,0.0,0.0,0.0,0.0,0.0,0.0,0.0,0.0,0.0,0.0,0.0,0.0,0.0,0.0,0.0,0.0,0.0,0.0,0.0,0.0,0.0,0.0,0.0,0.0,0.0,0.0,0.0,0.0,0.6579,0.7072,0.7361,0.7482,0.7486,0.7197,0.6999,0.0,0.0,0.0,0.0,0.0,0.0,0.0,0.0,0.0,0.0,0.0,0.0,0.0,0.0,0.0,0.0,0.0,0.0,0.0,0.0,0.0,0.0,0.0,0.0,0.0,0.0,0.0,0.0,0.0,0.0,0.0,0.0,0.0,0.0,0.0,0.0,0.0,0.0,0.0,0.0,0.0,0.0,0.0,0.0,0.0,0.0,0.0,0.0,0.0,0.0,0.0,0.0,0.0,0.0,0.0,0.0,0.0,0.0,0.0,0.0,0.0,0.0,0.0,0.0,0.0,0.0,0.0,0.0,0.0,0.0,0.0,0.0,0.0,0.0,0.0,0.0,0.0,0.0,0.0,0.0,0.0,0.0,0.0,0.0,0.0,0.0,0.0,0.0,0.0,0.0,0.0,0.0,0.0,0.0,0.0,0.0,0.0,0.0,0.0,0.0,0.0,0.0,0.0,0.0,0.0,0.0,0.0,0.0,0.0,0.7299,0.7524,0.7604,0.7516,0.7548,0.7382,0.0,0.0,0.0,0.0,0.0,0.0,0.0,0.0,0.0,0.0,0.0,0.0,0.0,0.0,0.0,0.0,0.0,0.0,0.0,0.0,0.0,0.0,0.0,0.0,0.0,0.0,0.0,0.0,0.0,0.0,0.0,0.0,0.0,0.0,0.0,0.0,0.0,0.0,0.0,0.0,0.0,0.0,0.0,0.0,0.0,0.0,0.0,0.0,0.0,0.0,0.0,0.0,0.0,0.0,0.0,0.0,0.0,0.0,0.0,0.0,0.0,0.0,0.0,0.0,0.0,0.0,0.0,0.0,0.0,0.0,0.0,0.0,0.0,0.0,0.0,0.0,0.0,0.0,0.0,0.0,0.0,0.0,0.0,0.0,0.0,0.0,0.0,0.0,0.0,0.0,0.0,0.0,0.0,0.0,0.0,0.0,0.0,0.0,0.0,0.0,0.0,0.0,0.0,0.0,0.0,0.0,0.0,0.0,0.0,0.7918,0.8004,0.7959,0.7799,0.7924,0.7807,0.7425,0.0,0.0,0.0,0.0,0.0,0.0,0.0,0.0,0.0,0.0,0.0,0.0,0.0,0.0,0.0,0.0,0.0,0.0,0.0,0.0,0.0,0.0,0.0,0.0,0.0,0.0,0.0,0.0,0.0,0.0,0.0,0.0,0.0,0.0,0.0,0.0,0.0,0.0,0.0,0.0,0.0,0.0,0.0,0.0,0.0,0.0,0.0,0.0,0.0,0.0,0.0,0.0,0.0,0.0,0.0,0.0,0.0,0.0,0.0,0.0,0.0,0.0,0.0,0.0,0.0,0.0,0.0,0.0,0.0,0.0,0.0,0.0,0.0,0.0,0.0,0.0,0.0,0.0,0.0,0.0,0.0,0.0,0.0,0.0,0.0,0.0,0.0,0.0,0.0,0.0,0.0,0.0,0.0,0.0,0.0,0.0,0.0,0.0,0.0,0.0,0.0,0.0,0.0,0.0,0.0,0.0,0.0,0.0,0.8777,0.8719,0.8581,0.832,0.8342,0.825,0.0,0.0,0.0,0.0,0.0,0.0,0.0,0.0,0.0,0.0,0.0,0.0,0.0,0.0,0.0,0.0,0.0,0.0,0.0,0.0,0.0,0.0,0.0,0.0,0.0,0.0,0.0,0.0,0.0,0.0,0.0,0.0,0.0,0.0,0.0,0.0,0.0,0.0,0.0,0.0,0.0,0.0,0.0,0.0,0.0,0.0,0.0,0.0,0.0,0.0,0.0,0.0,0.0,0.0,0.0,0.0,0.0,0.0,0.0,0.0,0.0,0.0,0.0,0.0,0.0,0.0,0.0,0.0,0.0,0.0,0.0,0.0,0.0,0.0,0.0,0.0,0.0,0.0,0.0,0.0,0.0,0.0,0.0,0.0,0.0,0.0,0.0,0.0,0.0,0.0,0.0,0.0,0.0,0.0,0.0,0.0,0.0,0.0,0.0,0.0,0.0,0.0,0.0,0.0,0.0,0.0,0.0,0.0,0.0,0.8814,0.9382,0.9392,0.8705,0.8777,0.853,0.0,0.0,0.0,0.0,0.0,0.0,0.0,0.0,0.0,0.0,0.0,0.0,0.0,0.0,0.0,0.0,0.0,0.0,0.0,0.0,0.0,0.0,0.0,0.0,0.0,0.0,0.0,0.0,0.0,0.0,0.0,0.0,0.0,0.0,0.0,0.0,0.0,0.0,0.0,0.0,0.0,0.0,0.0,0.0,0.0,0.0,0.0,0.0,0.0,0.0,0.0,0.0,0.0,0.0,0.0,0.0,0.0,0.0,0.0,0.0,0.0,0.0,0.0,0.0,0.0,0.0,0.0,0.0,0.0,0.0,0.0,0.0,0.0,0.0,0.0,0.0,0.0,0.0,0.0,0.0,0.0,0.0,0.0,0.0,0.0,0.0,0.0,0.0,0.0,0.0,0.0,0.0,0.0,0.0,0.0,0.0,0.0,0.0,0.0,0.0,0.0,0.0,0.0,0.0,0.0,0.0,0.0,0.0,0.903,0.9247,1.0234,1.0279,0.9281,0.9233,0.8928,0.0,0.0,0.0,0.0,0.0,0.0,0.0,0.0,0.0,0.0,0.0,0.0,0.0,0.0,0.0,0.0,0.0,0.0,0.0,0.0,0.0,0.0,0.0,0.0,0.0,0.0,0.0,0.0,0.0,0.0,0.0,0.0,0.0,0.0,0.0,0.0,0.0,0.0,0.0,0.0,0.0,0.0,0.0,0.0,0.0,0.0,0.0,0.0,0.0,0.0,0.0,0.0,0.0,0.0,0.0,0.0,0.0,0.0,0.0,0.0,0.0,0.0,0.0,0.0,0.0,0.0,0.0,0.0,0.0,0.0,0.0,0.0,0.0,0.0,0.0,0.0,0.0,0.0,0.0,0.0,0.0,0.0,0.0,0.0,0.0,0.0,0.0,0.0,0.0,0.0,0.0,0.0,0.0,0.0,0.0,0.0,0.0,0.0,0.0,0.0,0.0,0.0,0.0,0.0,0.0,0.0,0.0,0.0,0.9757,0.9974,1.0995,1.1046,0.9992,0.9725,0.9391,0.0,0.0,0.0,0.0,0.0,0.0,0.0,0.0,0.0,0.0,0.0,0.0,0.0,0.0,0.0,0.0,0.0,0.0,0.0,0.0,0.0,0.0,0.0,0.0,0.0,0.0,0.0,0.0,0.0,0.0,0.0,0.0,0.0,0.0,0.0,0.0,0.0,0.0,0.0,0.0,0.0,0.0,0.0,0.0,0.0,0.0,0.0,0.0,0.0,0.0,0.0,0.0,0.0,0.0,0.0,0.0,0.0,0.0,0.0,0.0,0.0,0.0,0.0,0.0,0.0,0.0,0.0,0.0,0.0,0.0,0.0,0.0,0.0,0.0,0.0,0.0,0.0,0.0,0.0,0.0,0.0,0.0,0.0,0.0,0.0,0.0,0.0,0.0,0.0,0.0,0.0,0.0,0.0,0.0,0.0,0.0,0.0,0.0,0.0,0.0,0.0,0.0,0.0,0.0,0.0,0.0,0.0,0.0,0.984,1.0425,1.1048,1.0997,1.0236,1.0248,0.9809,0.0,0.0,0.0,0.0,0.0,0.0,0.0,0.0,0.0,0.0,0.0,0.0,0.0,0.0,0.0,0.0,0.0,0.0,0.0,0.0,0.0,0.0,0.0,0.0,0.0,0.0,0.0,0.0,0.0,0.0,0.0,0.0,0.0,0.0,0.0,0.0,0.0,0.0,0.0,0.0,0.0,0.0,0.0,0.0,0.0,0.0,0.0,0.0,0.7321,0.0,0.0,0.0,0.0,0.0,0.0,0.0,0.0,0.0,0.0,0.0,0.0,0.0,0.0,0.0,0.0,0.0,0.0,0.0,0.0,0.0,0.0,0.0,0.0,0.0,0.0,0.0,0.0,0.0,0.0,0.0,0.0,0.0,0.0,0.0,0.0,0.0,0.0,0.0,0.0,0.0,0.0,0.0,0.0,0.0,0.0,0.0,0.0,0.0,0.0,0.0,0.0,0.0,0.0,0.0,0.0,0.0,0.0,0.0,1.0006,1.0493,1.1015,1.0934,1.0278,1.0587,1.0243,0.0,0.0,0.0,0.0,0.0,0.0,0.0,0.0,0.0,0.0,0.0,0.0,0.0,0.0,0.0,0.0,0.0,0.0,0.0,0.0,0.0,0.0,0.0,0.0,0.0,0.0,0.0,0.0,0.0,0.0,0.0,0.0,0.0,0.0,0.0,0.0,0.0,0.0,0.0,0.0,0.0,0.0,0.0,0.0,0.0,0.0,0.0,0.0,0.0,0.0,0.0,0.0,0.0,0.0,0.0,0.0,0.0,0.0,0.0,0.0,0.0,0.0,0.0,0.0,0.0,0.0,0.0,0.0,0.0,0.0,0.0,0.0,0.0,0.0,0.0,0.0,0.0,0.0,0.0,0.0,0.0,0.0,0.0,0.0,0.0,0.0,0.0,0.0,0.0,0.0,0.0,0.0,0.0,0.0,0.0,0.0,0.0,0.0,0.0,0.0,0.0,0.0,0.0,0.0,0.0,0.0,0.0,0.9925,1.0274,1.0546,1.1043,1.0904,1.0192,1.0794,1.0585,0.9369,0.0,0.0,0.0,0.0,0.0,0.0,0.0,0.0,0.0,0.0,0.0,0.0,0.0,0.0,0.0,0.0,0.0,0.0,0.0,0.0,0.0,0.0,0.0,0.0,0.0,0.0,0.0,0.0,0.0,0.0,0.0,0.0,0.0,0.0,0.0,0.0,0.0,0.0,0.4194,0.5087,0.0,0.0,0.0,0.0,0.0,0.0,0.0,0.0,0.7876,0.0,0.0,0.0,0.0,0.0,0.0,0.0,0.0,0.0,0.0,0.0,0.0,0.0,0.0,0.0,0.0,0.0,0.0,0.0,0.0,0.0,0.0,0.0,0.0,0.0,0.0,0.0,0.0,0.0,0.0,0.0,0.0,0.0,0.0,0.0,0.0,0.0,0.0,0.0,0.0,0.0,0.0,0.0,0.0,0.0,0.0,0.0,0.0,0.0,0.0,0.0,0.0,0.0,0.0,0.0,0.0,1.0391,1.0365,1.0608,1.1117,1.125,1.0979,1.0322,1.0766,1.0493,0.94,0.0,0.0,0.0,0.0,0.0,0.0,0.0,0.0,0.0,0.0,0.0,0.0,0.0,0.0,0.0,0.0,0.0,0.0,0.0,0.0,0.0,0.0,0.0,0.0,0.0,0.0,0.0,0.0,0.0,0.0,0.0,0.0,0.0,0.0,0.0,0.0,0.0,0.0,0.0,0.5825,0.6162,0.0,0.0,0.0,0.0,0.0,0.0,0.0,0.0,0.8019,0.0,0.0,0.0,0.0,0.0,0.0,0.0,0.0,0.0,0.0,0.0,0.0,0.0,0.0,0.0,0.0,0.0,0.0,0.0,0.0,0.0,0.0,0.0,0.0,0.0,0.0,0.0,0.0,0.0,0.0,0.0,0.0,0.0,0.0,0.0,0.0,0.0,0.0,0.0,0.0,0.0,0.0,0.0,0.0,0.0,0.0,0.0,0.0,0.0,0.0,0.0,0.0,0.0,0.0,0.0,1.0379,1.025,1.0429,1.1031,1.1028,1.0734,1.0134,1.068,1.0425,0.0,0.0,0.0,0.0,0.0,0.0,0.0,0.0,0.0,0.0,0.0,0.0,0.0,0.0,0.0,0.0,0.0,0.0,0.0,0.0,0.0,0.0,0.0,0.0,0.0,0.0,0.0,0.0,0.0,0.0,0.0,0.0,0.0,0.0,0.0,0.0,0.0,0.0,0.0,0.0,0.6132,0.6462,0.6876,0.0,0.0,0.0,0.0,0.0,0.0,0.863,0.8447,0.0,0.0,0.0,0.0,0.0,0.0,0.0,0.0,0.0,0.0,0.0,0.0,0.0,0.0,0.0,0.0,0.0,0.0,0.0,0.0,0.0,0.0,0.0,0.0,0.0,0.0,0.0,0.0,0.0,0.0,0.0,0.0,0.0,0.0,0.0,0.0,0.0,0.0,0.0,0.0,0.0,0.0,0.0,0.0,0.0,0.0,0.0,0.0,0.0,0.0,0.0,0.0,0.0,0.0,0.0,1.0251,1.0049,1.0192,1.078,1.0807,1.0547,1.0072,1.0609,1.0348,0.0,0.0,0.0,0.0,0.0,0.0,0.0,0.0,0.0,0.0,0.0,0.0,0.0,0.0,0.0,0.0,0.0,0.0,0.0,0.0,0.0,0.0,0.0,0.0,0.0,0.0,0.0,0.0,0.0,0.0,0.0,0.0,0.0,0.0,0.0,0.0,0.0,0.0,0.0,0.0,0.0,0.6869,0.81,0.7748,0.0,0.0,0.0,0.0,0.9141,0.9,0.0,0.0,0.0,0.0,0.0,0.0,0.0,0.0,0.0,0.0,0.0,0.0,0.0,0.0,0.0,0.0,0.0,0.0,0.0,0.0,0.0,0.0,0.0,0.0,0.0,0.0,0.0,0.0,0.0,0.0,0.0,0.0,0.0,0.0,0.0,0.0,0.0,0.0,0.0,0.0,0.0,0.0,0.0,0.0,0.0,0.0,0.0,0.0,0.0,0.0,0.0,0.0,0.0,0.0,0.0,0.0,1.0251,1.015,1.031,1.0766,1.0807,1.0705,1.0525,1.0552,1.029,0.0,0.0,0.0,0.0,0.0,0.0,0.0,0.0,0.0,0.0,0.0,0.0,0.0,0.0,0.0,0.0,0.0,0.0,0.0,0.0,0.0,0.0,0.0,0.0,0.0,0.0,0.0,0.0,0.0,0.0,0.0,0.0,0.0,0.0,0.0,0.0,0.0,0.0,0.0,0.0,0.0,0.7734,0.8374,0.8546,0.8809,0.0,0.0,0.8998,0.9405,0.9292,0.0,0.0,0.0,0.0,0.0,0.0,0.0,0.0,0.0,0.0,0.0,0.0,0.0,0.0,0.0,0.0,0.0,0.0,0.0,0.0,0.0,0.0,0.0,0.0,0.0,0.0,0.0,0.0,0.0,0.0,0.0,0.0,0.0,0.0,0.0,0.0,0.0,0.0,0.0,0.0,0.0,0.0,0.0,0.0,0.0,0.0,0.0,0.0,0.0,0.0,0.0,0.0,0.0,0.0,0.0,0.9751,1.015,1.0049,1.0205,1.0654,1.0681,1.0526,1.0198,1.0408,1.0122,0.0,0.0,0.0,0.0,0.0,0.0,0.0,0.0,0.0,0.0,0.0,0.0,0.0,0.0,0.0,0.0,0.0,0.0,0.0,0.0,0.0,0.0,0.0,0.0,0.0,0.0,0.0,0.0,0.0,0.0,0.0,0.0,0.0,0.0,0.0,0.0,0.0,0.0,0.0,0.0,0.0,0.0,0.8098,0.8587,0.0,0.0,0.0,0.9716,0.9628,0.0,0.0,0.0,0.0,0.0,0.0,0.0,0.0,0.0,0.0,0.0,0.0,0.0,0.0,0.0,0.0,0.0,0.0,0.0,0.0,0.0,0.0,0.0,0.0,0.0,0.0,0.0,0.0,0.0,0.0,0.0,0.0,0.0,0.0,0.0,0.0,0.0,0.0,0.0,0.0,0.0,0.0,0.0,0.0,0.0,0.0,0.0,0.0,0.0,0.0,0.0,0.0,0.0,0.0,0.0,0.0,0.0,1.0136,1.0089,1.0274,1.0636,1.0681,1.0557,1.0239,1.0436,0.0,0.0,0.0,0.0,0.0,0.0,0.0,0.0,0.0,0.0,0.0,0.0,0.0,0.0,0.0,0.0,0.0,0.0,0.0,0.0,0.0,0.0,0.0,0.0,0.0,0.0,0.0,0.2269,0.0,0.0,0.0,0.0,0.0,0.0,0.0,0.0,0.0,0.0,0.0,0.0,0.0,0.0,0.7569,0.8031,0.8644,0.9156,0.0,0.0,1.0035,0.9867,1.0241,1.0346,0.0,0.0,0.0,0.0,0.0,0.0,0.0,0.0,0.0,0.0,0.0,0.0,0.0,0.0,0.0,0.0,0.0,0.0,0.0,0.0,0.0,0.0,0.0,0.0,0.0,0.0,0.0,0.0,0.0,0.0,0.0,0.0,0.0,0.0,0.0,0.0,0.0,0.0,0.0,0.0,0.0,0.0,0.0,0.0,0.0,0.0,0.0,0.0,0.0,0.0,0.0,0.0,0.0,0.0,0.0,1.0293,1.0474,1.0632,1.0793,1.0965,1.1045,1.102,1.0857,1.0699,0.0,0.0,0.0,0.0,0.0,0.0,0.0,0.0,0.0,0.0,0.0,0.0,0.0,0.0,0.0,0.0,0.0,0.0,0.0,0.0,0.0,0.0,0.0,0.0,0.0,0.0,0.0,0.0,0.0,0.0,0.0,0.0,0.0,0.0,0.0,0.0,0.0,0.0,0.0,0.0,0.0,0.8117,0.8585,0.8894,0.9506,0.0,0.0,0.9688,1.0101,1.0366,1.0509,1.0426,0.0,0.0,0.0,0.0,0.0,0.0,0.0,0.0,0.0,0.0,0.0,0.0,0.0,0.0,0.0,0.0,0.0,0.0,0.0,0.0,0.0,0.0,0.0,0.0,0.0,0.0,0.0,0.0,0.0,0.0,0.0,0.0,0.0,0.0,0.0,0.0,0.0,0.0,0.0,0.0,0.0,0.0,0.0,0.0,0.0,0.0,0.0,0.0,0.0,0.0,0.0,0.0,0.0,1.0439,1.0494,1.0636,1.0798,1.0982,1.1059,1.1054,1.0918,1.0929,1.0721,0.0,0.0,0.0,0.0,0.0,0.0,0.0,0.0,0.0,0.0,0.0,0.0,0.0,0.0,0.0,0.0,0.0,0.0,0.0,0.0,0.0,0.0,0.0,0.0,0.0,0.0,0.0,0.0,0.2883,0.3104,0.329,0.0,0.0,0.0,0.0,0.0,0.0,0.0,0.0,0.0,0.0,0.8488,0.9165,0.9447,0.0,0.0,1.0311,0.9941,1.0116,1.0378,1.0553,1.0572,1.0393,0.0,0.0,0.0,0.0,0.0,0.0,0.0,0.0,0.0,0.0,0.0,0.0,0.0,0.0,0.0,0.0,0.0,0.0,0.0,0.0,0.0,0.0,0.0,0.0,0.0,0.0,0.0,0.0,0.0,0.0,0.0,0.0,0.0,0.0,0.0,0.0,0.0,0.0,0.0,0.0,0.0,0.0,0.0,0.0,0.0,0.0,0.0,0.0,0.0,0.0,0.0,0.0,1.0699,1.0813,1.0958,1.1081,1.1185,1.1216,1.1148,1.095,1.1061,1.0857,0.0,0.0,0.0,0.0,0.0,0.0,0.0,0.0,0.0,0.0,0.0,0.0,0.0,0.0,0.0,0.0,0.0,0.0,0.0,0.0,0.0,0.0,0.0,0.0,0.0,0.0,0.0,0.0,0.3028,0.3289,0.3519,0.0,0.0,0.0,0.0,0.0,0.0,0.0,0.0,0.0,0.0,0.8749,0.9404,0.9658,0.9935,1.0384,1.0209,1.0079,1.0215,1.0464,1.0651,1.0664,0.0,0.0,0.0,0.0,0.0,0.0,0.0,0.0,0.0,0.0,0.0,0.0,0.0,0.0,0.0,0.0,0.0,0.0,0.0,0.0,0.0,0.0,0.0,0.0,0.0,0.0,0.0,0.0,0.0,0.0,1.3516,0.0,0.0,0.0,0.0,0.0,0.0,0.0,0.0,0.0,0.0,0.0,0.0,0.0,0.0,0.0,0.0,0.0,0.0,0.0,0.0,0.0,0.0,1.1103,1.1301,1.1477,1.1498,1.131,1.1498,1.1483,1.1313,1.1299,1.1271,1.1256,0.0,0.0,0.0,0.0,0.0,0.0,0.0,0.0,0.0,0.0,0.0,0.0,0.0,0.0,0.0,0.0,0.0,0.0,0.0,0.0,0.0,0.0,0.0,0.0,0.0,0.0,0.2996,0.3245,0.3518,0.0,0.0,0.0,0.0,0.0,0.0,0.0,0.0,0.0,0.0,0.8372,0.8906,0.9266,0.942,0.9512,0.9479,0.9664,0.9961,1.0485,1.0619,1.0721,0.0,0.0,0.0,0.0,0.0,0.0,0.0,0.0,0.0,0.0,0.0,0.0,0.0,0.0,0.0,0.0,0.0,0.0,0.0,0.0,0.0,0.0,0.0,0.0,0.0,0.0,0.0,1.6537,1.6252,0.0,0.0,0.0,0.0,0.0,0.0,0.0,0.0,0.0,0.0,0.0,1.422,1.3898,0.0,0.0,0.0,0.0,0.0,0.0,0.0,0.0,0.0,0.0,0.0,0.0,1.1601,1.145,1.1729,1.1733,1.1498,1.156,1.156,1.1498,1.152,1.1449,1.1301,0.0,0.0,0.0,0.0,0.0,0.0,0.0,0.0,0.0,0.0,0.0,0.0,0.0,0.0,0.0,0.0,0.0,0.0,0.0,0.0,0.0,0.0,0.0,0.0,0.0,0.3676,0.0,0.0,0.0,0.0,0.0,0.0,0.0,0.0,0.0,0.0,0.0,0.6835,0.7985,0.8539,0.8967,0.9317,0.9405,0.9459,0.0,0.0,0.0,0.0,0.0,0.0,0.0,0.0,0.0,0.0,0.0,0.0,0.0,0.0,1.2874,1.1918,1.2259,1.2728,1.2858,0.0,0.0,0.0,0.0,0.0,0.0,0.0,0.0,0.0,0.0,0.0,0.0,0.0,0.0,1.7216,0.0,1.6579,0.0,0.0,0.0,0.0,0.0,0.0,0.0,0.0,1.4552,1.4639,1.4832,1.4541,1.4398,0.0,1.4292,1.3992,0.0,0.0,0.0,0.0,0.0,0.0,0.0,0.0,1.1936,1.1966,1.2047,1.2081,1.204,1.1961,1.1838,1.1736,1.165,1.1537,1.1376,1.0913,1.0605,0.0,0.0,0.0,0.0,0.0,0.0,0.0,0.0,0.0,0.0,0.0,0.0,0.0,0.0,0.0,0.0,0.0,0.0,0.0,0.0,0.0,0.0,0.0,0.4113,0.0,0.0,0.0,0.0,0.0,0.0,0.0,0.0,0.0,0.6477,0.663,0.7111,0.831,0.8704,0.899,0.9322,0.0,0.0,0.0,0.0,0.0,0.0,0.0,1.0522,1.0844,1.1075,1.128,1.1526,1.1181,1.1232,1.2219,0.0,0.0,1.2963,1.3304,1.3777,1.392,1.4069,1.4172,1.4251,1.4362,1.4479,0.0,0.0,0.0,0.0,0.0,0.0,0.0,0.0,1.8068,1.7868,0.0,1.7379,0.0,0.0,0.0,0.0,0.0,1.542,0.0,0.0,1.5401,1.5551,1.5872,1.5725,1.5414,1.4979,1.5414,1.4989,1.383,1.3197,0.0,0.0,0.0,0.0,0.0,0.0,1.2149,1.2756,1.248,1.2467,1.2781,1.2613,1.2332,1.201,1.1767,1.1583,1.1525,1.1494,1.1349,1.1031,1.0719,0.0,0.0,0.0,0.0,0.0,0.0,0.0,0.0,0.0,0.0,0.0,0.0,0.0,0.0,0.0,0.0,0.0,0.0,0.0,0.0,0.4241,0.0,0.0,0.0,0.0,0.0,0.0,0.0,0.0,0.0,0.0,0.6386,0.7127,0.7944,0.8696,0.0,0.0,0.0,0.0,0.9698,0.9608,0.9864,1.0211,1.0615,1.0945,1.11,1.0952,0.0,0.0,1.1653,1.1818,1.2112,1.2414,1.2959,1.3258,1.3177,1.3403,1.363,1.3709,1.3919,1.3993,1.4055,1.4363,1.4466,2.2495,0.0,0.0,0.0,0.0,2.0434,2.0121,1.9703,1.942,1.8954,1.8345,1.8048,0.0,0.0,0.0,0.0,0.0,0.0,1.5927,1.58,1.5769,1.5864,1.6186,1.5826,1.5757,1.5889,1.5627,1.5106,1.4405,1.4316,1.3931,1.3232,0.0,0.0,0.0,0.0,1.2632,1.2787,1.2707,1.2706,1.2796,1.2593,1.2332,1.201,1.1923,1.1814,1.1706,1.1586,1.1521,1.1553,1.1475,0.0,0.0,0.0,0.0,0.0,0.0,0.0,0.0,0.0,0.0,0.0,0.0,0.0,0.0,0.0,0.0,0.0,0.0,0.0,0.5118,0.5024,0.4817,0.0,0.0,0.0,0.0,0.0,0.0,0.0,0.0,0.0,0.7073,0.7072,0.7491,0.0,0.0,0.8743,0.9096,0.9678,0.9916,0.9524,0.9773,0.0,0.0,1.0745,1.106,1.1231,1.1963,1.2685,1.3,1.2758,1.2724,1.3391,1.337,1.3334,1.3843,1.4276,1.4602,1.4776,1.4905,1.5031,1.5243,1.5449,1.572,2.4863,2.3472,2.2742,2.2237,2.1907,2.1608,2.1351,2.1095,2.0625,2.0039,1.9375,1.9017,1.8655,1.8242,1.802,0.0,0.0,0.0,1.6741,1.6307,1.6307,1.6462,1.6743,1.6358,1.6236,1.6338,1.6102,1.5522,1.4635,1.5053,1.48,1.3865,0.0,0.0,1.3424,1.33,1.3215,1.3191,1.3123,1.3084,1.3185,1.2878,1.258,1.239,1.2259,1.2137,1.1987,1.1934,1.1905,1.1994,1.1929,1.166,0.0,0.0,0.0,0.0,0.0,0.0,0.0,0.0,0.0,0.0,0.0,0.5916,0.0,0.0,0.0,0.0,0.5479,0.5721,0.5712,0.5533,0.0,0.0,0.0,0.0,0.0,0.0,0.0,0.5773,0.6475,0.7035,0.7203,0.7156,0.7486,0.858,0.8523,0.8561,0.9145,0.0,0.9916,0.9834,1.0075,1.0386,1.0724,1.1053,1.1459,1.199,1.2379,1.2912,1.3629,1.3376,1.3373,1.4042,1.3806,1.3523,1.4215,1.455,1.4827,1.5086,1.5239,1.5433,1.5566,1.6038,1.6543,2.7122,2.5791,2.3919,2.3227,2.3266,2.2793,2.2598,2.25,2.1639,2.1035,2.0586,2.0099,1.967,1.9241,1.9297,0.0,1.8159,1.8124,1.7703,1.7035,1.7,1.7202,1.7513,1.7165,1.6843,1.6528,1.6789,1.6185,1.4911,1.5491,1.5373,1.4496,1.4546,1.438,1.4098,1.3949,1.386,1.3816,1.3623,1.3631,1.3783,1.3306,1.3038,1.2994,1.2687,1.2446,1.2362,1.2385,1.241,1.2352,1.213,1.2014,1.1966,0.0,0.0,0.0,0.0,0.0,0.0,0.0,0.0,0.0,0.0,0.0,0.0,0.0,0.0,0.0,0.6288,0.0,0.6105,0.5992,0.0,0.0,0.0,0.5883,0.5985,0.6128,0.6211,0.6236,0.0,0.0,0.6985,0.0,0.7756,0.8462,0.8319,0.8445,0.9273,0.9536,0.9847,1.032,1.0608,1.0888,1.1349,1.1697,1.2175,1.2904,1.2759,1.2915,1.3759,1.3834,1.4055,1.4749,1.4237,1.3873,1.4451,1.4504,1.4501,1.4973,1.5157,1.5282,1.5443,1.6142,1.6818,2.856,2.8006,2.6692,2.535,2.4102,2.3652,2.3301,2.3012,2.2441,2.1602,2.0605,2.0333,1.9697,1.8877,1.9004,1.8874,1.854,1.8413,1.8247,1.8044,1.7862,1.7844,1.7935,1.7844,1.7679,1.7423,1.7063,1.651,1.5809,1.6033,1.5755,1.507,1.5633,1.5219,1.3916,1.3883,1.3944,1.4039,1.3832,1.3757,1.3783,1.3672,1.3401,1.3009,1.2839,1.2732,1.2676,1.223,1.2193,1.2647,1.2398,1.2116,1.1866,1.1586,0.0,0.0,0.0,0.0,0.0,0.0,0.0,0.0,0.0,0.7168,0.6977,0.0,0.675,0.0,0.6365,0.6639,0.6959,0.6973,0.0,0.0,0.6111,0.6077,0.6016,0.6172,0.6339,0.6578,0.6805,0.705,0.7185,0.737,0.7632,0.8023,0.8396,0.875,0.908,0.9655,1.0069,1.0162,1.0547,1.0989,1.1461,1.2011,1.257,1.3358,1.3375,1.3586,1.4314,1.4496,1.4631,1.4989,1.5215,1.5147,1.4923,1.4894,1.5146,1.5663,1.5352,1.5059,1.5751,1.6185,1.6724,2.9021,2.8799,2.7692,2.6738,2.5946,2.5093,2.4394,2.387,2.3457,2.2588,2.1406,2.0916,2.0256,1.9581,1.9562,1.9525,1.9392,1.907,1.8844,1.8639,1.8451,1.8338,1.8375,1.8173,1.8061,1.7904,1.7473,1.7005,1.6484,1.6638,1.6407,1.5833,1.618,1.5812,1.4735,1.4555,1.4399,1.4241,1.403,1.3874,1.3783,1.3797,1.3672,1.3371,1.3264,1.3129,1.2946,1.2616,1.2487,1.2474,1.2383,1.2197,1.1934,1.169,1.1252,0.0,0.0,0.0,0.0,0.0,0.0,0.0,0.0,0.0,0.0,0.0,0.7359,0.7019,0.7213,0.7394,0.7522,0.7486,0.7294,0.696,0.6754,0.6642,0.6608,0.6618,0.6707,0.6865,0.7009,0.7155,0.7318,0.7494,0.7686,0.7944,0.845,0.891,0.9247,0.9678,0.9985,1.0189,1.0462,1.0812,1.1335,1.2036,1.2657,1.3146,1.3457,1.3787,1.4302,1.4511,1.4719,1.504,1.5401,1.556,1.5276,1.5151,1.5304,1.5728,1.5583,1.5551,1.614,1.661,1.7257,2.9137,2.8901,2.7833,2.7664,2.798,2.6588,2.5538,2.4808,2.4391,2.354,2.2418,2.158,2.0976,2.0605,2.041,2.0333,2.0274,1.9824,1.944,1.9086,1.8894,1.8797,1.8779,1.843,1.8221,1.8219,1.7959,1.7554,1.7042,1.7177,1.7066,1.6636,1.6553,1.6272,1.5889,1.5505,1.5004,1.4433,1.4238,1.4057,1.3891,1.387,1.387,1.3819,1.3825,1.3625,1.3267,1.3215,1.2924,1.2288,1.2228,1.2212,1.2089,1.1662,1.1376,0.0,1.1005,0.0,0.0,0.0,0.0,0.0,0.0,0.0,0.0,0.8135,0.804,0.8173,0.8266,0.82,0.7952,0.7802,0.7731,0.7779,0.747,0.7315,0.7398,0.7202,0.7106,0.7171,0.7155,0.7182,0.7422,0.7614,0.779,0.8061,0.8401,0.8888,0.9508,0.9676,0.9898,1.0453,1.0539,1.0869,1.1353,1.2027,1.2586,1.2803,1.3242,1.3692,1.4093,1.4303,1.4535,1.4971,1.5311,1.5503,1.5519,1.5397,1.5447,1.5883,1.6038,1.6226,1.6545,1.714,1.7764,3.0235,2.9504,2.8661,2.8424,2.8464,2.744,2.6314,2.5062,2.4481,2.3452,2.2206,2.1498,2.0972,2.0635,2.0566,2.045,2.0294,1.9981,1.9825,1.9692,1.934,1.9182,1.9182,1.9109,1.897,1.877,1.8276,1.7905,1.7652,1.7691,1.7419,1.686,1.7311,1.7145,1.646,0.0,0.0,0.0,1.4433,1.431,1.4289,1.4289,1.4217,1.4057,1.3939,0.0,1.3879,1.3163,1.2827,1.3016,1.2316,0.0,0.0,0.0,0.0,0.0,0.0,0.0,0.0,0.0,0.0,0.0,0.9543,0.9045,0.8887,0.855,0.848,0.8695,0.8527,0.8452,0.8589,0.844,0.8207,0.7922,0.7715,0.7601,0.7546,0.7158,0.706,0.7612,0.7322,0.7257,0.7655,0.7713,0.7762,0.7983,0.8285,0.8747,0.9315,0.9726,1.0126,1.0531,1.1087,1.1578,1.1702,1.22,1.26,1.2807,1.3146,1.3624,1.4163,1.435,1.4488,1.4811,1.5198,1.5557,1.5726,1.5994,1.6266,1.6654,1.6955,1.7169,1.7019,1.718,1.758,3.0631,0.0,2.9349,2.9139,0.0,2.8021,2.6839,2.5865,2.5028,2.3826,2.233,2.1967,2.1615,2.1257,2.1026,2.097,2.105,2.0278,2.0117,2.0507,1.9857,1.9714,1.9897,1.9897,1.9684,1.9282,1.8883,1.8506,1.8114,1.7956,1.7734,1.7483,1.7601,1.7458,1.7021,1.6217,1.5402,1.4613,1.4751,1.4757,1.4647,1.4647,1.461,1.4485,0.0,0.0,0.0,0.0,0.0,0.0,0.0,0.0,0.0,0.0,0.0,1.235,1.2387,1.2336,1.2188,1.1882,1.1507,1.1044,1.0443,0.9806,0.9227,0.9175,0.9136,0.91,0.8871,0.8727,0.8786,0.8614,0.8398,0.8217,0.7996,0.7858,0.7866,0.7613,0.7507,0.7712,0.7591,0.7609,0.7955,0.7971,0.8032,0.8228,0.8433,0.8779,0.9291,0.9688,1.0118,1.082,1.1403,1.1748,1.1758,1.2167,1.2441,1.2457,1.2832,1.3386,1.3884,1.4233,1.4488,1.4742,1.5085,1.5401,1.5736,1.6132,1.6522,1.6863,1.7225,1.7415,1.7296,1.748,1.773,3.0891,3.1021,2.9836,2.9648,2.997,2.8327,2.7119,2.6352,0.0,0.0,0.0,2.2656,2.2383,2.1951,2.148,2.1483,2.1814,2.0604,2.0458,2.1154,2.0379,2.0168,2.0521,2.0521,2.0254,1.9779,1.946,1.9018,1.8556,1.8227,1.8049,1.7974,1.7763,1.7574,1.7393,1.6489,1.5581,1.4892,1.5035,1.5073,1.495,1.4987,1.5018,1.5044,1.4553,1.4263,1.4245,1.4172,1.3879,1.324,1.3282,1.3083,1.2661,1.2618,1.2682,1.2852,1.2911,1.2975,1.3009,1.2882,1.2448,1.171,1.1046,1.0334,0.9537,0.9679,0.9693,0.9376,0.9119,0.8958,0.8829,0.8614,0.8517,0.8506,0.8248,0.814,0.8225,0.8097,0.7978,0.7955,0.7909,0.7993,0.8286,0.8317,0.8367,0.8581,0.8634,0.8861,0.9359,0.9769,1.035,1.1218,1.1715,1.1854,1.1858,1.2251,1.2369,1.2103,1.2599,1.3153,1.3522,1.3975,1.4418,1.4719,1.5039,1.5498,1.5815,1.6171,1.6495,1.6867,1.713,1.7355,1.7391,1.7652,1.7861,3.1355,3.0888,2.9989,2.9727,2.9753,2.8209,2.683,2.5625,2.4841,2.4167,2.3594,2.3266,2.2832,2.2402,2.1739,2.1627,2.1834,2.1033,2.0866,2.1172,2.0676,2.0424,2.0521,2.0521,2.0442,2.0327,1.9644,1.9241,1.9112,1.8609,1.8233,1.8049,1.8181,1.7928,1.7265,1.6896,1.6431,1.5805,1.5219,1.5017,1.5136,1.5322,1.5466,1.557,1.5247,1.4983,1.4793,1.4513,1.4162,1.3719,1.344,1.3217,1.3013,1.2942,1.3005,1.321,1.3341,1.3561,1.3869,1.3238,1.2402,1.1518,1.1183,1.0687,0.9928,0.9862,0.9757,0.9508,0.9206,0.899,0.8958,0.8711,0.8517,0.8517,0.8441,0.8452,0.8441,0.8215,0.8171,0.8535,0.8287,0.8262,0.8713,0.8688,0.8637,0.8776,0.8746,0.8732,0.931,1.0103,1.0958,1.1677,1.2134,1.234,1.2365,1.278,1.2744,1.2237,1.2775,1.3298,1.3371,1.3739,1.4206,1.4581,1.5559,1.6166,1.615,1.6429,1.6748,1.6995,1.7088,1.7099,1.7225,1.7427,1.7632,3.1853,3.1585,3.07,3.0312,3.0268,2.8509,2.726,2.6372,2.5456,2.4699,2.4141,2.3926,2.3613,2.3159,2.2615,2.2448,2.2516,2.1457,2.1304,2.1792,2.1157,2.0918,2.1119,2.1138,2.1053,2.079,2.0328,2.0003,1.9746,1.9276,1.8939,1.8797,1.8607,1.8232,1.7649,1.7231,1.689,1.6475,1.601,1.5815,1.5899,1.6015,1.6079,1.6124,1.5611,1.5175,1.4912,1.4746,1.4422,1.3843,1.3867,1.3739,1.3349,1.3377,1.3451,1.3573,1.3636,1.3783,1.4093,1.3417,1.277,1.2274,1.1725,1.1204,1.0694,1.0442,1.0205,0.9949,0.9585,0.9392,0.936,0.8951,0.8679,0.8668,0.8582,0.8549,0.8592,0.843,0.8419,0.8731,0.8513,0.8426,0.8678,0.8644,0.8693,0.8891,0.9003,0.9199,0.9493,1.0302,1.1134,1.1765,1.229,1.253,1.2609,1.2759,1.2666,1.2166,1.2646,1.3042,1.314,1.3474,1.4113,1.4882,1.5928,1.6436,1.6375,1.648,1.6713,1.7006,1.6942,1.6935,1.7136,1.7323,1.7536,3.2292,3.2429,3.1322,3.0807,3.0493,2.8992,2.7885,2.7149,2.6261,2.5401,2.4766,2.4609,2.4336,2.39,2.335,2.3147,2.3086,2.192,2.1727,2.2296,2.1664,2.1464,2.1668,2.1687,2.1522,2.1211,2.0964,2.0616,2.0303,1.9837,1.9571,1.9469,1.898,1.8528,1.8111,1.7677,1.7349,1.709,1.6891,1.67,1.6499,1.6539,1.6611,1.666,1.6078,1.5605,1.5314,1.5257,1.4934,1.428,1.4444,1.4325,1.3777,1.3718,1.3725,1.3725,1.3725,1.3783,1.3912,1.3564,1.3163,1.2907,1.2231,1.1721,1.148,1.112,1.0734,1.0367,1.0037,0.9841,0.9738,0.9262,0.8918,0.8918,0.8733,0.8701,0.881,0.8723,0.869,0.8821,0.8712,0.8636,0.8657,0.8668,0.8816,0.9075,0.9494,0.9814,0.9822,1.0443,1.1313,1.1905,1.2382,1.2594,1.2692,1.2806,1.2653,1.2229,1.2591,1.2905,1.3059,1.341,1.4101,1.5084,1.6151,1.6718,1.6706,1.659,1.6717,1.7044,1.6868,1.6735,1.7115,1.7308,1.748,3.2984,3.2853,3.1659,3.0632,2.9851,2.937,2.8419,2.725,2.6576,2.6074,2.5538,2.5195,2.4766,2.4244,2.353,2.3338,2.3602,2.2529,2.2157,2.2353,2.2138,2.1891,2.1687,2.1687,2.1668,2.1577,2.1091,2.0822,2.075,2.0168,1.9759,1.9504,1.9256,1.8964,1.8579,1.8304,1.7994,1.7617,1.7617,1.7209,1.6555,1.6681,1.6947,1.7334,1.6947,1.6655,1.6416,1.6448,1.6152,1.5554,1.5268,1.4924,1.4484,1.391,1.3543,1.3528,1.3528,1.3564,1.3564,1.3492,1.3309,1.2929,1.2526,1.2144,1.1957,1.1894,1.1408,1.0606,1.0355,1.0262,1.0077,0.9649,0.9365,0.9375,0.9138,0.8972,0.9064,0.9053,0.9053,0.9053,0.9031,0.9075,0.9121,0.9139,0.9217,0.9345,0.9944,1.019,0.9794,1.0716,1.1797,1.232,1.2598,1.2644,1.2777,1.307,1.297,1.2716,1.3027,1.3092,1.3098,1.3753,1.4894,1.4897,1.6247,1.7203,1.7021,1.6797,1.6852,1.7075,1.6911,1.6539,1.7026,1.7287,1.7391,3.3124,3.2962,3.1919,3.1214,3.0743,2.9905,2.9113,2.8389,2.7162,2.6418,2.6074,2.5664,2.5215,2.4805,2.4283,2.4025,2.3866,2.3145,2.2711,2.255,2.2306,2.206,2.175,2.1687,2.1687,2.1687,2.1433,2.1361,2.128,2.0977,2.0473,1.9913,1.9765,1.9488,1.8998,1.8854,1.8642,1.8364,1.8145,1.7878,1.7564,1.7429,1.7419,1.7553,1.7332,1.7013,1.6641,1.6596,1.6331,1.5829,1.5577,1.5251,1.4816,1.4659,1.4351,1.3769,1.3688,1.3601,1.3492,1.3601,1.3579,1.3273,1.2893,1.2562,1.2378,1.2231,1.1928,1.1408,1.1087,1.0845,1.0644,1.0124,0.9856,0.9935,0.9655,0.9484,0.9622,0.9406,0.9204,0.9204,0.9094,0.905,0.9142,0.93,0.9476,0.9674,1.0217,1.0376,1.0172,1.106,1.1919,1.2459,1.2598,1.266,1.2767,1.2967,1.2984,1.289,1.3101,1.3203,1.2772,1.3092,1.3907,1.4697,1.6283,1.7313,1.7295,1.6945,1.6799,1.7027,1.7051,1.6757,1.7031,1.7141,1.7204,3.318,3.2993,3.2022,3.1578,3.1483,3.0444,2.9833,2.934,2.7793,2.6884,2.6576,2.5967,2.5518,2.5226,2.4879,2.4553,2.4217,2.3682,2.3243,2.2981,2.2686,2.2327,2.187,2.1851,2.1797,2.1705,2.1687,2.1687,2.1642,2.1482,2.1025,2.0404,2.028,1.9974,1.941,1.9333,1.9178,1.8887,1.8634,1.8507,1.8371,1.8117,1.789,1.7789,1.7627,1.7389,1.7004,1.6971,1.6793,1.6351,1.616,1.579,1.5339,1.5426,1.5133,1.4275,1.3999,1.3844,1.366,1.3696,1.3637,1.3492,1.3163,1.2929,1.2746,1.2562,1.2415,1.2241,1.1886,1.1588,1.1346,1.0812,1.0524,1.0592,1.0208,0.9992,1.0031,0.9763,0.958,0.9491,0.9363,0.9192,0.9154,0.9396,0.9735,0.9939,1.0396,1.0713,1.0839,1.1389,1.2058,1.2506,1.2598,1.2613,1.2736,1.2905,1.2893,1.2953,1.3153,1.3235,1.2583,1.2884,1.3421,1.4785,1.6187,1.6987,1.7093,1.6894,1.661,1.6883,1.6901,1.6833,1.6994,1.7015,1.712,3.3508,3.2993,3.2022,3.1578,3.1505,3.0949,3.0508,3.0024,2.8441,2.7542,2.7041,2.6182,2.5674,2.5596,2.5034,2.4821,2.4886,2.4134,2.3729,2.3607,2.3346,2.2889,2.2318,2.23,2.2071,2.176,2.176,2.1723,2.1705,2.1526,2.1239,2.0962,2.0764,2.0338,1.9805,1.971,1.9495,1.9281,1.9196,1.899,1.8648,1.8579,1.8333,1.8019,1.7968,1.7893,1.7876,1.7917,1.7819,1.76,1.7106,1.6648,1.6245,1.5934,1.5512,1.5065,1.4562,1.4194,1.3976,1.3719,1.3543,1.3455,1.3309,1.3163,1.3127,1.2966,1.282,1.282,1.2572,1.2398,1.2225,1.1601,1.1209,1.1207,1.081,1.0454,1.0331,1.0295,1.0181,0.9984,0.9823,0.9647,0.9359,0.9696,1.0047,1.0333,1.0744,1.109,1.1185,1.1654,1.2151,1.2475,1.2598,1.2598,1.2613,1.2813,1.295,1.2987,1.3126,1.3436,1.3332,1.3399,1.4053,1.4807,1.6057,1.6785,1.6872,1.6758,1.6538,1.655,1.6654,1.6688,1.7277,1.7102,1.726,3.3817,3.2853,3.2345,3.1935,3.1578,3.1219,3.0803,3.0252,2.9381,2.837,2.7392,2.6853,2.6319,2.5674,2.547,2.5295,2.5179,2.4833,2.4498,2.4127,2.3823,2.3391,2.2973,2.2768,2.2455,2.2153,2.2116,2.1925,2.1705,2.1616,2.1482,2.1257,2.1015,2.0747,2.0552,2.04,2.0286,2.0147,1.9922,1.9644,1.9264,1.8836,1.8511,1.8391,1.8111,1.7991,1.7991,1.7991,1.7951,1.791,1.7574,1.7206,1.6681,1.6066,1.5715,1.5599,1.5219,1.479,1.4291,1.4082,1.3844,1.3521,1.3419,1.3309,1.3236,1.3127,1.309,1.3053,1.2893,1.2856,1.2893,1.2271,1.1816,1.1837,1.1372,1.0978,1.0901,1.0779,1.0563,1.0274,1.02,1.0155,1.0135,1.0333,1.0618,1.0902,1.1122,1.1324,1.1591,1.1903,1.2274,1.2506,1.2598,1.2598,1.2598,1.2752,1.2889,1.2964,1.3104,1.3315,1.3357,1.3827,1.4459,1.5074,1.614,1.6757,1.6949,1.7087,1.6796,1.6884,1.6923,1.7101,1.7806,1.7712,1.7897,3.4066,3.3254,3.2608,3.2197,3.1818,3.1489,3.1116,3.0691,2.9989,2.9053,2.8026,2.7402,2.6635,2.6006,2.5752,2.5577,2.543,2.5333,2.5033,2.464,2.4331,2.3962,2.3512,2.3267,2.297,2.2593,2.2492,2.2272,2.1925,2.1888,2.1725,2.141,2.1132,2.0997,2.0952,2.0789,2.0744,2.0719,2.0526,2.0218,1.9824,1.9359,1.8972,1.881,1.8528,1.823,1.8025,1.7991,1.7991,1.7991,1.787,1.759,1.7179,1.6593,1.6205,1.6141,1.589,1.5397,1.4728,1.4418,1.4119,1.3704,1.355,1.3419,1.3309,1.3236,1.3236,1.3236,1.3127,1.3163,1.3273,1.282,1.2415,1.2338,1.1906,1.152,1.1316,1.1198,1.0969,1.0629,1.0588,1.0632,1.0725,1.0787,1.1003,1.1326,1.1485,1.1753,1.2067,1.2304,1.2492,1.2758,1.2678,1.2614,1.2598,1.2691,1.2828,1.295,1.3147,1.3322,1.3714,1.4259,1.4808,1.5422,1.607,1.6671,1.7077,1.7296,1.7401,1.7457,1.7388,1.7455,1.7956,1.8387,1.85,3.4228,3.4029,3.2946,3.249,3.2328,3.184,3.16,3.1351,3.0338,2.9647,2.8982,2.7663,2.6963,2.6427,2.6104,2.5771,2.5762,2.5527,2.5352,2.5226,2.4982,2.453,2.3951,2.3884,2.3537,2.2913,2.2895,2.2675,2.2355,2.2236,2.198,2.1464,2.1248,2.1095,2.0997,2.0897,2.0852,2.0952,2.0944,2.0713,2.0193,2.0027,1.9705,1.9299,1.9153,1.8785,1.8094,1.8042,1.8025,1.7991,1.7991,1.791,1.7658,1.7422,1.7147,1.6716,1.6437,1.5999,1.5342,1.4765,1.4366,1.4058,1.3748,1.3616,1.3528,1.3404,1.3353,1.3419,1.3309,1.3273,1.3419,1.3236,1.2929,1.2645,1.2331,1.1931,1.1582,1.1485,1.1436,1.1125,1.1026,1.1047,1.114,1.1149,1.125,1.1638,1.1934,1.2305,1.256,1.2818,1.3123,1.3108,1.2917,1.2726,1.2646,1.2629,1.2783,1.295,1.3208,1.3472,1.3993,1.4529,1.5001,1.5618,1.6328,1.6961,1.7203,1.7417,1.7604,1.7689,1.7675,1.7922,1.8459,1.8875,1.8842,3.5007,3.4531,3.4133,3.3533,3.2862,3.235,3.2028,3.1754,3.1197,3.0453,2.9627,2.903,2.8288,2.7442,2.7012,2.6752,2.6582,2.6229,2.5868,2.5586,2.5284,2.4982,2.4605,2.4391,2.3943,2.3363,2.3023,2.2858,2.2693,2.2483,2.2154,2.2035,2.1789,2.1536,2.1338,2.1445,2.1435,2.1077,2.1195,2.1078,2.0713,2.0307,2.0027,1.9817,1.9445,1.9084,1.8819,1.8562,1.8305,1.8025,1.7991,1.791,1.7732,1.7651,1.7465,1.7221,1.7098,1.6742,1.6063,1.5622,1.511,1.4673,1.4424,1.4199,1.3895,1.3791,1.3689,1.355,1.3419,1.3419,1.3455,1.3346,1.3192,1.3053,1.27,1.2412,1.2181,1.1889,1.1702,1.1618,1.1472,1.1413,1.1463,1.1531,1.1826,1.2354,1.2434,1.2523,1.2958,1.3245,1.3106,1.2885,1.279,1.2916,1.29,1.293,1.3086,1.3145,1.3294,1.3619,1.4142,1.4606,1.5137,1.5807,1.6552,1.7045,1.7285,1.7526,1.7713,1.818,1.8444,1.8803,1.9208,1.9358,1.9304,3.5582,3.4952,3.4751,3.4159,3.3343,3.2831,3.2559,3.2261,3.188,3.1202,3.0409,2.9773,2.8993,2.8116,2.758,2.7247,2.6992,2.6719,2.6387,2.5947,2.5586,2.5254,2.4892,2.4529,2.419,2.3834,2.351,2.3308,2.3114,2.2858,2.2657,2.2501,2.2325,2.2188,2.1934,2.1961,2.1779,2.15,2.1491,2.1392,2.1159,2.0784,2.0483,2.0315,1.993,1.9608,1.9384,1.9144,1.8785,1.8323,1.8076,1.791,1.7732,1.7749,1.7708,1.7465,1.7424,1.7203,1.6549,1.615,1.5849,1.5317,1.5024,1.4795,1.4462,1.4379,1.4117,1.3778,1.3814,1.3799,1.3711,1.3739,1.3693,1.3805,1.3204,1.2884,1.2746,1.2415,1.2275,1.2308,1.2267,1.2252,1.2389,1.2341,1.2583,1.3036,1.3031,1.2912,1.3386,1.3628,1.3457,1.3348,1.3494,1.3445,1.3188,1.3282,1.3393,1.3388,1.3397,1.3765,1.4219,1.4499,1.4913,1.5865,1.6666,1.7117,1.7401,1.7643,1.7897,1.8467,1.8972,1.9167,1.938,1.9686,1.9737,3.6004,3.5411,3.4984,3.4511,3.3879,3.3365,3.3093,3.3027,3.2305,3.1878,3.1317,3.0296,2.9353,2.8623,2.8104,2.7566,2.7141,2.707,2.6875,2.6465,2.5976,2.5459,2.4892,2.4498,2.4214,2.4146,2.4128,2.3895,2.3535,2.3407,2.3297,2.2968,2.279,2.2706,2.2608,2.2325,2.2162,2.2108,2.1825,2.1571,2.1392,2.1329,2.1132,2.0709,2.0629,2.0338,1.9901,1.9675,1.9333,1.8682,1.834,1.808,1.7914,1.7961,1.7897,1.7588,1.7644,1.7367,1.6895,1.6581,1.6285,1.5943,1.5606,1.5188,1.5149,1.5017,1.4727,1.4275,1.4332,1.4368,1.4168,1.4203,1.4427,1.4611,1.3887,1.341,1.3236,1.3039,1.2938,1.3098,1.3222,1.3295,1.3461,1.3303,1.3359,1.3569,1.3696,1.3691,1.3823,1.4074,1.4388,1.43,1.4028,1.3883,1.3607,1.3672,1.3785,1.3847,1.3872,1.4153,1.4466,1.4692,1.503,1.5931,1.6666,1.7145,1.7507,1.7728,1.8057,1.8572,1.8919,1.916,1.9448,1.9708,1.9939,3.6549,3.6091,3.5922,3.5527,3.489,3.401,3.3595,3.353,3.3039,3.2715,3.2456,3.1665,3.0821,3.0348,2.939,2.8737,2.8167,2.7721,2.7461,2.7278,2.6543,2.5739,2.4979,2.4597,2.435,2.4251,2.4202,2.4146,2.3969,2.3712,2.351,2.3352,2.3286,2.3044,2.2724,2.268,2.2444,2.2089,2.1861,2.1634,2.1473,2.1428,2.1257,2.0952,2.0807,2.0664,2.039,1.997,1.9538,1.9076,1.8939,1.8888,1.8718,1.8538,1.8343,1.8209,1.7883,1.7651,1.7448,1.722,1.6912,1.6562,1.65,1.6349,1.5723,1.5787,1.5537,1.5142,1.4912,1.4767,1.4598,1.4492,1.456,1.4703,1.4494,1.4126,1.3894,1.3564,1.3382,1.3382,1.3346,1.3382,1.3433,1.3487,1.3515,1.3848,1.3979,1.4045,1.421,1.4465,1.4738,1.4362,1.4106,1.4128,1.4081,1.4115,1.4197,1.4311,1.447,1.478,1.4983,1.518,1.5596,1.621,1.6722,1.7222,1.7501,1.7728,1.8166,1.8598,1.8866,1.9107,1.937,1.9656,1.9862,3.6712,3.6114,3.6223,3.5895,3.5212,3.4538,3.4208,3.401,3.3595,3.3377,3.317,3.2295,3.1614,3.1042,3.0128,2.9363,2.8688,2.8311,2.7937,2.7591,2.6953,2.6079,2.526,2.4876,2.4616,2.435,2.4251,2.4251,2.4245,2.3944,2.3852,2.3883,2.3852,2.3627,2.3347,2.3158,2.2994,2.2626,2.2373,2.2154,2.2016,2.2034,2.1816,2.1544,2.1291,2.1164,2.0835,2.0248,1.9771,1.9428,1.9247,1.9179,1.9162,1.9016,1.8768,1.8614,1.825,1.7999,1.7806,1.7627,1.7465,1.7261,1.7302,1.7001,1.6637,1.6589,1.6349,1.5779,1.5559,1.5381,1.5227,1.5158,1.5327,1.5529,1.5411,1.5066,1.4537,1.4164,1.4015,1.3928,1.384,1.3768,1.3783,1.3818,1.3976,1.4216,1.4383,1.4419,1.4518,1.4816,1.4871,1.4506,1.4533,1.4657,1.4727,1.478,1.4985,1.5052,1.5312,1.558,1.5675,1.5856,1.6058,1.649,1.6864,1.7222,1.7501,1.7783,1.8111,1.8464,1.8786,1.9081,1.937,1.963,1.9811,3.6704,3.595,3.6223,3.584,3.5202,3.5035,3.4769,3.4481,3.4054,3.3824,3.3552,3.2565,3.1869,3.1179,3.0401,2.9627,2.8887,2.8688,2.8219,2.78,2.7266,2.6645,2.5698,2.549,2.5145,2.4684,2.4393,2.4479,2.4529,2.4374,2.4405,2.4418,2.435,2.4233,2.3932,2.3694,2.3517,2.3334,2.2968,2.272,2.2655,2.2655,2.248,2.2059,2.1869,2.158,2.1103,2.0612,2.0189,1.9704,1.9454,1.941,1.9333,1.9342,1.9136,1.892,1.88,1.8535,1.8226,1.8012,1.7863,1.7863,1.7603,1.7481,1.735,1.7236,1.7,1.6468,1.6269,1.5998,1.5777,1.6085,1.6316,1.6332,1.6325,1.5821,1.5253,1.4814,1.4669,1.4685,1.4633,1.4633,1.4649,1.4649,1.4649,1.453,1.4676,1.4728,1.4796,1.4939,1.4883,1.4605,1.4857,1.5296,1.5367,1.5438,1.5721,1.5965,1.6281,1.6495,1.6548,1.6628,1.6638,1.6846,1.714,1.7368,1.7612,1.7865,1.8084,1.8464,1.8813,1.9158,1.9473,1.9656,1.9862,3.7628,3.6796,3.6417,3.6168,3.5895,3.5312,3.498,3.4869,3.4481,3.4227,3.3865,3.3171,3.2491,3.189,3.079,3.0078,2.9522,2.8973,2.8331,2.7787,2.7969,2.7467,2.6742,2.6417,2.5863,2.5314,2.5317,2.5279,2.5056,2.4913,2.4963,2.4995,2.4634,2.435,2.4165,2.3822,2.3499,2.3444,2.3133,2.2939,2.2826,2.2939,2.2819,2.2467,2.2214,2.1789,2.1392,2.1015,2.0819,2.0624,2.0286,1.9994,1.996,1.9788,1.9687,1.9661,1.9444,1.9207,1.9035,1.8806,1.848,1.81,1.8019,1.7829,1.7668,1.7749,1.7634,1.7313,1.6851,1.642,1.6124,1.6172,1.654,1.6797,1.6511,1.6158,1.5924,1.5418,1.5075,1.5026,1.4935,1.4828,1.4828,1.4792,1.4828,1.4864,1.4935,1.5007,1.5095,1.5163,1.5085,1.4969,1.5193,1.5604,1.5623,1.5732,1.6105,1.656,1.6915,1.7345,1.7396,1.7424,1.742,1.7354,1.7328,1.755,1.7773,1.7728,1.792,1.8383,1.8866,1.9131,1.9396,1.963,1.9862,3.7814,3.7418,3.6913,3.6549,3.6223,3.5621,3.5235,3.498,3.4646,3.4423,3.4094,3.3345,3.2663,3.2146,3.1011,3.0183,2.9732,2.9046,2.8449,2.808,2.8184,2.8027,2.7754,2.7383,2.6839,2.588,2.5699,2.5629,2.5498,2.534,2.5289,2.5424,2.4931,2.4633,2.444,2.4042,2.3859,2.3822,2.3639,2.3462,2.3414,2.3414,2.3334,2.299,2.255,2.2105,2.1853,2.1481,2.1265,2.1113,2.0817,2.0546,2.0501,2.0373,2.0332,2.0211,2.014,1.989,1.9751,1.9525,1.9217,1.8772,1.8591,1.8307,1.814,1.8152,1.8072,1.7808,1.7451,1.7038,1.6751,1.6768,1.7083,1.7266,1.7046,1.6768,1.6656,1.5913,1.5204,1.5204,1.5098,1.5062,1.5043,1.5052,1.5023,1.5075,1.5078,1.5166,1.5518,1.5604,1.5646,1.5643,1.5693,1.5808,1.5757,1.5995,1.6351,1.6821,1.7335,1.7842,1.8188,1.8222,1.8225,1.8061,1.7841,1.7738,1.7901,1.7829,1.7938,1.841,1.8839,1.9078,1.9344,1.9604,1.9837,3.7743,3.7809,3.7308,3.6796,3.6332,3.5927,3.5488,3.5035,3.4646,3.4457,3.4227,3.3182,3.2556,3.2019,3.0969,3.0099,2.9606,2.9205,2.8721,2.8368,2.8368,2.8295,2.8164,2.8033,2.7607,2.6503,2.6266,2.6106,2.5927,2.5733,2.5715,2.5763,2.5274,2.4914,2.4753,2.4514,2.4238,2.4146,2.4091,2.4091,2.406,2.406,2.3859,2.3395,2.3026,2.2571,2.2254,2.1879,2.1634,2.1428,2.1195,2.0997,2.0925,2.0889,2.0935,2.0642,2.0624,2.0558,2.0339,2.011,1.9907,1.966,1.9259,1.886,1.8556,1.8393,1.8371,1.8169,1.7886,1.7609,1.7544,1.7388,1.7615,1.786,1.7689,1.7501,1.7256,1.6245,1.5696,1.5524,1.5587,1.5637,1.5429,1.534,1.5297,1.5235,1.529,1.5408,1.5796,1.598,1.6026,1.6005,1.5966,1.5863,1.5815,1.6156,1.6525,1.7028,1.7598,1.8144,1.865,1.868,1.86,1.8533,1.8398,1.8356,1.8258,1.8199,1.8372,1.8631,1.8813,1.9078,1.9344,1.9604,1.9836,3.8048,3.7607,3.722,3.6904,3.6603,3.6036,3.5653,3.5257,3.4736,3.4367,3.4069,3.3149,3.2534,3.1976,3.0969,3.0099,2.9659,2.9343,2.9099,2.8674,2.8621,2.8514,2.8354,2.8228,2.7985,2.7699,2.721,2.6861,2.6567,2.6405,2.6247,2.6206,2.5838,2.5367,2.4937,2.4684,2.4496,2.4238,2.4202,2.4202,2.4202,2.4183,2.3987,2.359,2.3395,2.2975,2.2455,2.2227,2.1971,2.1491,2.1508,2.1463,2.1284,2.115,2.1096,2.1176,2.1185,2.1093,2.0916,2.0757,2.0292,1.9763,1.9472,1.9135,1.8811,1.8687,1.8735,1.8519,1.8171,1.7813,1.7757,1.7692,1.783,1.8025,1.7916,1.7596,1.7437,1.7051,1.6505,1.6376,1.6338,1.6217,1.5993,1.5806,1.5743,1.568,1.5668,1.5872,1.6211,1.6312,1.6254,1.62,1.6133,1.5981,1.5837,1.6263,1.6716,1.7166,1.7681,1.8212,1.865,1.8918,1.8956,1.8977,1.9102,1.9258,1.9081,1.8744,1.8783,1.9034,1.9088,1.9151,1.9438,1.9749,1.9964,3.8455,3.8192,3.7744,3.7411,3.7089,3.6526,3.5982,3.5566,3.5013,3.459,3.4084,3.3225,3.2556,3.1976,3.0969,3.0099,2.9711,2.9606,2.9343,2.894,2.8781,2.8621,2.8461,2.8281,2.8121,2.796,2.7618,2.7292,2.6943,2.6817,2.6637,2.6402,2.6088,2.5648,2.5157,2.4867,2.4574,2.4293,2.4202,2.4202,2.4202,2.4202,2.4024,2.3932,2.3804,2.3437,2.2832,2.2788,2.2492,2.1923,2.1883,2.182,2.1687,2.1553,2.1419,2.1526,2.1571,2.1498,2.1431,2.1288,2.0989,2.0498,2.0183,1.977,1.9447,1.9317,1.9357,1.9061,1.8616,1.8268,1.8268,1.8154,1.8298,1.8443,1.8259,1.8092,1.7943,1.7765,1.7523,1.7152,1.6898,1.6674,1.6518,1.6346,1.6228,1.6147,1.6049,1.6306,1.6648,1.6695,1.6674,1.6742,1.6729,1.6507,1.6399,1.6688,1.7162,1.7612,1.7979,1.8474,1.8818,1.9152,1.9354,1.9458,1.9694,1.9837,1.9669,1.9268,1.9383,1.9489,1.97,1.9824,1.9772,1.9869,2.0189,3.8647,3.8599,3.8166,3.7838,3.7542,3.6928,3.6417,3.5872,3.5257,3.4869,3.4459,3.3334,3.261,3.2084,3.1074,3.013,2.9711,2.9711,2.9501,2.9237,2.9046,2.8887,2.8674,2.8461,2.8228,2.8194,2.8033,2.7476,2.7257,2.7041,2.6881,2.668,2.6313,2.5874,2.5433,2.5087,2.4679,2.433,2.4202,2.4202,2.4202,2.4202,2.4202,2.4202,2.4202,2.3834,2.3257,2.3177,2.2945,2.2441,2.2206,2.215,2.215,2.1954,2.182,2.1794,2.1731,2.1687,2.1668,2.165,2.1431,2.0973,2.0916,2.0449,2.0069,1.996,2.0009,1.9624,1.9214,1.8825,1.8736,1.8714,1.8714,1.8714,1.8692,1.8652,1.8479,1.8329,1.8174,1.7808,1.7441,1.7184,1.6995,1.6886,1.6746,1.6606,1.6526,1.6686,1.6996,1.7188,1.7273,1.7393,1.7368,1.7128,1.7093,1.7207,1.7761,1.8363,1.8671,1.9043,1.9256,1.9483,1.9704,1.989,1.9942,1.9998,1.9865,1.9839,1.9832,1.9999,2.0369,2.0442,2.0249,2.0437,2.0821,3.807,3.807,3.7998,3.7838,3.7542,3.6982,3.6526,3.6168,3.5423,3.498,3.4803,3.3443,3.2696,3.218,3.1053,3.0276,3.0067,2.9889,2.9846,2.9717,2.9509,2.9278,2.9099,2.9026,2.8495,2.8335,2.8408,2.8247,2.7745,2.726,2.6989,2.6844,2.6625,2.6151,2.5543,2.5393,2.4955,2.4367,2.422,2.4202,2.4202,2.4202,2.4202,2.4202,2.4165,2.4012,2.3677,2.3494,2.3205,2.2983,2.2605,2.2391,2.2353,2.2353,2.222,2.2043,2.1865,2.1687,2.1687,2.1687,2.1559,2.1273,2.1119,2.0845,2.0583,2.0364,2.0249,1.9665,1.9498,1.9313,1.9057,1.8829,1.8812,1.8851,1.8851,1.8772,1.8652,1.8772,1.8594,1.8434,1.8005,1.7718,1.7529,1.7412,1.7325,1.7145,1.7038,1.7205,1.7385,1.7596,1.7783,1.7948,1.7844,1.7617,1.7708,1.7844,1.8313,1.8997,1.9248,1.952,1.9796,1.9992,2.0107,2.0248,2.0287,2.0348,2.0362,2.0339,2.032,2.0486,2.0813,2.0758,2.0543,2.0952,2.1481,3.7974,3.7974,3.7974,3.7945,3.7785,3.7358,3.6928,3.6495,3.595,3.5478,3.4836,3.3724,3.2734,3.1835,3.0778,3.0507,3.0527,3.0192,3.0272,3.0331,2.9987,2.9611,2.9413,2.904,2.8601,2.8335,2.8281,2.8228,2.7853,2.7476,2.7152,2.6989,2.6862,2.6459,2.585,2.5819,2.5307,2.4762,2.4367,2.422,2.4202,2.4202,2.4202,2.4202,2.4202,2.4128,2.3959,2.3945,2.3663,2.3438,2.3209,2.3121,2.2828,2.2701,2.2636,2.2264,2.2176,2.1998,2.1731,2.1731,2.1621,2.1504,2.1394,2.1339,2.1145,2.0796,2.0589,2.0486,1.9989,1.9698,1.9479,1.9257,1.9149,1.913,1.9087,1.8971,1.8931,1.8993,1.8993,1.8794,1.8612,1.829,1.7997,1.7757,1.7761,1.7795,1.7652,1.7674,1.7874,1.8047,1.8281,1.8479,1.8284,1.8021,1.8223,1.8416,1.8835,1.9373,1.955,1.9872,2.036,2.0593,2.0621,2.0697,2.0789,2.0841,2.085,2.0842,2.0779,2.0989,2.1256,2.1206,2.1209,2.1687,2.2155,3.7974,3.7974,3.7974,3.7974,3.7974,3.7679,3.7328,3.682,3.6309,3.5785,3.5044,3.3994,3.2643,3.146,3.0957,3.0905,3.1144,3.0597,3.0814,3.0851,3.0619,3.0138,2.9957,2.9454,2.8933,2.8174,2.8495,2.8388,2.8014,2.7691,2.7422,2.7206,2.7152,2.6747,2.6393,2.6181,2.5858,2.4942,2.4485,2.427,2.4251,2.4251,2.4301,2.4301,2.4313,2.4349,2.4283,2.4287,2.4087,2.4071,2.3808,2.3557,2.3165,2.3019,2.2866,2.2568,2.2485,2.2309,2.2043,2.1909,2.1865,2.1776,2.1731,2.1658,2.171,2.117,2.0796,2.0973,2.0607,2.0204,1.9893,1.9655,1.9546,1.9472,1.9377,1.9283,1.9149,1.917,1.9192,1.9033,1.8873,1.8812,1.8443,1.8109,1.8092,1.8329,1.8351,1.8189,1.8316,1.8456,1.8598,1.8744,1.8813,1.8713,1.9067,1.9298,1.9629,1.9925,2.0068,2.047,2.1086,2.1132,2.1017,2.1152,2.1333,2.1124,2.0987,2.1138,2.1265,2.1354,2.1485,2.18,2.2018,2.246,2.2783,3.7974,3.7974,3.7974,3.7974,3.7998,3.7679,3.7435,3.6982,3.6254,3.585,3.5295,3.4177,3.2809,3.1741,3.1466,3.1401,3.1428,3.1353,3.1381,3.1381,3.1278,3.088,3.0607,3.0273,2.9888,2.9013,2.892,2.8708,2.8335,2.8014,2.7906,2.7799,2.753,2.7122,2.6805,2.6559,2.6158,2.5269,2.4734,2.4399,2.435,2.4399,2.448,2.4529,2.4726,2.4903,2.511,2.4871,2.4726,2.4711,2.438,2.3874,2.3621,2.344,2.3171,2.2851,2.275,2.2618,2.2441,2.2264,2.222,2.2043,2.1909,2.1865,2.2024,2.1802,2.1493,2.1243,2.0986,2.0613,2.0338,2.0118,1.9934,1.9751,1.9677,1.96,1.9451,1.925,1.9231,1.9231,1.9152,1.9069,1.9025,1.8683,1.8417,1.8638,1.8656,1.855,1.8625,1.8732,1.8794,1.8935,1.9173,1.9434,2.0061,2.037,2.0534,2.0876,2.1156,2.1596,2.2116,2.1948,2.1596,2.1733,2.1909,2.155,2.1247,2.1426,2.1513,2.1564,2.1729,2.2121,2.2614,2.3111,2.3376,3.7974,3.7974,3.7974,3.7974,3.7998,3.7892,3.7572,3.7143,3.6742,3.5833,3.4688,3.4079,3.3231,3.2295,3.1977,3.2081,3.2188,3.1574,3.1788,3.1857,3.1712,3.1264,3.0941,3.0619,3.0056,2.9232,2.9205,2.8973,2.8354,2.8354,2.8281,2.8121,2.7853,2.7527,2.7191,2.6774,2.6205,2.573,2.5107,2.4695,2.4695,2.4695,2.4726,2.4775,2.4794,2.5039,2.5197,2.515,2.5112,2.507,2.4961,2.4512,2.3984,2.3848,2.3504,2.311,2.3008,2.2925,2.275,2.2574,2.2353,2.2309,2.2176,2.2176,2.2264,2.2176,2.1987,2.1738,2.1472,2.1077,2.0814,2.0576,2.0319,2.0063,1.9952,1.9952,1.9824,1.9681,1.9641,1.9747,1.9527,1.9301,1.9297,1.9257,1.9047,1.8913,1.8913,1.8891,1.8931,1.8971,1.9033,1.9231,1.9429,1.9863,2.045,2.0915,2.1377,2.1761,2.2167,2.2484,2.275,2.2652,2.2397,2.2537,2.2502,2.2203,2.197,2.1851,2.1771,2.1706,2.2049,2.2549,2.3125,2.3691,2.3948,3.7974,3.7974,3.7974,3.7974,3.7974,3.7974,3.7732,3.7251,3.7012,3.5979,3.4221,3.432,3.395,3.3081,3.2631,3.2733,3.2733,3.2302,3.2286,3.2271,3.207,3.1601,3.1278,3.0949,3.0504,2.9553,2.9311,2.9185,2.8814,2.8814,2.8601,2.8461,2.8247,2.796,2.7626,2.7022,2.657,2.6263,2.5664,2.5199,2.5131,2.5047,2.5039,2.5039,2.5137,2.5235,2.5382,2.5421,2.5373,2.5362,2.5254,2.498,2.4531,2.4121,2.3887,2.3535,2.3266,2.3188,2.3013,2.2794,2.2574,2.2618,2.2397,2.2441,2.2485,2.2441,2.2227,2.2183,2.1876,2.1646,2.1373,2.1256,2.0959,2.0759,2.0673,2.0589,2.0398,2.0255,2.0269,2.0259,2.0085,1.9928,1.974,1.9718,1.9491,1.9334,1.9366,1.9276,1.9152,1.9192,1.9231,1.9469,1.9784,2.0255,2.076,2.1339,2.1911,2.2322,2.2694,2.2952,2.3126,2.305,2.3001,2.2982,2.2926,2.2834,2.2556,2.224,2.2008,2.18,2.229,2.2878,2.342,2.3927,2.4334,3.7974,3.7974,3.7974,3.7974,3.7974,3.7974,3.7785,3.7435,3.6904,3.5956,3.4778,3.4922,3.4737,3.4041,3.3464,3.3347,3.3345,3.2866,3.2587,3.2545,3.2483,3.2277,3.1884,3.143,3.0859,3.0529,3.0031,2.9606,2.9448,2.9185,2.8973,2.8727,2.8568,2.8408,2.8242,2.7871,2.7532,2.7168,2.6365,2.5887,2.5691,2.5522,2.5418,2.5448,2.5595,2.5713,2.5596,2.5674,2.5664,2.5673,2.5467,2.5232,2.5043,2.433,2.3996,2.382,2.3604,2.3382,2.3144,2.2925,2.2925,2.2925,2.2706,2.2618,2.2662,2.2618,2.2485,2.2422,2.2322,2.2133,2.2032,2.1976,2.1693,2.1489,2.138,2.1293,2.1144,2.0932,2.0908,2.0916,2.0871,2.0689,2.0387,2.0142,1.9876,1.9758,1.9787,1.9637,1.9421,1.9614,1.9768,1.9841,2.0214,2.0742,2.1284,2.1911,2.244,2.283,2.3165,2.3379,2.3562,2.3609,2.3527,2.3428,2.3361,2.3317,2.2947,2.2571,2.2415,2.2349,2.2684,2.318,2.3717,2.4216,2.4622,3.7974,3.7974,3.7974,3.7974,3.7974,3.7785,3.7596,3.7197,3.6611,3.5871,3.5196,3.5355,3.5147,3.4568,3.4119,3.3858,3.3762,3.3012,3.2669,3.2669,3.2727,3.238,3.2043,3.1629,3.1153,3.0677,3.0137,2.9752,2.9554,2.9448,2.9237,2.9046,2.8781,2.8568,2.8237,2.791,2.7604,2.7448,2.6812,2.6334,2.6447,2.6206,2.6004,2.5984,2.6083,2.5996,2.5801,2.5927,2.5917,2.5965,2.5757,2.5706,2.5476,2.4822,2.44,2.4212,2.3971,2.3667,2.358,2.3493,2.3319,2.3144,2.3013,2.2925,2.2969,2.2925,2.2794,2.2706,2.2662,2.2459,2.2328,2.2284,2.2133,2.2133,2.2077,2.2077,2.1976,2.1703,2.157,2.1636,2.1575,2.1212,2.0847,2.0893,2.0641,2.0369,2.0379,1.9902,1.9567,2.0264,2.0636,2.0521,2.0762,2.1268,2.1827,2.2353,2.274,2.3113,2.3409,2.3703,2.3886,2.3982,2.3963,2.3843,2.381,2.3789,2.3467,2.3171,2.2974,2.2948,2.319,2.3569,2.416,2.4593,2.4963,3.7974,3.7974,3.7974,3.7974,3.7974,3.7702,3.7382,3.6982,3.658,3.6071,3.5694,3.5813,3.5681,3.5109,3.4637,3.4199,3.403,3.3409,3.2898,3.2898,3.2841,3.2731,3.2419,3.1851,3.1422,3.0905,3.047,3.0096,2.9784,2.9764,2.9554,2.9237,2.8887,2.8674,2.8363,2.8153,2.791,2.7754,2.7305,2.6914,2.6824,2.6641,2.6367,2.6309,2.623,2.6123,2.6084,2.6112,2.6139,2.6187,2.6196,2.6164,2.5879,2.5418,2.4951,2.4641,2.4139,2.3921,2.3884,2.3797,2.358,2.3406,2.3363,2.3276,2.3188,2.3144,2.3057,2.2969,2.2925,2.2838,2.2687,2.2662,2.2618,2.2643,2.2599,2.2599,2.2478,2.2203,2.2021,2.2106,2.213,2.1722,2.1509,2.1532,2.1537,2.1236,2.0936,2.0383,1.999,2.0794,2.1714,2.1929,2.1688,2.2037,2.2415,2.2698,2.3067,2.3335,2.3629,2.3909,2.4018,2.4091,2.4164,2.4236,2.4207,2.4154,2.4001,2.379,2.3626,2.3529,2.3542,2.4005,2.462,2.499,2.5272,3.8027,3.7974,3.7974,3.7974,3.7921,3.7702,3.7197,3.6712,3.6634,3.6472,3.6254,3.6231,3.6068,3.573,3.5202,3.4702,3.4199,3.3749,3.3409,3.3182,3.3126,3.3084,3.2824,3.228,3.1754,3.134,3.0884,3.0387,3.0056,2.9942,2.9764,2.9501,2.9079,2.8887,2.8688,2.8509,2.829,2.8061,2.7715,2.7383,2.7266,2.6836,2.6671,2.6554,2.6339,2.63,2.633,2.6386,2.6344,2.64,2.6476,2.6524,2.6262,2.5698,2.537,2.4992,2.4368,2.4317,2.4222,2.4135,2.3904,2.3794,2.3797,2.358,2.3406,2.3406,2.3363,2.3232,2.3188,2.3144,2.3101,2.3057,2.3013,2.2969,2.2882,2.2838,2.275,2.2591,2.2421,2.244,2.2577,2.238,2.2337,2.2361,2.2174,2.1854,2.1522,2.1164,2.0998,2.1658,2.2612,2.3801,2.352,2.3016,2.3191,2.3313,2.3297,2.3549,2.3725,2.3945,2.4091,2.42,2.4236,2.4309,2.4526,2.4496,2.4348,2.4332,2.4327,2.4274,2.4395,2.44,2.4981,2.5187,2.5467,3.8185,3.7974,3.7974,3.7974,3.7921,3.7465,3.6928,3.644,3.644,3.6332,3.6254,3.6254,3.6223,3.6114,3.5368,3.4924,3.4479,3.403,3.3523,3.3296,3.326,3.309,3.2752,3.2369,3.2002,3.1629,3.1153,3.0677,3.0429,3.0222,2.9889,2.9554,2.9343,2.9205,2.9046,2.894,2.8654,2.8363,2.8015,2.7826,2.7748,2.7434,2.7192,2.6979,2.6741,2.6744,2.6603,2.656,2.6585,2.6709,2.6805,2.6853,2.701,2.6376,2.5869,2.5669,2.5406,2.5221,2.4977,2.4851,2.4617,2.4285,2.4247,2.4013,2.3797,2.3687,2.3687,2.3537,2.3406,2.3363,2.3319,2.3276,2.3232,2.3188,2.3101,2.3057,2.3013,2.2906,2.2736,2.2601,2.2756,2.279,2.2829,2.2892,2.2659,2.238,2.2113,2.1853,2.1924,2.2532,2.3577,2.4811,2.4734,2.405,2.388,2.3901,2.3764,2.3764,2.3948,2.4064,2.4127,2.42,2.4273,2.4454,2.4683,2.4778,2.4729,2.4746,2.4903,2.5389,2.5533,2.5338,2.5258,2.5629,2.5828,3.8238,3.8027,3.7974,3.7945,3.7785,3.7465,3.6982,3.6549,3.6386,3.6254,3.6254,3.6254,3.6223,3.6004,3.5423,3.498,3.4702,3.4311,3.3861,3.3636,3.3409,3.3409,3.3092,3.2606,3.2286,3.1934,3.1581,3.1091,3.0719,3.0263,2.9889,2.9764,2.9711,2.9501,2.929,2.9132,2.9026,2.8734,2.8476,2.8186,2.8035,2.797,2.7732,2.7467,2.7286,2.7182,2.6907,2.6883,2.6967,2.7037,2.7044,2.7119,2.7179,2.6686,2.6187,2.5978,2.5834,2.5644,2.5478,2.5437,2.508,2.479,2.4689,2.4602,2.439,2.4176,2.3964,2.3754,2.3667,2.358,2.3537,2.3493,2.345,2.3406,2.3319,2.3276,2.3232,2.3144,2.2964,2.2808,2.2828,2.2925,2.3047,2.3193,2.3284,2.3199,2.3096,2.2961,2.2919,2.3204,2.4457,2.5806,2.5494,2.4952,2.4759,2.4569,2.4415,2.4318,2.4354,2.4411,2.4338,2.4309,2.4394,2.4647,2.4969,2.5059,2.5257,2.5351,2.5534,2.6051,2.645,2.6304,2.6251,2.6516,2.6609,3.8262,3.7974,3.7974,3.7838,3.7596,3.7542,3.7197,3.6688,3.6386,3.6254,3.6254,3.6254,3.6168,3.595,3.5566,3.5146,3.4869,3.4534,3.4255,3.4086,3.3692,3.3579,3.3466,3.3197,3.2684,3.2434,3.21,3.1553,3.0876,3.0461,3.0265,3.0036,2.9816,2.9764,2.9764,2.9448,2.9343,2.9375,2.9051,2.8675,2.8206,2.7989,2.7946,2.766,2.7703,2.7733,2.7537,2.748,2.7454,2.7359,2.7309,2.7309,2.7117,2.6931,2.6455,2.6268,2.6273,2.6127,2.5999,2.5937,2.5689,2.5396,2.5251,2.523,2.4995,2.4518,2.4184,2.4135,2.4089,2.3924,2.3797,2.3711,2.3624,2.358,2.3537,2.345,2.3363,2.326,2.3079,2.2985,2.3113,2.3212,2.3631,2.3777,2.4036,2.4047,2.3971,2.3858,2.3807,2.3948,2.4952,2.6376,2.625,2.5756,2.5554,2.5324,2.5102,2.5028,2.4891,2.4751,2.4595,2.458,2.4539,2.4933,2.5359,2.5676,2.5886,2.6004,2.6238,2.6798,2.7113,2.7108,2.7281,2.7553,2.7395,3.8421,3.7974,3.7974,3.7838,3.7596,3.7304,3.7036,3.6712,3.644,3.6332,3.6254,3.6277,3.6277,3.6114,3.5785,3.54,3.5202,3.4869,3.4534,3.4142,3.3805,3.3692,3.3523,3.3296,3.2928,3.2669,3.2357,3.192,3.1345,3.0942,3.081,3.0747,3.0453,3.0245,3.0287,2.9942,2.9784,2.9994,2.9659,2.9303,2.8951,2.8733,2.8665,2.8347,2.8269,2.8064,2.7803,2.7365,2.7325,2.7214,2.7309,2.7309,2.7289,2.7185,2.7081,2.6998,2.6921,2.6734,2.6568,2.6464,2.6256,2.5941,2.5775,2.573,2.5437,2.4815,2.4545,2.4602,2.4536,2.4306,2.4097,2.3967,2.3861,2.3817,2.3754,2.3667,2.3537,2.3331,2.315,2.3239,2.335,2.3728,2.4104,2.4423,2.468,2.4703,2.4637,2.4519,2.4357,2.4451,2.5049,2.62,2.6829,2.6593,2.6331,2.6064,2.5825,2.5447,2.5241,2.5079,2.4914,2.4904,2.4933,2.5394,2.584,2.606,2.6336,2.6663,2.6989,2.7517,2.7889,2.7974,2.8432,2.8797,2.8413,3.8368,3.8027,3.7974,3.7838,3.7596,3.7382,3.7089,3.6688,3.6526,3.6386,3.6332,3.6254,3.6277,3.6223,3.595,3.5621,3.5423,3.5091,3.4702,3.4311,3.3974,3.3918,3.3692,3.3466,3.3332,3.3056,3.2475,3.1968,3.174,3.1487,3.1303,3.104,3.0758,3.0727,3.0704,3.0256,3.0224,3.0516,3.0203,2.9921,2.9711,2.9618,2.9225,2.8818,2.8809,2.856,2.8074,2.7682,2.7655,2.7455,2.7404,2.7452,2.7499,2.7552,2.76,2.7579,2.7537,2.7516,2.7259,2.7091,2.6945,2.6651,2.6414,2.6434,2.6305,2.574,2.5272,2.5351,2.5286,2.5118,2.4787,2.4617,2.437,2.4268,2.4097,2.3884,2.3754,2.3564,2.3504,2.3547,2.3766,2.4086,2.4466,2.4765,2.5062,2.5545,2.5426,2.5492,2.5303,2.5147,2.5723,2.6152,2.6812,2.7093,2.6834,2.6674,2.6508,2.609,2.5639,2.5312,2.5175,2.5182,2.5324,2.5676,2.605,2.6302,2.6611,2.7019,2.759,2.8082,2.8497,2.8848,2.9338,2.9713,2.9416,3.8238,3.7998,3.7945,3.7838,3.7596,3.7489,3.7143,3.6766,3.6634,3.6549,3.6309,3.6254,3.6277,3.6114,3.6004,3.5676,3.5423,3.5202,3.4869,3.459,3.4255,3.4086,3.403,3.3896,3.3692,3.3304,3.2748,3.2475,3.2238,3.2133,3.1801,3.112,3.1019,3.1116,3.0622,3.037,3.0433,3.0693,3.062,3.0443,3.0391,3.0339,2.9715,2.9528,2.9497,2.9279,2.8707,2.8299,2.8223,2.8034,2.7683,2.7641,2.7689,2.7762,2.7857,2.7904,2.7904,2.7861,2.7819,2.7798,2.7632,2.7416,2.7214,2.7083,2.6907,2.6714,2.6285,2.609,2.609,2.5689,2.5354,2.5127,2.4836,2.4567,2.4333,2.4163,2.4034,2.3864,2.3884,2.3927,2.4294,2.4637,2.4978,2.5274,2.5652,2.6168,2.6363,2.6484,2.6502,2.6422,2.6645,2.6764,2.7042,2.7169,2.7139,2.7111,2.6967,2.6834,2.6395,2.5822,2.5396,2.5385,2.5535,2.5851,2.6198,2.6577,2.696,2.7397,2.796,2.8541,2.883,2.918,2.9526,2.9867,3.0083,3.8238,3.7974,3.7756,3.7649,3.7542,3.7089,3.682,3.6712,3.6495,3.6332,3.6332,3.6277,3.6168,3.5895,3.6168,3.595,3.5423,3.5312,3.5146,3.4869,3.4423,3.4255,3.4142,3.3974,3.3974,3.3607,3.3226,3.3021,3.2663,3.2754,3.2666,3.2002,3.2222,3.1977,3.1317,3.1032,3.0853,3.0924,3.0879,3.0724,3.0651,3.0495,3.0235,3.0016,2.9971,2.9608,2.9161,2.8676,2.8557,2.8434,2.8343,2.8168,2.8099,2.8189,2.8284,2.8331,2.831,2.8241,2.831,2.8203,2.7989,2.8006,2.7849,2.7717,2.7628,2.7581,2.7277,2.7146,2.6865,2.5965,2.5588,2.5357,2.5086,2.4671,2.4335,2.4376,2.4354,2.4313,2.4292,2.4679,2.5168,2.5569,2.6008,2.6321,2.6693,2.7058,2.7139,2.7238,2.7335,2.7445,2.7509,2.7469,2.7405,2.7296,2.729,2.7389,2.7331,2.7265,2.7089,2.6439,2.5936,2.561,2.5746,2.6154,2.6543,2.6985,2.7364,2.7796,2.8287,2.883,2.9058,2.9373,2.9685,2.9962,3.0205]}]]